[[{"header":{"parameterUnit":"m.s-1","parameterCategory":1,"la1":30.6,"la2":28.766,"lo1":-90.7593,"lo2":-88.6598,"dy":0.0162,"dx":0.0183,"nx":116,"ny":114,"refTime":"2023-10-09T00:00:00:Z","depth":0,"parameterNumber":2,"parameterNumberName":"U-component_of_WINDS"},"data":[0.0,0.0,0.0,0.0,0.0,0.0,0.0,0.0,0.0,0.0,0.0,0.0,0.0,0.0,0.0,0.0,0.0,0.0,0.0,0.0,0.0,0.0,0.0,0.0,0.0,0.0,0.0,0.0,0.0,0.0,0.0,0.0,0.0,0.0,0.0,0.0,0.0,0.0,0.0,0.0,0.0,0.0,0.0,0.0,0.0,0.0,0.0,0.0,0.0,0.0,0.0,0.0,0.0,0.0,0.0,0.0,0.0,0.0,0.0,0.0,0.0,0.0,0.0,0.0,0.0,0.0,0.0,0.0,0.0,0.0,0.0,0.0,0.0,0.0,0.0,0.0,0.0,0.0,0.0,0.0,0.0,0.0,0.0,0.0,0.0,0.0,0.0,0.0,0.0,0.0,0.0,0.0,0.0,0.0,0.0,0.0,0.0,0.0,0.0,0.0,0.0,0.0,0.0,0.0,0.0,0.0,0.0,0.0,0.0,0.0,0.0,0.0,0.0,0.0,0.0,0.0,0.0,0.0,0.0,0.0,0.0,0.0,0.0,0.0,0.0,0.0,0.0,0.0,0.0,0.0,0.0,0.0,0.0,0.0,0.0,0.0,0.0,0.0,0.0,0.0,0.0,0.0,0.0,0.0,0.0,0.0,0.0,0.0,0.0,0.0,0.0,0.0,0.0,0.0,0.0,0.0,0.0,0.0,0.0,0.0,0.0,0.0,0.0,0.0,0.0,0.0,0.0,0.0,0.0,0.0,0.0,0.0,0.0,0.0,0.0,0.0,0.0,0.0,0.0,0.0,0.0,0.0,0.0,0.0,0.0,0.0,0.0,0.0,0.0,0.0,0.0,0.0,0.0,0.0,0.0,0.0,0.0,0.0,0.0,0.0,0.0,0.0,0.0,0.0,0.0,0.0,0.0,0.0,0.0,0.0,0.0,0.0,0.0,0.0,0.0,0.0,0.0,0.0,0.0,0.0,0.0,0.0,0.0,0.0,0.0,0.0,0.0,0.0,0.0,0.0,0.0,0.0,0.0,0.0,0.0,0.0,0.0,0.0,0.0,0.0,0.0,0.0,0.0,0.0,0.0,0.0,0.0,0.0,0.0,0.0,0.0,0.0,0.0,0.0,0.0,0.0,0.0,0.0,0.0,0.0,0.0,0.0,0.0,0.0,0.0,0.0,0.0,0.0,0.0,0.0,0.0,0.0,0.0,0.0,0.0,0.0,0.0,0.0,0.0,0.0,0.0,0.0,0.0,0.0,0.0,0.0,0.0,0.0,0.0,0.0,0.0,0.0,0.0,0.0,0.0,0.0,0.0,0.0,0.0,0.0,0.0,0.0,0.0,0.0,0.0,0.0,0.0,0.0,0.0,0.0,0.0,0.0,0.0,0.0,0.0,0.0,0.0,0.0,0.0,0.0,0.0,0.0,0.0,0.0,0.0,0.0,0.0,0.0,0.0,0.0,0.0,0.0,0.0,0.0,0.0,0.0,0.0,0.0,0.0,0.0,0.0,0.0,0.0,0.0,0.0,0.0,0.0,0.0,0.0,0.0,0.0,0.0,0.0,0.0,0.0,0.0,0.0,0.0,0.0,0.0,0.0,0.0,0.0,0.0,0.0,0.0,0.0,0.0,0.0,0.0,0.0,0.0,0.0,0.0,0.0,0.0,0.0,0.0,0.0,0.0,0.0,0.0,0.0,0.0,0.0,0.0,0.0,0.0,0.0,0.0,0.0,0.0,0.0,0.0,0.0,0.0,0.0,0.0,0.0,0.0,0.0,0.0,0.0,0.0,0.0,0.0,0.0,0.0,0.0,0.0,0.0,0.0,0.0,0.0,0.0,0.0,0.0,0.0,0.0,0.0,0.0,0.0,0.0,0.0,0.0,0.0,0.0,0.0,0.0,0.0,0.0,0.0,0.0,0.0,0.0,0.0,0.0,0.0,0.0,0.0,0.0,0.0,0.0,0.0,0.0,0.0,0.0,0.0,0.0,0.0,0.0,0.0,0.0,0.0,0.0,0.0,0.0,0.0,0.0,0.0,0.0,0.0,0.0,0.0,0.0,0.0,0.0,0.0,0.0,0.0,0.0,0.0,0.0,0.0,0.0,0.0,0.0,0.0,0.0,0.0,0.0,0.0,0.0,0.0,0.0,0.0,0.0,0.0,0.0,0.0,0.0,0.0,0.0,0.0,0.0,0.0,0.0,0.0,0.0,0.0,0.0,0.0,0.0,0.0,0.0,0.0,0.0,0.0,0.0,0.0,0.0,0.0,0.0,0.0,0.0,0.0,0.0,0.0,0.0,0.0,0.0,0.0,0.0,0.0,0.0,0.0,0.0,0.0,0.0,0.0,0.0,0.0,0.0,0.0,0.0,0.0,0.0,0.0,0.0,0.0,0.0,0.0,0.0,0.0,0.0,0.0,0.0,0.0,0.0,0.0,0.0,0.0,0.0,0.0,0.0,0.0,0.0,0.0,0.0,0.0,0.0,0.0,0.0,0.0,0.0,0.0,0.0,0.0,0.0,0.0,0.0,0.0,0.0,0.0,0.0,0.0,0.0,0.0,0.0,0.0,0.0,0.0,0.0,0.0,0.0,0.0,0.0,0.0,0.0,0.0,0.0,0.0,0.0,0.0,0.0,0.0,0.0,0.0,0.0,0.0,0.0,0.0,0.0,0.0,0.0,0.0,0.0,0.0,0.0,0.0,0.0,0.0,0.0,0.0,0.0,0.0,0.0,0.0,0.0,0.0,0.0,0.0,0.0,0.0,0.0,0.0,0.0,0.0,0.0,0.0,0.0,0.0,0.0,0.0,0.0,0.0,0.0,0.0,0.0,0.0,0.0,0.0,0.0,0.0,0.0,0.0,0.0,0.0,0.0,0.0,0.0,0.0,0.0,0.0,0.0,0.0,0.0,0.0,0.0,0.0,0.0,0.0,0.0,0.0,0.0,0.0,0.0,0.0,0.0,0.0,0.0,0.0,0.0,0.0,0.0,0.0,0.0,0.0,0.0,0.0,0.0,0.0,0.0,0.0,0.0,0.0,0.0,0.0,0.0,0.0,0.0,0.0,0.0,0.0,0.0,0.0,0.0,0.0,0.0,0.0,0.0,0.0,0.0,0.0,0.0,0.0,0.0,0.0,0.0,0.0,0.0,0.0,0.0,0.0,0.0,0.0,0.0,0.0,0.0,0.0,0.0,0.0,0.0,0.0,0.0,0.0,0.0,0.0,0.0,0.0,0.0,0.0,0.0,0.0,0.0,0.0,0.0,0.0,0.0,0.0,0.0,0.0,0.0,0.0,0.0,0.0,0.0,0.0,0.0,0.0,0.0,0.0,0.0,0.0,0.0,0.0,0.0,0.0,0.0,0.0,0.0,0.0,0.0,0.0,0.0,0.0,0.0,0.0,0.0,0.0,0.0,0.0,0.0,0.0,0.0,0.0,0.0,0.0,0.0,0.0,0.0,0.0,0.0,0.0,0.0,0.0,0.0,0.0,0.0,0.0,0.0,0.0,0.0,0.0,0.0,0.0,0.0,0.0,0.0,0.0,0.0,0.0,0.0,0.0,0.0,0.0,0.0,0.0,0.0,0.0,0.0,0.0,0.0,0.0,0.0,0.0,0.0,0.0,0.0,0.0,0.0,0.0,0.0,0.0,0.0,0.0,0.0,0.0,0.0,0.0,0.0,0.0,0.0,0.0,0.0,0.0,0.0,0.0,0.0,0.0,0.0,0.0,0.0,0.0,0.0,0.0,0.0,0.0,0.0,0.0,0.0,0.0,0.0,0.0,0.0,0.0,0.0,0.0,0.0,0.0,0.0,0.0,0.0,0.0,0.0,0.0,0.0,0.0,0.0,0.0,0.0,0.0,0.0,0.0,0.0,0.0,0.0,0.0,0.0,0.0,0.0,0.0,0.0,0.0,0.0,0.0,0.0,0.0,0.0,0.0,0.0,0.0,0.0,0.0,0.0,0.0,0.0,0.0,0.0,0.0,0.0,0.0,0.0,0.0,0.0,0.0,0.0,0.0,0.0,0.0,0.0,0.0,0.0,0.0,0.0,0.0,0.0,0.0,0.0,0.0,0.0,0.0,0.0,0.0,0.0,0.0,0.0,0.0,0.0,0.0,0.0,0.0,0.0,0.0,0.0,0.0,0.0,0.0,0.0,0.0,0.0,0.0,0.0,0.0,0.0,0.0,0.0,0.0,0.0,0.0,0.0,0.0,0.0,0.0,0.0,0.0,0.0,0.0,0.0,0.0,0.0,0.0,0.0,0.0,0.0,0.0,0.0,0.0,0.0,0.0,0.0,0.0,0.0,0.0,0.0,0.0,0.0,0.0,0.0,0.0,0.0,0.0,0.0,0.0,0.0,0.0,0.0,0.0,0.0,0.0,0.0,0.0,0.0,0.0,0.0,0.0,0.0,0.0,0.0,0.0,0.0,0.0,0.0,0.0,0.0,0.0,0.0,0.0,0.0,0.0,0.0,0.0,0.0,0.0,0.0,0.0,0.0,0.0,0.0,0.0,0.0,0.0,0.0,0.0,0.0,0.0,0.0,0.0,0.0,0.0,0.0,0.0,0.0,0.0,0.0,0.0,0.0,0.0,0.0,0.0,0.0,0.0,0.0,0.0,0.0,0.0,0.0,0.0,0.0,0.0,0.0,0.0,0.0,0.0,0.0,0.0,0.0,0.0,0.0,0.0,0.0,0.0,0.0,0.0,0.0,0.0,0.0,0.0,0.0,0.0,0.0,0.0,0.0,0.0,0.0,0.0,0.0,0.0,0.0,0.0,0.0,0.0,0.0,0.0,0.0,0.0,0.0,0.0,0.0,0.0,0.0,0.0,0.0,0.0,0.0,0.0,0.0,0.0,0.0,0.0,0.0,0.0,0.0,0.0,0.0,0.0,0.0,0.0,0.0,0.0,0.0,0.0,0.0,0.0,0.0,0.0,0.0,0.0,0.0,0.0,0.0,0.0,0.0,0.0,0.0,0.0,0.0,0.0,0.0,0.0,0.0,0.0,0.0,0.0,0.0,0.0,0.0,0.0,0.0,0.0,0.0,0.0,0.0,0.0,0.0,0.0,0.0,0.0,0.0,0.0,0.0,0.0,0.0,0.0,0.0,0.0,0.0,0.0,0.0,0.0,0.0,0.0,0.0,0.0,0.0,0.0,0.0,0.0,0.0,0.0,0.0,0.0,0.0,0.0,0.0,0.0,0.0,0.0,0.0,0.0,0.0,0.0,0.0,0.0,0.0,0.0,0.0,0.0,0.0,0.0,0.0,0.0,0.0,0.0,0.0,0.0,0.0,0.0,0.0,0.0,0.0,0.0,0.0,0.0,0.0,0.0,0.0,0.0,0.0,0.0,0.0,0.0,0.0,0.0,0.0,0.0,0.0,0.0,0.0,0.0,0.0,0.0,0.0,0.0,0.0,0.0,0.0,0.0,0.0,0.0,0.0,0.0,0.0,0.0,0.0,0.0,0.0,0.0,0.0,0.0,0.0,0.0,0.0,0.0,0.0,0.0,0.0,0.0,0.0,0.0,0.0,0.0,0.0,0.0,0.0,0.0,0.0,0.0,0.0,0.0,0.0,0.0,0.0,0.0,0.0,0.0,0.0,0.0,0.0,0.0,0.0,0.0,0.0,0.0,0.0,0.0,0.0,0.0,0.0,0.0,0.0,0.0,0.0,0.0,0.0,0.0,0.0,0.0,0.0,0.0,0.0,0.0,0.0,0.0,0.0,0.0,0.0,0.0,0.0,0.0,0.0,0.0,0.0,0.0,0.0,0.0,0.0,0.0,0.0,0.0,0.0,0.0,0.0,0.0,0.0,0.0,0.0,0.0,0.0,0.0,0.0,0.0,0.0,0.0,0.0,0.0,0.0,0.0,0.0,0.0,0.0,0.0,0.0,0.0,0.0,0.0,0.0,0.0,0.0,0.0,0.0,0.0,0.0,0.0,0.0,0.0,0.0,0.0,0.0,0.0,0.0,0.0,0.0,0.0,0.0,0.0,0.0,0.0,0.0,0.0,0.0,0.0,0.0,0.0,0.0,0.0,0.0,0.0,0.0,0.0,0.0,0.0,0.0,0.0,0.0,0.0,0.0,0.0,0.0,0.0,-4.1633,-4.2092,0.0,0.0,0.0,0.0,0.0,0.0,0.0,0.0,0.0,0.0,0.0,0.0,0.0,0.0,0.0,0.0,0.0,0.0,0.0,0.0,0.0,0.0,0.0,0.0,0.0,0.0,0.0,0.0,0.0,0.0,0.0,0.0,0.0,0.0,0.0,0.0,0.0,-1.9396,-1.9605,-1.9605,-1.9497,-2.0292,-2.137,-2.2526,0.0,0.0,0.0,0.0,0.0,0.0,0.0,0.0,0.0,0.0,0.0,0.0,0.0,0.0,0.0,0.0,0.0,0.0,0.0,0.0,0.0,0.0,0.0,0.0,0.0,0.0,0.0,0.0,0.0,0.0,0.0,0.0,0.0,0.0,0.0,0.0,0.0,0.0,0.0,0.0,0.0,0.0,0.0,0.0,0.0,0.0,0.0,0.0,0.0,0.0,0.0,0.0,0.0,0.0,0.0,0.0,0.0,0.0,0.0,0.0,0.0,0.0,0.0,0.0,0.0,0.0,0.0,0.0,0.0,0.0,-4.1767,-4.2092,0.0,0.0,0.0,0.0,0.0,0.0,0.0,0.0,0.0,0.0,0.0,0.0,0.0,0.0,0.0,0.0,0.0,0.0,0.0,0.0,0.0,0.0,0.0,-1.2545,-1.3496,-1.5583,-1.5694,-1.6581,0.0,0.0,0.0,0.0,0.0,0.0,-1.8587,-1.8587,-1.8587,-1.8587,-1.8784,-1.8973,-1.9079,-2.0594,-2.1898,-2.2819,-2.3592,0.0,0.0,0.0,0.0,0.0,0.0,0.0,0.0,0.0,0.0,0.0,0.0,0.0,0.0,0.0,0.0,0.0,0.0,0.0,0.0,0.0,0.0,0.0,0.0,0.0,0.0,0.0,0.0,0.0,0.0,0.0,0.0,0.0,0.0,0.0,0.0,0.0,0.0,0.0,0.0,0.0,0.0,0.0,0.0,0.0,0.0,0.0,0.0,0.0,0.0,0.0,0.0,0.0,0.0,0.0,0.0,0.0,0.0,0.0,0.0,0.0,0.0,0.0,-4.1623,-4.1565,-4.1744,-4.1744,-4.1439,-4.096,-4.1512,-4.1744,-4.1758,-4.1874,0.0,0.0,0.0,0.0,0.0,0.0,0.0,0.0,0.0,0.0,0.0,0.0,0.0,0.0,0.0,0.0,0.0,0.0,0.0,-1.211,-1.2332,-1.3083,-1.4067,-1.5321,-1.6323,-1.7333,-1.828,0.0,0.0,0.0,0.0,0.0,-1.8397,-1.8397,-1.8397,-1.8397,-1.9267,-1.9852,-2.0354,-2.233,-2.342,-2.3824,-2.3326,-2.3608,-2.4468,0.0,0.0,0.0,0.0,0.0,0.0,0.0,0.0,0.0,0.0,0.0,0.0,0.0,0.0,0.0,0.0,0.0,0.0,0.0,0.0,0.0,0.0,0.0,0.0,0.0,0.0,0.0,0.0,0.0,0.0,0.0,0.0,0.0,0.0,0.0,0.0,0.0,0.0,0.0,0.0,0.0,-3.2351,-3.1813,0.0,0.0,0.0,0.0,0.0,0.0,0.0,0.0,0.0,0.0,0.0,0.0,0.0,-3.9842,-4.096,-3.9634,-3.9719,-4.1221,-3.979,-3.9615,-4.0365,-4.0365,-4.0307,-4.0234,-4.0321,0.0,-4.0408,-4.0989,0.0,0.0,0.0,0.0,0.0,0.0,0.0,0.0,0.0,0.0,0.0,0.0,0.0,0.0,0.0,0.0,0.0,0.0,0.0,0.0,0.0,-1.2432,-1.2881,-1.3908,-1.4389,-1.5119,-1.6657,-1.6579,0.0,0.0,0.0,-1.758,-1.758,-1.7661,-1.8037,-1.8601,-1.9067,-1.9625,-2.0382,-2.2117,-2.2953,-2.3133,-2.3024,-2.3835,-2.5229,-2.4762,0.0,0.0,0.0,0.0,0.0,0.0,0.0,0.0,0.0,0.0,0.0,0.0,0.0,0.0,0.0,0.0,0.0,0.0,0.0,0.0,0.0,0.0,0.0,0.0,0.0,0.0,0.0,0.0,0.0,0.0,0.0,0.0,0.0,0.0,0.0,0.0,0.0,0.0,0.0,-3.2351,-3.2711,-3.2264,-3.2624,-3.3068,0.0,0.0,0.0,0.0,0.0,0.0,0.0,0.0,0.0,-3.9175,-3.8826,-3.9247,-4.0525,-3.9492,-3.9492,-4.0539,-3.9822,-3.9679,-4.0104,-4.0104,-3.9915,-3.9596,-3.9596,-3.9596,-3.9668,-4.0684,-4.1323,-4.1686,0.0,0.0,0.0,0.0,-4.2092,-4.2092,0.0,0.0,0.0,0.0,0.0,0.0,0.0,0.0,0.0,0.0,0.0,0.0,-1.1896,-1.1678,-1.1896,-1.278,-1.2915,-1.3606,-1.5278,-1.5351,-1.5812,-1.6581,-1.6784,-1.6885,-1.6979,-1.7246,-1.7785,-1.8788,-1.9063,-1.9695,-2.0602,-2.2041,-2.2668,-2.2668,-2.3193,-2.4085,-2.5155,-2.4435,-2.4526,-2.5155,0.0,0.0,0.0,0.0,0.0,0.0,0.0,0.0,0.0,0.0,0.0,0.0,0.0,0.0,0.0,0.0,0.0,0.0,0.0,0.0,0.0,0.0,0.0,0.0,0.0,0.0,0.0,0.0,0.0,0.0,0.0,0.0,0.0,0.0,0.0,0.0,0.0,-3.2723,-3.281,-3.245,-3.2636,-3.2982,0.0,0.0,0.0,0.0,0.0,0.0,-3.6844,-3.772,-3.8434,-3.8928,-3.8463,-3.8739,-3.9857,-3.9421,-3.9509,-4.0104,-4.0104,-4.0104,-4.0104,-4.0104,-3.9857,-3.9421,-3.9421,-3.9523,-3.9755,-4.0525,-4.1236,-4.186,-4.2034,-4.2092,-4.2092,-4.2092,-4.2092,-4.2092,0.0,0.0,0.0,0.0,0.0,0.0,0.0,0.0,0.0,0.0,0.0,-1.124,-1.1568,-1.1345,-1.1513,-1.2462,-1.3443,-1.4354,-1.5,-1.592,-1.6581,-1.6588,-1.6588,-1.6784,-1.6979,-1.7246,-1.7785,-1.8788,-1.9687,-2.0602,-2.1695,-2.2862,-2.3416,-2.3503,-2.3937,-2.3764,-2.3251,-2.3164,-2.3164,-2.3339,-2.3901,0.0,0.0,0.0,0.0,0.0,0.0,0.0,0.0,0.0,0.0,0.0,0.0,0.0,0.0,0.0,0.0,0.0,0.0,0.0,0.0,0.0,0.0,0.0,0.0,0.0,0.0,0.0,0.0,0.0,0.0,0.0,0.0,0.0,0.0,0.0,0.0,0.0,0.0,-3.1725,-3.1925,0.0,0.0,0.0,0.0,-3.4314,-3.5156,-3.5949,-3.6844,-3.772,-3.8217,-3.8246,-3.8217,-3.8536,-3.9233,-3.9218,-3.9509,-4.0104,-4.0104,-4.0104,-4.0104,-4.0104,-4.0075,-4.0046,-4.0046,-4.0408,-4.096,-4.0379,-4.0539,-4.1207,-4.1845,-4.2092,-4.2092,-4.2092,-4.2092,-4.2092,0.0,0.0,0.0,0.0,0.0,0.0,0.0,0.0,-1.1568,-1.1568,-1.135,-1.1126,-1.124,-1.1017,-1.087,-1.1015,-1.1394,-1.2131,-1.3437,-1.3884,-1.4657,-1.6015,-1.64,-1.7052,-1.8156,-1.8241,-1.9063,-2.0701,-2.0962,-2.1695,-2.2599,-2.3309,-2.358,-2.3503,-2.411,-2.4196,-2.3744,-2.328,-2.3454,-2.3907,-2.329,-2.3387,0.0,0.0,0.0,0.0,0.0,0.0,0.0,0.0,0.0,0.0,0.0,0.0,0.0,0.0,0.0,0.0,0.0,0.0,0.0,0.0,0.0,0.0,0.0,0.0,0.0,0.0,0.0,0.0,0.0,0.0,0.0,0.0,0.0,0.0,0.0,0.0,0.0,-3.2101,-3.2463,0.0,-3.3227,-3.3068,-3.3227,-3.3882,-3.4992,-3.5695,-3.6029,-3.74,-3.8405,-3.8826,-3.8841,-3.9146,-3.977,-3.977,-3.9886,-4.0104,-4.0104,-4.0104,-4.0104,-4.0104,-4.0104,-4.0104,-4.0104,-4.0481,-4.1076,-4.0844,-4.1134,-4.1758,-4.2005,-4.2092,-4.2092,-4.2092,-4.2092,-4.2092,0.0,0.0,0.0,0.0,0.0,0.0,0.0,0.0,-1.135,-1.1459,-1.1126,-1.1017,-1.1017,-1.0748,-1.0485,-1.0188,-1.0824,-1.1553,-1.2657,-1.3409,-1.4376,-1.573,-1.6298,-1.7232,-1.8611,-1.8788,-1.9786,-2.1695,-2.1695,-2.2148,-2.3144,-2.3406,-2.3493,-2.3406,-2.3927,-2.411,-2.3937,-2.3647,-2.3831,-2.4454,-2.3387,-2.3299,-2.3754,0.0,0.0,0.0,0.0,0.0,0.0,0.0,0.0,0.0,0.0,0.0,0.0,0.0,0.0,0.0,0.0,0.0,0.0,0.0,0.0,0.0,0.0,0.0,0.0,0.0,0.0,0.0,0.0,0.0,0.0,0.0,0.0,0.0,0.0,-3.1158,-3.1424,-3.23,-3.2562,-3.281,-3.3142,-3.3056,-3.3142,-3.3471,-3.4511,-3.5305,-3.5628,-3.7197,-3.8419,-3.9189,-3.9407,-3.9697,-4.0104,-4.0321,-4.0437,-4.0437,-4.067,-4.0771,-4.0771,-4.0771,-4.0771,-4.0771,-4.0771,-4.1018,-4.1439,-4.1439,-4.17,-4.2092,-4.2092,-4.2092,-4.2092,-4.2092,-4.2092,-4.2092,0.0,0.0,0.0,0.0,0.0,0.0,-1.1126,-1.0911,-1.0802,-1.1017,-1.0911,-1.0692,-1.0692,-1.0538,-1.0363,-1.018,-1.1919,-1.2892,-1.2748,-1.4663,-1.5737,-1.5832,-1.6305,-1.7138,-1.8334,-1.8696,-1.9786,-2.1695,-2.1695,-2.2236,-2.3135,-2.3144,-2.3144,-2.3135,-2.3416,-2.3503,-2.3503,-2.4024,-2.4282,-2.4454,-2.4282,-2.4024,-2.3754,0.0,0.0,0.0,0.0,0.0,0.0,0.0,0.0,0.0,0.0,0.0,0.0,0.0,0.0,0.0,0.0,0.0,0.0,0.0,0.0,0.0,0.0,0.0,0.0,0.0,0.0,0.0,0.0,0.0,0.0,0.0,0.0,0.0,-3.0519,-3.08,-3.127,-3.23,-3.2213,-3.2201,-3.2636,-3.2711,-3.281,-3.3068,-3.3907,-3.4703,-3.5548,-3.6993,-3.8246,-3.9112,-3.9784,-4.0104,-4.0133,-4.08,-4.1134,-4.1134,-4.1787,-4.2092,-4.2092,-4.2078,-4.2063,-4.2063,-4.2049,-4.2034,-4.2034,-4.2034,-4.2034,-4.2034,-4.2078,-4.2092,-4.2092,-4.2092,-4.2078,-4.2063,0.0,0.0,0.0,0.0,0.0,0.0,-1.0802,-1.0802,-1.0692,-1.0802,-1.0802,-1.0692,-1.0692,-1.0538,-1.0363,-1.018,-1.1207,-1.2093,-1.2646,-1.3992,-1.5159,-1.6028,-1.64,-1.7138,-1.8334,-1.933,-2.0421,-2.1695,-2.2413,-2.2872,-2.3135,-2.3319,-2.3319,-2.3135,-2.3493,-2.3677,-2.3503,-2.3764,-2.3927,-2.4013,-2.3927,-2.3299,-2.2492,0.0,0.0,0.0,0.0,0.0,0.0,0.0,0.0,0.0,0.0,0.0,0.0,0.0,0.0,0.0,0.0,0.0,0.0,0.0,0.0,0.0,0.0,0.0,0.0,0.0,0.0,0.0,0.0,0.0,0.0,0.0,-2.639,-2.741,-2.9349,-2.9521,-3.0158,-3.1937,-3.2376,-3.255,-3.2711,-3.2896,-3.2982,-3.3068,-3.3907,-3.4481,-3.4703,-3.571,-3.6882,-3.8246,-3.8885,-3.9762,-4.0815,-4.1482,-4.1816,-4.1816,-4.2005,-4.2092,-4.2078,-4.1599,-4.1366,-4.1337,-4.0858,-4.0641,-4.0641,-4.0641,-4.0641,-4.0742,-4.1715,-4.2092,-4.2092,-4.2092,-4.136,-4.0444,0.0,0.0,0.0,0.0,0.0,0.0,-1.0692,-1.0692,-1.0692,-1.0692,-1.0692,-1.0692,-1.0692,-1.0469,-1.0278,-1.0172,-1.0927,-1.1697,-1.264,-1.4094,-1.5159,-1.554,-1.6116,-1.7052,-1.8334,-1.9063,-1.9968,-2.1051,-2.205,-2.2501,-2.2511,-2.3047,-2.3232,-2.3135,-2.3406,-2.3406,-2.3319,-2.3125,-2.3028,-2.2853,-2.258,-2.2306,-2.1943,-2.1784,-2.106,-2.0232,-2.0232,-2.048,-2.0738,-1.9933,0.0,0.0,0.0,0.0,0.0,0.0,0.0,0.0,0.0,0.0,0.0,0.0,0.0,0.0,0.0,0.0,0.0,0.0,0.0,0.0,0.0,0.0,0.0,0.0,-2.5461,-2.6101,-2.7554,-2.8532,-2.9624,-3.1193,-3.2101,-3.2636,-3.2711,-3.2896,-3.3081,-3.3081,-3.3569,-3.3979,-3.4397,-3.5067,-3.6076,-3.7354,-3.8401,-3.9329,-4.0187,-4.09,-4.1265,-4.1265,-4.1265,-4.1265,-4.125,-4.0858,-4.067,-4.0655,-4.0263,-4.0104,-4.0104,-4.0104,-4.0104,-4.0176,0.0,0.0,0.0,0.0,-4.0188,-3.9379,0.0,0.0,0.0,0.0,0.0,0.0,-1.0692,-1.0692,-1.0692,-1.0692,-1.0692,-1.0692,-1.0692,-1.0391,-1.0184,-1.0164,-1.0842,-1.1683,-1.2635,-1.4472,-1.5248,-1.4663,-1.554,-1.6676,-1.8156,-1.8334,-1.8972,-2.0051,-2.1051,-2.1516,-2.1516,-2.2413,-2.2775,-2.2775,-2.2775,-2.2775,-2.2687,-2.2041,-2.1676,-2.1507,-2.0773,-2.0953,-2.1587,-2.1418,-2.0782,-1.9869,-1.9869,-2.018,-2.0374,-1.9296,0.0,0.0,0.0,0.0,0.0,0.0,0.0,0.0,0.0,0.0,0.0,0.0,0.0,0.0,0.0,0.0,0.0,0.0,0.0,0.0,0.0,0.0,0.0,0.0,-2.4414,-2.468,-2.5663,-2.7549,-2.9181,-3.0279,-3.148,-3.229,-3.2524,-3.2794,-3.2918,-3.2968,-3.298,-3.3335,-3.423,-3.477,0.0,0.0,0.0,-3.8653,-3.8901,-3.9533,-3.9931,-4.0104,-4.0025,-4.0025,-4.0104,-4.0031,-4.0002,-3.9987,-3.9915,-3.9886,-3.9886,-3.9886,-3.9807,-3.9729,-4.0046,-4.0104,-4.001,-3.914,-3.8707,-3.8529,0.0,0.0,0.0,0.0,0.0,0.0,-1.0692,-1.0692,-1.0692,-1.0692,-1.0692,-1.0692,-1.0692,-1.0505,-1.0322,-1.0176,-1.0866,-1.1751,-1.2646,-1.3113,-1.3607,-1.4388,-1.4765,-1.5622,-1.6958,-1.7878,-1.8611,-1.9055,-2.0051,-2.0503,-2.0503,-2.0683,-2.0773,-2.0773,-2.0773,-2.0773,-2.0773,-2.0593,-2.0503,-2.0503,-2.0322,-1.996,-1.9422,-1.9338,-1.8696,-1.787,-1.787,-1.7916,-1.7912,-1.7117,-1.6953,-1.6849,-1.6095,-1.5802,0.0,0.0,0.0,0.0,0.0,0.0,0.0,0.0,0.0,0.0,0.0,0.0,0.0,0.0,0.0,0.0,0.0,0.0,0.0,-2.4331,-2.4414,-2.4506,-2.4965,-2.61,-2.7545,-2.9386,-3.0459,-3.1252,-3.163,-3.1712,-3.1901,-3.234,-3.2378,-3.2663,-3.33,-3.3414,-3.417,-3.5521,-3.5809,-3.6944,-3.8901,-3.8366,-3.8763,-4.0089,-3.9453,0.0,-4.0075,-3.9596,-3.9363,-3.9349,-3.8797,-3.8565,-3.8565,-3.8565,-3.817,-3.7714,-3.9448,-4.0104,-3.9952,-3.8629,-3.7629,-3.6907,0.0,0.0,0.0,0.0,0.0,0.0,-1.0692,-1.0692,-1.0692,-1.0692,-1.0692,-1.0692,-1.0472,-1.0349,-1.0262,-0.9963,-1.0813,-1.1288,-1.1189,-1.215,-1.2926,-1.3511,-1.4094,-1.5146,-1.6581,-1.7232,-1.7692,-1.8056,-1.9055,-1.9513,-1.9513,-1.996,-2.0232,-2.0232,-2.0232,-2.0232,-2.0141,-1.9115,-1.8748,-1.8656,-1.7624,-1.698,-1.672,-1.8226,-1.7863,-1.656,-1.656,-1.6278,-1.5724,-1.539,-1.5338,-1.5267,-1.4918,-1.4856,-1.5089,0.0,0.0,0.0,0.0,0.0,0.0,0.0,0.0,0.0,0.0,0.0,0.0,0.0,0.0,-2.2344,-2.2621,0.0,-2.3467,-2.3719,-2.3779,-2.3869,-2.4148,-2.4927,-2.6379,-2.8597,-2.9725,-3.0587,-3.1304,-3.1386,-3.1499,-3.1775,-3.18,-3.1926,-3.2215,-3.2491,-3.3009,-3.3759,-3.4464,-3.5438,-3.6661,-3.6633,-3.7259,-3.8496,-3.769,-3.769,-3.8482,-3.8196,-3.8053,-3.8039,-3.8182,-3.7962,-3.7491,-3.7078,-3.6674,-3.6336,-3.7424,-3.7821,-3.7714,-3.6538,-3.5871,-3.5419,0.0,0.0,0.0,0.0,0.0,0.0,0.0,-1.0692,-1.0692,-1.0692,-1.0692,-1.0582,-1.0363,-1.0329,-1.0132,-0.9855,-1.0423,-1.0498,-0.9624,-1.1179,-1.215,-1.2436,-1.3414,-1.4669,-1.6197,-1.6487,-1.677,-1.7239,-1.8056,-1.8519,-1.8519,-1.9239,-1.9596,-1.9596,-1.9596,-1.9505,-1.9214,-1.7632,-1.6886,-1.6605,-1.4924,-1.4268,-1.4549,-1.7001,-1.6915,-1.5514,-1.5514,-1.5032,-1.4268,-1.4076,-1.398,-1.398,-1.3788,-1.3837,-1.4109,-1.4457,-1.4618,0.0,0.0,0.0,0.0,0.0,0.0,0.0,0.0,-1.9231,-1.9763,-1.9411,-2.076,-2.1804,-2.1668,-2.2444,-2.3079,-2.2832,-2.296,-2.3232,-2.3503,-2.4166,-2.5359,-2.7581,-2.8803,-2.9832,-3.0735,-3.0991,-3.1122,-3.1235,-3.1235,-3.1286,-3.1386,-3.1813,-3.2051,-3.2051,-3.3232,-3.3892,-3.4058,-3.4684,-3.5452,-3.6507,-3.5734,-3.5789,-3.6688,-3.6688,-3.6688,-3.6688,-3.74,-3.7323,-3.6596,-3.5869,-3.5548,-3.5386,-3.5386,-3.5224,-3.5074,-3.4551,-3.4397,-3.4314,0.0,0.0,0.0,0.0,0.0,0.0,0.0,0.0,-1.0692,-1.0692,-1.0692,-1.0692,-1.0692,-1.0655,-1.0505,-1.0188,-0.9932,-0.9723,-0.9628,-0.9821,-1.0404,-1.1365,-1.2339,-1.3505,-1.4854,-1.6008,-1.6777,-1.7073,-1.7333,-1.7512,-1.7512,-1.7606,-1.7598,-1.7598,-1.7598,-1.7124,-1.6257,-1.6075,-1.5406,-1.4644,-1.4358,-1.4268,-1.4364,-1.4644,-1.4644,-1.4459,-1.4459,-1.4364,-1.4172,-1.321,-1.292,-1.2732,-1.1868,-1.1595,-1.1845,-1.3023,-1.3402,-1.3668,-1.4897,-1.4951,-1.5004,-1.5789,-1.6328,-1.6792,0.0,-1.7809,-1.8015,-1.7683,-1.7804,-1.8155,-1.9036,-1.9936,-2.0916,-2.1704,-2.2599,-2.3232,-2.3667,-2.3831,-2.4454,-2.5888,-2.7405,-2.8402,-2.8802,-2.9551,-3.0181,-3.067,-3.0708,-3.0896,-3.1361,-3.1449,-3.1486,-3.1486,-3.1619,-3.2133,-3.2922,-3.27,-3.3411,-3.4998,-3.4684,-3.4937,-3.5789,-3.5789,-3.5789,-3.5775,-3.5855,-3.5869,-3.5695,-3.5615,-3.5156,-3.4551,-3.4551,-3.405,-3.3484,-3.4147,-3.4397,-3.4314,0.0,0.0,0.0,0.0,0.0,0.0,0.0,0.0,-1.0692,-1.0692,-1.0692,-1.0692,-1.0472,-1.0293,-1.0067,-1.0022,-0.977,-0.9628,-0.9628,-0.9628,-1.0113,-1.117,-1.156,-1.2533,-1.3992,-1.4567,-1.5045,-1.5432,-1.5514,-1.5507,-1.5507,-1.5507,-1.5507,-1.5507,-1.5507,-1.5317,-1.4937,-1.4262,-1.3782,-1.3307,-1.2732,-1.2543,-1.2543,-1.2543,-1.2543,-1.2543,-1.3113,-1.3022,0.0,-1.196,-1.1868,-1.177,-1.1292,-1.1194,-1.1311,-1.1885,-1.2003,-1.2122,-1.2307,-1.3023,-1.3616,-1.3853,-1.5134,-1.6458,-1.6697,-1.7323,-1.7721,-1.7399,-1.7785,-1.8334,-1.8703,-2.0059,-2.123,-2.1774,-2.2677,-2.3493,-2.3937,-2.4024,-2.4272,-2.4935,-2.608,-2.7232,-2.8383,-2.8791,-2.9386,-3.0118,-3.0131,-3.0231,-3.0444,-3.0758,-3.0934,-3.0934,-3.1235,-3.1549,-3.1941,-3.1776,-3.2354,-3.3542,-3.2924,-3.3122,-3.3887,-3.3887,-3.4392,-3.5126,-3.4941,-3.4937,-3.4855,-3.4358,-3.3966,-3.3654,-3.3654,-3.3208,-3.2689,-3.3369,-3.3654,-3.3569,0.0,0.0,0.0,0.0,0.0,0.0,0.0,0.0,0.0,0.0,-1.0692,-1.0582,-1.0476,-1.0099,-0.9951,-0.9977,-0.9803,-0.9681,-0.9628,-0.9628,-0.9916,-1.069,-1.1077,-1.1755,-1.2829,-1.3216,-1.3607,-1.4076,-1.4172,-1.4268,-1.4268,-1.4268,-1.4268,-1.4268,-1.4268,-1.4172,-1.3788,-1.3017,-1.2538,-1.2252,-1.1482,-1.1194,-1.1194,-1.1194,-1.1194,-1.1194,-1.1863,-1.177,-1.1198,-1.0998,-1.0998,-1.1096,-1.0998,-1.0998,-1.1096,-1.1096,-1.1096,-1.1096,-1.0507,-1.1282,-1.2191,-1.2251,-1.3762,-1.5331,-1.5628,-1.6512,-1.7223,-1.6899,-1.7684,-1.8427,-1.8527,-1.9886,-2.1159,-2.1676,-2.258,-2.3396,-2.412,-2.4206,-2.4282,-2.4454,-2.502,-2.608,-2.7637,-2.7959,-2.8462,-2.9378,-2.9456,-2.9546,-2.9792,-3.0168,-3.0382,-3.0382,-3.0758,-3.0947,-3.0947,-3.1097,-3.1483,-3.2109,-3.1635,-3.1699,-3.2329,-3.2329,-3.2935,-3.3807,-3.3636,-3.3584,-3.3501,-3.2857,-3.2616,-3.2616,-3.2616,-3.2353,-3.2039,-3.2453,-3.2616,-3.2616,0.0,0.0,0.0,0.0,0.0,0.0,0.0,0.0,0.0,0.0,0.0,0.0,0.0,-1.0534,-1.0351,-1.0168,-0.9985,-0.9807,-0.964,-0.9628,-0.9628,-0.9628,-1.069,-1.1268,-1.1268,-1.2436,-1.3216,-1.3511,-1.3788,-1.407,-1.4268,-1.4268,-1.4268,-1.4268,-1.4268,-1.3692,-1.2732,-1.2732,-1.2155,-1.1194,-1.1194,-1.1194,-1.1194,-1.1194,-1.0998,-1.0806,-1.0806,-1.0998,-1.1096,-1.0609,-1.0609,-1.0806,-1.0507,-1.0609,-1.0806,-1.0806,-1.0998,-1.1096,-1.0507,-1.0605,-1.0998,-1.1868,-1.2252,-1.2732,-1.4088,-1.514,-1.59,-1.5893,-1.6655,-1.7426,-1.7721,-1.855,-1.9629,-2.0863,-2.1854,-2.2853,-2.4024,-2.4206,-2.4282,-2.4454,-2.454,-2.4861,-2.583,-2.6648,-2.7557,-2.8462,-2.8542,-2.8882,-2.9792,-2.9817,-2.9817,-2.9817,-2.9829,-2.9842,-2.9842,-3.0369,-3.0645,-3.0645,-3.1148,-3.1386,-3.1468,-3.1468,-3.148,-3.1493,-3.1505,-3.1518,-3.1518,-3.1436,-3.1436,-3.1436,-3.1436,-3.1436,-3.1411,-3.1436,-3.1436,-3.1436,0.0,0.0,0.0,0.0,0.0,0.0,0.0,0.0,0.0,0.0,0.0,0.0,0.0,0.0,0.0,0.0,-1.0063,-0.986,-0.9803,-0.9693,-0.9628,-0.9628,-0.9916,-1.0207,-1.0404,-1.0792,-1.1184,-1.1477,-1.117,-1.1063,-1.1161,-1.0867,-1.0676,-1.0676,-1.0676,-1.048,-1.0096,-0.9694,-0.9899,-1.0408,-0.9998,-1.0395,-1.1096,-1.0194,-0.9797,-0.9698,0.0,-0.9809,-1.0609,-1.0507,-1.0006,-0.9501,-0.9406,-0.9406,-0.9505,-0.9908,-1.0105,-1.0105,-0.971,-1.0207,-1.0801,-1.0895,-1.1765,-1.2727,-1.3113,-1.407,-1.5032,-1.5704,-1.6082,-1.656,-1.7527,-1.8988,-2.0331,-2.1123,-2.257,-2.3744,-2.4282,-2.4368,-2.4454,-2.4454,-2.454,-2.4615,-2.4946,-2.5757,-2.6565,-2.7476,-2.7557,-2.7971,-2.8882,-2.8961,-2.9209,-2.9792,-2.9792,-2.9792,-2.9792,-2.998,-3.0068,-3.0068,-3.0244,-3.0331,-3.0344,-3.0708,-3.0871,-3.0896,-3.1248,-3.1386,-3.1386,-3.1386,-3.1386,-3.1386,-3.1386,-3.1185,-3.0871,-3.0871,-3.0645,-3.0432,0.0,0.0,0.0,0.0,0.0,0.0,0.0,0.0,0.0,0.0,0.0,0.0,0.0,0.0,0.0,0.0,0.0,-1.0026,-0.9892,-0.9782,-0.9693,-0.9628,-0.9628,-0.9525,-0.932,-0.932,-0.9217,-0.911,-0.8806,-0.8609,-0.8711,-0.8619,-0.8425,-0.8223,-0.8425,-0.8425,-0.8223,-0.8021,-0.8421,-0.9019,-0.881,-0.9201,-0.9702,-0.8803,-0.8403,0.0,-0.7912,-0.8312,-0.9011,-0.9414,-0.8913,-0.8107,-0.8011,-0.8011,-0.8209,-0.8612,-0.8711,-0.8711,-0.8414,-0.8909,-0.9608,-0.9809,-1.0681,-1.1556,-1.2052,-1.3017,-1.3884,-1.4549,-1.5317,-1.6183,-1.7138,-1.8703,-2.0068,-2.0863,-2.2306,-2.3484,-2.3917,-2.4272,-2.454,-2.454,-2.454,-2.454,-2.4615,-2.502,-2.5673,-2.6565,-2.6648,-2.7139,-2.8462,-2.8462,-2.8949,-2.9856,-2.9869,-2.9869,-2.9934,-2.9869,-2.9792,-2.9792,-2.9792,-2.9792,-2.9804,-3.0168,-3.0319,-3.0331,-3.067,-3.0821,-3.0821,-3.0821,-3.0821,-3.0821,-3.0821,-3.062,-3.024,-2.9978,-2.9845,-2.9892,0.0,0.0,0.0,0.0,0.0,0.0,0.0,0.0,0.0,0.0,0.0,0.0,0.0,0.0,0.0,0.0,0.0,0.0,-0.9937,-0.9896,-0.9811,-0.9648,-0.9632,-0.9126,-0.8024,-0.8021,-0.7617,-0.6816,-0.6716,-0.6918,-0.7123,-0.7621,-0.7524,-0.7123,-0.7621,-0.7524,-0.7123,-0.7624,-0.7521,-0.722,-0.7621,-0.7621,-0.7223,-0.7123,-0.6921,-0.6716,-0.6716,-0.652,-0.6423,-0.7521,-0.7419,-0.6617,-0.6423,-0.652,-0.6716,-0.7021,-0.7123,-0.712,-0.6816,-0.7018,-0.7521,-0.851,-0.9,-0.9596,-1.0895,-1.1868,-1.2635,-1.2727,-1.4555,-1.6183,-1.6553,-1.7707,-1.8928,-2.0076,-2.1069,-2.2041,-2.3008,-2.3907,-2.4454,-2.4454,-2.454,-2.4625,-2.4861,-2.47,-2.4861,-2.5746,-2.5746,-2.6483,-2.8291,-2.8383,-2.8858,-2.9921,-2.9856,-2.9856,-3.0075,-2.9856,-2.9792,-2.9792,-2.9792,-2.9792,-2.9792,-2.9792,-2.9792,-2.9792,-2.9792,-2.9792,-2.9792,-2.9792,-2.9792,-2.9714,-2.9714,-2.9714,-2.9546,-2.8712,-2.8961,-2.9624,0.0,0.0,0.0,0.0,0.0,0.0,0.0,0.0,0.0,0.0,0.0,0.0,0.0,0.0,0.0,0.0,0.0,0.0,-1.0302,-1.0038,-0.9864,-0.9819,-0.9697,-0.9126,-0.8024,-0.8021,-0.7521,-0.652,-0.6126,-0.5932,-0.6032,-0.5732,-0.5532,-0.5432,-0.5532,-0.5532,-0.5432,-0.5131,-0.5529,-0.6326,-0.6027,-0.6426,-0.7123,-0.6126,-0.5627,-0.5627,-0.5429,-0.473,-0.4331,-0.6224,-0.6126,-0.5331,-0.5231,-0.4931,-0.4931,-0.5732,-0.6331,-0.6634,-0.6531,-0.7329,-0.8127,-0.8425,-0.9118,-0.9912,-1.0216,-1.0993,-1.177,-1.2538,-1.3974,-1.5317,-1.6358,-1.8234,-1.972,-2.0249,-2.1069,-2.2041,-2.3008,-2.328,-2.3724,-2.4454,-2.454,-2.4625,-2.4861,-2.4871,-2.4946,-2.5348,-2.502,-2.5443,-2.6928,-2.6846,-2.7244,-2.8371,-2.8937,-2.9328,-2.9328,-2.9831,-3.0011,-3.0011,-2.9869,-2.9792,-2.9792,-2.9792,-2.9792,-2.9792,-2.9792,-2.9792,-2.9792,-2.9792,-2.9456,-2.8791,-2.8791,-2.8383,-2.7718,-2.7557,-2.7557,-2.781,0.0,0.0,0.0,0.0,0.0,0.0,0.0,0.0,0.0,0.0,0.0,0.0,0.0,0.0,0.0,0.0,0.0,0.0,0.0,-1.0168,-0.9969,-0.9888,-0.9721,-0.9126,-0.8024,-0.7521,-0.6725,-0.5729,-0.4933,-0.4533,-0.4533,-0.4433,-0.4334,-0.4133,-0.4634,-0.4533,-0.4133,-0.4234,-0.4533,0.0,0.0,-0.5031,-0.5329,-0.463,-0.4331,-0.4332,-0.4131,-0.3732,-0.343,-0.463,-0.463,-0.4133,-0.4133,-0.4033,-0.4133,-0.4734,-0.5236,-0.5737,-0.5737,-0.6234,-0.6933,-0.7531,-0.8425,-0.932,-0.9821,-1.0801,-1.178,-1.2732,-1.4076,-1.5412,-1.6553,-1.8234,-1.9629,-2.0158,-2.1069,-2.2041,-2.3008,-2.3541,-2.4069,-2.4615,-2.4786,-2.4871,-2.5211,-2.5115,-2.52,-2.5464,-2.5041,-2.5285,-2.6445,-2.6351,-2.6835,-2.7891,-2.8688,-2.9081,-2.9081,-2.9015,-2.8937,-2.8937,-2.8712,-2.8633,-2.8633,-2.8633,-2.8633,-2.8633,-2.8633,-2.8633,-2.8633,-2.8633,-2.8303,-2.7891,-2.7891,-2.7557,-2.7058,-2.6648,-2.673,-2.7069,0.0,0.0,0.0,0.0,0.0,0.0,0.0,0.0,0.0,0.0,0.0,0.0,0.0,0.0,0.0,0.0,0.0,0.0,0.0,0.0,-1.0115,-0.9929,-0.9754,-0.9145,-0.8024,-0.712,-0.6126,-0.5033,-0.4033,-0.3531,-0.343,-0.3932,-0.3732,-0.323,-0.4133,-0.4033,-0.323,-0.4234,-0.4033,-0.323,-0.3732,-0.3632,-0.323,0.0,-0.323,-0.323,-0.323,-0.323,-0.323,-0.3331,-0.3331,-0.3331,-0.3331,-0.3632,-0.4133,-0.4133,-0.4533,-0.4935,-0.4935,-0.4935,-0.5334,-0.6431,-0.7325,-0.8322,-0.962,-1.09,-1.2068,-1.2931,-1.4555,-1.5988,-1.6648,-1.7878,-1.9096,-2.0167,-2.097,-2.1952,-2.2921,-2.4059,-2.4775,-2.4861,-2.5115,-2.5295,-2.5559,-2.538,-2.5464,-2.5895,-2.5549,-2.5622,-2.6362,-2.6362,-2.6846,-2.7983,-2.853,-2.8924,-2.9003,-2.8028,-2.7545,-2.7557,-2.7232,-2.7069,-2.7069,-2.7069,-2.7069,-2.7069,-2.7069,-2.7069,-2.7069,-2.7069,-2.7069,-2.6905,-2.6905,-2.6823,-2.6659,-2.5913,-2.608,-2.6659,0.0,0.0,0.0,0.0,0.0,0.0,0.0,0.0,0.0,0.0,-1.0692,-1.0692,0.0,0.0,0.0,0.0,0.0,0.0,0.0,0.0,0.0,-1.0119,-0.9937,-0.9264,-0.8024,-0.7822,-0.7223,-0.6124,-0.5927,-0.5429,-0.4533,-0.4634,-0.4133,-0.323,-0.3432,-0.3331,-0.323,-0.3432,-0.3331,-0.323,-0.3331,-0.3331,-0.323,-0.323,0.0,0.0,-0.323,-0.323,-0.323,-0.3732,-0.3833,-0.3833,-0.3833,-0.4234,-0.4634,-0.4634,-0.5035,-0.5436,-0.5436,-0.5737,-0.6137,-0.6434,-0.7033,-0.8028,-0.941,-1.0395,-1.1375,-1.2559,-1.4376,-1.5798,-1.5988,-1.7505,-1.9096,-2.0167,-2.0602,-2.1311,-2.2911,-2.3617,-2.4241,-2.4861,-2.5115,-2.5295,-2.5559,-2.5559,-2.5644,-2.5895,-2.5812,-2.5812,-2.5979,-2.5812,-2.6207,-2.7336,-2.7499,-2.7891,-2.8505,-2.8039,-2.7718,-2.7718,-2.7313,-2.7069,-2.7069,-2.7069,-2.7069,-2.7069,-2.7069,-2.7069,-2.7069,-2.7069,-2.6648,-2.6069,-2.6069,-2.5589,-2.4946,-2.4786,-2.4775,-2.4946,0.0,0.0,0.0,0.0,0.0,0.0,0.0,-1.0692,-1.0692,-1.0692,-1.0692,-1.0692,-1.0692,-1.0692,-1.0692,0.0,0.0,0.0,0.0,0.0,0.0,-1.0306,-1.0034,-0.9641,-0.9048,-0.8361,-0.7723,-0.7223,0.0,-0.6124,-0.5629,-0.5629,-0.5031,-0.4033,-0.4334,-0.4033,-0.323,-0.3531,-0.3432,-0.323,-0.323,-0.323,-0.323,-0.323,0.0,0.0,-0.323,-0.3331,-0.3632,-0.3932,-0.4332,-0.4734,-0.4535,-0.4734,-0.5236,-0.5236,-0.5634,-0.6037,-0.6037,-0.6234,-0.6437,-0.6437,-0.7033,-0.7925,-0.9312,-1.0489,-1.1755,-1.342,-1.5045,-1.6379,-1.6749,-1.8149,-1.9455,-2.0158,-2.1051,-2.2022,-2.3086,-2.4145,-2.4861,-2.5211,-2.5464,-2.5633,-2.5728,-2.5738,-2.5822,-2.5895,-2.5895,-2.5895,-2.5895,-2.5812,-2.6218,-2.7185,-2.6787,-2.6846,-2.7533,-2.6999,-2.6517,-2.6246,-2.6091,-2.5841,-2.5768,-2.5768,-2.5768,-2.5768,-2.5768,-2.5768,-2.5768,-2.5768,-2.5516,-2.5094,-2.5094,-2.4861,-2.454,-2.454,-2.454,-2.454,0.0,0.0,0.0,0.0,0.0,0.0,0.0,-1.0692,-1.0692,-1.0692,-1.0692,-1.0692,-1.0692,-1.0692,-1.0692,0.0,0.0,0.0,0.0,0.0,0.0,0.0,0.0,0.0,-0.9888,0.0,0.0,-0.8322,-0.7521,0.0,0.0,0.0,0.0,0.0,-0.5632,-0.5031,-0.393,-0.4332,-0.423,0.0,0.0,-0.393,-0.393,0.0,0.0,0.0,0.0,-0.3932,-0.4334,-0.4234,-0.4834,-0.5536,-0.5236,-0.5434,-0.5737,-0.5737,-0.6034,-0.6437,-0.6437,-0.6437,-0.6437,-0.6437,-0.6833,-0.7726,-0.9402,-1.0578,-1.1945,-1.4178,-1.571,-1.6951,-1.7498,-1.8804,-1.9911,-2.0529,-2.1676,-2.2824,-2.3444,-2.468,-2.5475,-2.557,-2.5812,-2.5895,-2.5895,-2.5895,-2.5895,-2.5895,-2.5895,-2.5895,-2.5895,-2.5895,-2.6218,-2.6857,-2.6218,-2.6135,-2.6588,-2.5874,-2.5295,-2.4946,-2.4861,-2.47,-2.454,-2.454,-2.454,-2.454,-2.454,-2.454,-2.454,-2.454,-2.454,-2.454,-2.454,-2.454,-2.454,-2.454,-2.454,-2.454,0.0,0.0,0.0,0.0,0.0,0.0,0.0,-1.0692,-1.0692,-1.0692,-1.0692,-1.0692,-1.0692,-1.0692,-1.0692,0.0,0.0,0.0,0.0,0.0,0.0,0.0,0.0,0.0,0.0,0.0,0.0,-0.9426,-0.962,0.0,0.0,0.0,0.0,0.0,0.0,-0.6224,-0.6124,-0.6124,0.0,0.0,0.0,0.0,0.0,0.0,0.0,0.0,0.0,-0.5035,-0.5336,-0.4935,-0.5135,-0.5634,-0.6137,-0.6334,-0.6337,-0.6337,-0.6334,-0.6437,-0.6437,-0.6437,-0.6437,-0.6437,-0.6437,-0.7226,-0.978,-1.0467,-1.1249,-1.3806,-1.5893,-1.7296,-1.7296,-1.8888,-2.0555,-2.1427,-2.1863,-2.2561,-2.3887,-2.4594,-2.5126,-2.5559,-2.5812,-2.5895,-2.5895,-2.5895,-2.5895,-2.5895,-2.5895,-2.5895,-2.5895,-2.5895,-2.5895,-2.5979,-2.5895,-2.5895,-2.5979,-2.5464,-2.52,-2.52,-2.47,-2.454,-2.454,-2.454,-2.454,-2.454,-2.454,-2.454,-2.454,-2.454,-2.454,-2.454,-2.454,-2.454,-2.454,-2.454,-2.454,-2.454,0.0,0.0,0.0,0.0,0.0,0.0,-1.0692,-1.0692,-1.0692,-1.0692,-1.0692,-1.0692,-1.0692,-1.0692,-1.0692,-1.0692,0.0,0.0,0.0,0.0,0.0,0.0,0.0,0.0,0.0,0.0,-1.0684,-1.0292,-1.0393,0.0,0.0,0.0,0.0,0.0,0.0,-0.7021,-0.6423,-0.6423,0.0,0.0,0.0,0.0,0.0,0.0,0.0,0.0,0.0,0.0,-0.7027,-0.6828,-0.7126,-0.7528,-0.773,-0.7829,-0.763,-0.6634,-0.6437,-0.6437,-0.6437,-0.6539,-0.6639,-0.6639,-0.7232,-0.8312,-1.0181,-1.1063,-1.2231,-1.4472,-1.6177,-1.7483,-1.7863,-1.9438,-2.0727,-2.0817,-2.2129,-2.3183,-2.3541,-2.468,-2.5559,-2.5728,-2.5812,-2.5895,-2.5895,-2.5895,-2.5895,-2.5895,-2.5895,-2.5895,-2.5895,-2.5895,-2.5895,-2.5895,-2.5895,-2.5812,-2.5728,-2.5559,-2.5295,-2.5031,-2.4871,-2.4615,-2.454,-2.454,-2.454,-2.454,-2.454,-2.454,-2.454,-2.454,-2.454,-2.454,-2.454,-2.454,-2.454,-2.454,-2.454,-2.454,0.0,0.0,0.0,0.0,0.0,-1.0692,-1.0692,-1.0692,-1.0692,-1.0692,-1.0692,-1.0692,-1.0692,-1.0802,-1.0802,-1.0802,-1.1021,0.0,0.0,0.0,0.0,0.0,0.0,0.0,0.0,0.0,-1.1191,-1.0795,-1.0897,-1.0725,0.0,0.0,-0.975,-0.8792,0.0,0.0,0.0,0.0,0.0,0.0,0.0,0.0,0.0,0.0,0.0,0.0,0.0,0.0,0.0,0.0,0.0,-0.8825,-0.8825,-0.892,-0.8821,-0.7531,-0.7132,-0.7132,-0.7329,-0.7531,-0.7633,-0.7826,-0.8612,-0.9592,-1.097,-1.1945,-1.3204,-1.5229,-1.6828,-1.8041,-1.8703,-2.0167,-2.1177,-2.1096,-2.2413,-2.3541,-2.3627,-2.4765,-2.5644,-2.5895,-2.5895,-2.5895,-2.5895,-2.5895,-2.5895,-2.5895,-2.5895,-2.5895,-2.5895,-2.5895,-2.5895,-2.5895,-2.5895,-2.5812,-2.5559,-2.5559,-2.5295,-2.4861,-2.4775,-2.47,-2.454,-2.454,-2.454,-2.454,-2.454,-2.4358,-2.409,-2.4368,-2.4358,-2.409,-2.4358,-2.454,-2.454,-2.454,-2.454,-2.454,0.0,0.0,0.0,0.0,0.0,0.0,-1.0692,-1.0692,-1.0692,-1.0692,-1.0692,-1.0692,-1.0692,-1.0911,-1.1126,-1.1126,-1.1126,0.0,0.0,0.0,0.0,0.0,0.0,0.0,0.0,0.0,-1.1714,-1.0988,-1.1295,-1.1295,-1.0984,-1.0984,-1.0887,-1.0707,0.0,0.0,0.0,0.0,0.0,0.0,0.0,0.0,0.0,0.0,0.0,0.0,0.0,0.0,0.0,0.0,0.0,0.0,0.0,-0.9118,-0.9509,-0.892,-0.8825,-0.8924,-0.941,-0.9608,-0.9702,-1.0275,-1.0369,-1.076,-1.1945,-1.2915,-1.3962,-1.5778,-1.7747,-1.9338,-1.9795,-2.0907,-2.1909,-2.2627,-2.2794,-2.3319,-2.469,-2.4861,-2.5126,-2.5812,-2.5895,-2.5895,-2.5895,-2.5895,-2.5895,-2.5895,-2.5895,-2.5895,-2.5895,-2.5895,-2.5895,-2.5895,-2.5895,-2.5812,-2.5559,-2.538,-2.5115,-2.4861,-2.4615,-2.454,-2.454,-2.454,-2.454,-2.454,-2.454,-2.3993,-2.3193,-2.409,-2.3907,-2.3193,-2.4176,-2.454,-2.454,-2.454,-2.454,-2.454,0.0,0.0,0.0,0.0,0.0,0.0,0.0,-1.0692,-1.0802,-1.0911,-1.1017,-1.1017,-1.124,-1.135,-1.1459,-1.1459,-1.1568,0.0,0.0,0.0,0.0,0.0,0.0,0.0,0.0,0.0,-1.2135,-1.1723,-1.1829,-1.1649,-1.13,-1.13,-1.1165,-1.09,-1.09,-1.0865,0.0,0.0,0.0,0.0,0.0,0.0,-1.0609,0.0,0.0,0.0,0.0,0.0,0.0,0.0,0.0,0.0,0.0,0.0,0.0,-1.1482,-1.0779,-0.9887,-1.0083,-1.0284,-1.0485,-1.0676,-1.1453,-1.2517,-1.3651,-1.4536,-1.5704,-1.784,-1.878,-1.9521,-2.0439,-2.1275,-2.1909,-2.2715,-2.3212,-2.3637,-2.4069,-2.4946,-2.5464,-2.5211,-2.5644,-2.5895,-2.5895,-2.5895,-2.5895,-2.5895,-2.5895,-2.5895,-2.5895,-2.5895,-2.5895,-2.5895,-2.5895,-2.5895,-2.5812,-2.538,-2.52,-2.5115,-2.47,-2.454,-2.454,-2.454,-2.454,-2.454,-2.454,-2.4003,-2.3096,-2.3454,-2.3367,-2.3096,-2.3454,-2.3907,-2.454,-2.454,-2.454,-2.454,0.0,0.0,0.0,0.0,0.0,0.0,0.0,-1.0802,-1.0911,-1.1131,-1.124,-1.135,-1.1568,-1.1678,-1.1787,-1.1787,-1.2005,0.0,0.0,0.0,0.0,0.0,0.0,0.0,-1.2441,-1.2441,-1.2375,-1.2252,-1.2252,-1.2079,-1.1737,-1.1737,-1.1695,-1.1417,-1.1417,-1.1372,0.0,0.0,0.0,0.0,0.0,0.0,-1.112,0.0,0.0,0.0,0.0,0.0,0.0,0.0,0.0,0.0,0.0,0.0,0.0,0.0,-1.3113,-1.2603,-1.1745,-1.1945,-1.2328,-1.2522,-1.3499,-1.4644,-1.5468,-1.625,-1.7311,-1.9055,-1.9704,-2.0158,-2.1087,-2.1722,-2.2353,-2.3047,-2.3724,-2.4327,-2.4584,-2.538,-2.5728,-2.5295,-2.5644,-2.5895,-2.5895,-2.5895,-2.5895,-2.5895,-2.5895,-2.5895,-2.5895,-2.5822,-2.5822,-2.5822,-2.5822,-2.5812,-2.5633,-2.538,-2.5115,-2.4946,-2.4625,-2.454,-2.4454,-2.409,-2.4186,-2.4454,-2.409,-2.3464,0.0,-2.2921,-2.2921,-2.257,-2.257,-2.3105,-2.3993,-2.3993,-2.3993,-2.4003,0.0,0.0,0.0,0.0,0.0,0.0,0.0,-1.0911,-1.1131,-1.1126,-1.1459,-1.1678,-1.1678,-1.1896,-1.2005,-1.2005,0.0,0.0,0.0,0.0,0.0,0.0,0.0,0.0,-1.2545,-1.2654,-1.2654,-1.2545,-1.2545,-1.2441,-1.2441,-1.2441,-1.2337,-1.2162,-1.2162,-1.2049,0.0,0.0,0.0,0.0,0.0,0.0,0.0,0.0,0.0,0.0,0.0,0.0,0.0,0.0,0.0,0.0,0.0,0.0,0.0,0.0,0.0,0.0,0.0,-1.4292,-1.4943,-1.5432,-1.6103,-1.6857,-1.739,-1.7956,0.0,-1.9803,-2.0538,-2.1177,-2.1642,-2.2264,-2.3057,-2.3714,-2.4413,-2.5126,-2.5728,-2.5812,-2.5812,-2.5895,-2.5895,-2.5895,-2.5895,-2.5895,-2.5895,-2.5895,-2.5895,-2.5895,-2.5895,-2.5738,-2.5559,-2.5559,-2.5728,-2.5633,-2.52,-2.52,-2.4946,-2.454,-2.454,-2.454,-2.4454,-2.3551,-2.3637,-2.4454,-2.3551,-2.257,-2.1784,-2.2658,-2.2482,-2.1695,-2.1695,-2.2306,-2.3096,-2.3183,-2.3183,-2.327,0.0,0.0,0.0,0.0,0.0,0.0,0.0,0.0,0.0,0.0,-1.1896,-1.2001,-1.2219,-1.2219,-1.2327,0.0,0.0,0.0,0.0,0.0,0.0,0.0,0.0,0.0,-1.3738,-1.4583,-1.4691,-1.3738,-1.3738,-1.3305,-1.2441,-1.2441,-1.2413,-1.237,-1.237,-1.2337,0.0,0.0,0.0,0.0,0.0,0.0,0.0,0.0,0.0,0.0,-1.1515,-1.1734,0.0,0.0,0.0,0.0,0.0,0.0,0.0,0.0,-1.6393,-1.6487,-1.6015,0.0,-1.6734,-1.6828,-1.739,-1.8218,0.0,-1.9247,-1.9621,-2.1006,-2.1087,-2.1177,-2.1642,-2.2264,-2.3057,-2.3714,-2.4413,-2.4946,-2.5115,-2.5126,-2.5295,-2.5812,-2.5895,-2.5895,-2.5895,-2.5895,-2.5895,-2.5895,-2.5895,-2.5895,-2.5895,-2.5738,-2.5559,-2.5559,-2.5464,-2.5285,-2.52,-2.5031,-2.4946,-2.4775,-2.4625,-2.454,-2.4454,-2.3551,-2.3637,-2.4454,-2.3551,-2.257,-2.1695,-2.1961,-2.1872,-2.1695,-2.1695,-2.2306,-2.3193,-2.3907,-2.3724,-2.327,0.0,0.0,0.0,0.0,0.0,0.0,0.0,0.0,0.0,0.0,0.0,0.0,0.0,0.0,0.0,0.0,0.0,0.0,0.0,0.0,0.0,0.0,0.0,-1.3413,-1.3413,-1.4482,-1.4589,-1.3413,-1.3954,-1.363,-1.2441,-1.2441,-1.2441,-1.2441,-1.2441,-1.2441,0.0,0.0,0.0,0.0,-1.2148,0.0,0.0,0.0,0.0,0.0,-1.2439,-1.2793,0.0,-1.3046,-1.3796,-1.4835,0.0,0.0,0.0,0.0,-1.7512,-1.7971,-1.7971,-1.8141,-1.8218,-1.7855,-1.9023,-2.0387,-2.0773,-2.1051,-2.1409,-2.2403,-2.2492,-2.2403,-2.2589,-2.3299,-2.3917,-2.4241,-2.4946,-2.538,-2.538,-2.538,-2.5464,-2.5822,-2.5895,-2.5895,-2.5895,-2.5895,-2.5895,-2.5895,-2.5895,-2.5822,-2.5738,-2.5559,-2.538,-2.5295,-2.5041,-2.4956,-2.5031,-2.4946,-2.4871,-2.47,-2.454,-2.454,-2.4454,-2.3551,-2.3637,-2.4454,-2.3551,-2.257,-2.1695,-2.1695,-2.1695,-2.1695,-2.1248,-2.1596,-2.257,-2.3551,-2.328,-2.2658,0.0,0.0,0.0,0.0,0.0,0.0,0.0,0.0,0.0,0.0,0.0,0.0,0.0,0.0,0.0,0.0,0.0,0.0,0.0,0.0,0.0,0.0,-1.2758,-1.2975,-1.2975,-1.4159,-1.4272,-1.3192,-1.384,-1.363,-1.2654,-1.2441,-1.2441,-1.2441,-1.2441,-1.2441,0.0,-1.2441,-1.2441,-1.2441,-1.2441,0.0,0.0,0.0,0.0,0.0,0.0,0.0,0.0,-1.4592,-1.5274,-1.6082,-1.6082,0.0,0.0,0.0,0.0,0.0,-1.9994,-2.0141,-2.0034,-1.9147,-2.0764,-2.2463,-2.2296,-2.2736,-2.3357,-2.3714,-2.38,-2.38,-2.38,-2.4413,-2.4861,-2.4861,-2.5464,-2.5895,-2.5895,-2.5895,-2.5895,-2.5895,-2.5895,-2.5895,-2.5895,-2.5895,-2.5895,-2.5895,-2.5895,-2.5812,-2.5644,-2.538,-2.5115,-2.4946,-2.4625,-2.4625,-2.4871,-2.4871,-2.47,-2.454,-2.454,-2.4454,-2.4272,-2.3454,-2.3541,-2.4272,-2.3454,-2.257,-2.1695,-2.1695,-2.1695,-2.1606,-2.0791,-2.097,-2.1872,-2.2921,-2.2668,-2.1961,0.0,0.0,0.0,0.0,0.0,0.0,0.0,0.0,0.0,0.0,0.0,0.0,0.0,0.0,0.0,0.0,0.0,0.0,0.0,0.0,0.0,-1.2441,-1.4256,-1.5328,-1.5328,-1.6511,-1.6942,-1.6829,-1.5018,-1.4062,-1.3948,-1.2871,-1.2441,-1.2441,-1.2441,-1.2441,-1.2441,-1.2441,-1.2441,-1.2441,-1.2441,0.0,0.0,0.0,0.0,0.0,0.0,0.0,0.0,-1.5836,-1.6614,-1.7404,-1.7404,0.0,0.0,0.0,0.0,0.0,-2.1836,-2.2717,-2.3066,-2.1756,-2.2138,-2.2862,-2.3367,-2.3617,-2.3704,-2.38,-2.38,-2.38,-2.38,-2.4413,-2.4861,-2.4861,-2.5464,-2.5895,-2.5895,-2.5895,-2.5895,-2.5895,-2.5895,-2.5895,-2.5895,-2.5895,-2.5895,-2.5895,-2.5895,-2.5812,-2.5644,-2.538,-2.5115,-2.4946,-2.4625,-2.454,-2.454,-2.454,-2.454,-2.454,-2.454,-2.409,-2.328,-2.3183,-2.3183,-2.328,-2.3183,-2.257,-2.1695,-2.1695,-2.1695,-2.1695,-2.1516,-2.1606,-2.1872,-2.3647,-2.3202,-2.1961,0.0,0.0,0.0,0.0,0.0,0.0,0.0,0.0,0.0,0.0,0.0,0.0,0.0,0.0,0.0,0.0,0.0,0.0,0.0,0.0,-1.2654,-1.3305,-1.4374,-1.4691,-1.4046,-1.5755,-1.608,-1.4793,-1.4374,-1.3846,-1.3197,-1.2654,-1.2762,-1.3413,-1.3413,-1.3413,-1.3413,-1.4046,-1.4153,-1.3835,0.0,0.0,0.0,0.0,0.0,0.0,0.0,0.0,0.0,0.0,-1.7919,-1.835,-1.8619,0.0,0.0,0.0,0.0,0.0,-2.2639,-2.3347,-2.3877,-2.3617,-2.3983,-2.4433,-2.4241,-2.4498,-2.4765,-2.4935,-2.485,-2.4765,-2.4935,-2.52,-2.5464,-2.5464,-2.5728,-2.5895,-2.5895,-2.5895,-2.5895,-2.5895,-2.5895,-2.5895,-2.5895,-2.5895,-2.5895,-2.5895,-2.5895,-2.5728,-2.538,-2.5285,-2.5031,-2.47,-2.454,-2.454,-2.454,-2.454,-2.454,-2.454,-2.454,-2.4272,-2.382,-2.382,-2.382,-2.382,-2.328,-2.257,-2.1695,-2.1695,-2.1695,-2.1784,-2.2217,-2.2482,-2.257,-2.3464,-2.3551,-2.3387,0.0,0.0,0.0,0.0,0.0,0.0,0.0,0.0,0.0,0.0,0.0,0.0,0.0,0.0,0.0,0.0,0.0,0.0,0.0,-1.2441,-1.2762,-1.3738,-1.4062,-1.4056,-1.3619,-1.5114,-1.5114,-1.3619,-1.4266,-1.3948,-1.2871,-1.3083,-1.3624,-1.4169,-1.4487,-1.4589,-1.4798,-1.5642,-1.5749,-1.5435,0.0,0.0,0.0,0.0,0.0,0.0,0.0,0.0,0.0,0.0,0.0,0.0,0.0,0.0,0.0,-2.1765,-2.2561,-2.327,-2.3617,-2.4059,-2.4413,-2.4946,-2.538,-2.5549,-2.5168,-2.5611,-2.6052,-2.6373,-2.629,-2.6218,-2.6218,-2.6218,-2.6218,-2.6218,-2.6373,-2.6456,-2.6456,-2.6456,-2.6456,-2.6456,-2.6456,-2.6456,-2.6456,-2.6456,-2.6302,-2.6135,-2.6052,-2.5801,-2.52,-2.5115,-2.4956,-2.454,-2.454,-2.454,-2.454,-2.454,-2.454,-2.454,-2.454,-2.4368,-2.4176,-2.4368,-2.4368,-2.4176,-2.3637,-2.2746,-2.1695,-2.1961,-2.1872,-2.1784,-2.2746,-2.3096,-2.3096,-2.3096,-2.3541,-2.4186,0.0,0.0,0.0,0.0,0.0,0.0,0.0,0.0,0.0,0.0,0.0,0.0,0.0,0.0,0.0,0.0,0.0,0.0,0.0,-1.2441,-1.2441,-1.255,-1.363,-1.5125,-1.7153,-1.6399,-1.6293,-1.7259,-1.6293,-1.5227,-1.4062,-1.5114,-1.512,-1.4272,-1.5334,-1.5962,-1.6162,-1.6268,-1.638,-1.6592,-1.6592,0.0,0.0,0.0,0.0,0.0,0.0,0.0,0.0,0.0,0.0,0.0,0.0,0.0,-2.3008,-2.3694,-2.4317,-2.4861,-2.5549,-2.5728,-2.5728,-2.5559,-2.5295,-2.5369,-2.6682,-2.7021,-2.7336,-2.8028,-2.8039,-2.7742,-2.7185,-2.7103,-2.7103,-2.7103,-2.7718,-2.8187,-2.8187,-2.8187,-2.8187,-2.8187,-2.8187,-2.8187,-2.8187,-2.8039,-2.7649,-2.6823,-2.6599,-2.603,-2.4946,-2.4946,-2.4786,-2.454,-2.454,-2.454,-2.454,-2.454,-2.454,-2.454,-2.454,-2.4003,-2.327,-2.409,-2.4003,-2.328,-2.409,-2.3387,-2.1784,-2.2658,-2.2482,-2.1784,-2.2746,-2.3096,-2.3096,-2.3096,-2.3096,-2.3367,0.0,0.0,0.0,0.0,0.0,0.0,0.0,0.0,0.0,0.0,0.0,0.0,0.0,0.0,0.0,0.0,0.0,0.0,0.0,-1.2441,-1.2762,-1.3521,-1.3954,-1.4911,-1.6505,-1.5441,-1.5441,-1.6505,-1.5441,-1.5013,-1.5227,-1.5018,-1.5013,-1.5334,-1.6399,-1.7041,-1.714,-1.7877,-1.8087,-1.7975,-1.7975,-1.8394,0.0,0.0,0.0,0.0,0.0,0.0,0.0,0.0,-2.014,-2.052,-2.0872,-2.211,-2.3444,-2.4317,-2.4946,-2.5391,-2.5812,-2.5895,-2.5895,-2.5812,-2.6041,-2.6279,-2.6207,-2.6599,-2.7069,-2.7568,-2.781,-2.7891,-2.7742,-2.7649,-2.7568,-2.7742,-2.8051,-2.8211,-2.8211,-2.8211,-2.8211,-2.8211,-2.8119,-2.7799,-2.7232,-2.7637,-2.7313,-2.5924,-2.6268,-2.603,-2.4946,-2.4861,-2.4786,-2.454,-2.454,-2.454,-2.454,-2.454,-2.454,-2.454,-2.454,-2.4272,-2.4003,-2.4358,-2.4272,-2.3993,-2.3734,-2.3193,-2.257,-2.2921,-2.2921,-2.2658,-2.3637,-2.3993,-2.3993,-2.3993,-2.3993,-2.4003,0.0,0.0,0.0,0.0,0.0,0.0,0.0,0.0,0.0,0.0,0.0,0.0,0.0,0.0,0.0,0.0,0.0,0.0,-1.2441,-1.2441,-1.2762,-1.363,-1.363,-1.4159,-1.5334,-1.4266,-1.4374,-1.5861,-1.5446,-1.5446,-1.5861,-1.5867,-1.608,-1.6505,-1.7681,-1.8213,-1.8415,-1.9264,-1.9569,-1.9457,-1.9457,-1.9665,0.0,0.0,0.0,0.0,0.0,0.0,0.0,0.0,-2.05,-2.1042,-2.1854,-2.3086,-2.4317,-2.5031,-2.5391,-2.5644,-2.5738,-2.5812,-2.5812,-2.5812,-2.6539,-2.7021,-2.629,-2.6917,-2.7706,-2.8211,-2.8291,-2.8291,-2.8371,-2.8371,-2.8371,-2.8371,-2.8609,-2.8858,-2.8858,-2.8858,-2.8858,-2.8937,-2.8767,-2.845,-2.7891,-2.8039,-2.7557,-2.6008,-2.6185,-2.5852,-2.4871,-2.4775,-2.47,-2.454,-2.454,-2.454,-2.454,-2.454,-2.454,-2.454,-2.454,-2.454,-2.454,-2.454,-2.454,-2.4454,-2.382,-2.3367,-2.3096,-2.3454,-2.3551,-2.3637,-2.4272,-2.4358,-2.409,-2.4358,-2.4272,-2.409,0.0,0.0,0.0,0.0,0.0,0.0,0.0,0.0,0.0,0.0,0.0,0.0,0.0,0.0,0.0,0.0,0.0,0.0,-1.2441,-1.2441,-1.2441,-1.2441,-1.2441,-1.298,-1.4169,-1.298,-1.3511,-1.5861,-1.7041,-1.7041,-1.5968,-1.8206,-1.8639,-1.7687,-1.8743,-1.9576,-2.0078,-2.0078,-2.0395,-2.0917,-2.0917,-2.0925,-2.0925,0.0,0.0,0.0,0.0,0.0,0.0,0.0,-2.1545,-2.2532,-2.3531,-2.4754,-2.5895,-2.5895,-2.5728,-2.5559,-2.5559,-2.5644,-2.5644,-2.5644,-2.6456,-2.7185,-2.7185,-2.8383,-2.9664,-3.0533,-2.9973,-2.9328,-2.9172,-2.925,-2.9341,-2.916,-2.9806,-3.0368,-3.0368,-3.0368,-3.0444,-3.0698,-3.0698,-3.0698,-3.0698,-2.9729,-2.8676,-2.7557,-2.6483,-2.5421,-2.454,-2.454,-2.454,-2.454,-2.454,-2.454,-2.454,-2.454,-2.454,-2.454,-2.454,-2.454,-2.454,-2.454,-2.454,-2.454,-2.454,-2.3993,-2.3193,-2.409,-2.454,-2.454,-2.454,-2.3907,-2.3193,-2.4176,-2.3907,-2.328,0.0,0.0,0.0,0.0,0.0,0.0,0.0,0.0,0.0,0.0,0.0,0.0,0.0,0.0,0.0,0.0,0.0,0.0,-1.2441,-1.2441,-1.2441,-1.2441,-1.3197,-1.3413,-1.298,-1.3413,-1.4374,-1.5861,-1.6287,-1.6611,-1.7147,-1.7793,-1.7898,-1.7687,-1.8743,-1.9376,-1.9583,-1.9583,-1.9887,-2.0292,-2.0292,-2.0609,-2.0893,0.0,0.0,0.0,0.0,0.0,0.0,0.0,0.0,0.0,-2.3617,-2.4498,-2.5454,-2.5812,-2.5822,-2.5812,-2.5812,-2.6146,-2.6561,-2.6704,-2.773,-2.8779,-2.8779,-2.9172,-2.9793,-3.0368,-3.0292,-3.005,-2.9819,-2.9767,-2.9689,-2.9831,-2.9985,-3.0228,-3.0228,-3.0228,-3.0228,-3.0241,-3.0164,-2.9599,-2.8279,-2.9028,-2.87,-2.6483,-2.6565,-2.6565,-2.6329,-2.5189,-2.4775,-2.5421,-2.4861,-2.454,-2.454,-2.454,-2.454,-2.454,-2.454,-2.454,-2.454,-2.454,-2.454,-2.454,-2.454,-2.4358,-2.409,-2.4368,-2.454,-2.454,-2.454,-2.4358,-2.409,-2.4368,-2.4358,-2.409,0.0,0.0,0.0,0.0,0.0,0.0,0.0,0.0,0.0,0.0,-1.2441,-1.2441,0.0,0.0,0.0,0.0,0.0,0.0,0.0,-1.2441,-1.2441,-1.2441,-1.3088,-1.3088,-1.2441,-1.3088,-1.4051,-1.5227,-1.608,-1.6723,-1.6935,-1.7898,-1.8325,-1.8325,-1.8959,-1.9376,-1.948,-1.948,-1.9783,-2.0285,-2.0146,-2.0303,-2.067,0.0,0.0,0.0,0.0,0.0,0.0,0.0,0.0,0.0,-2.4059,-2.485,-2.5464,-2.5549,-2.5728,-2.5812,-2.5968,-2.6456,-2.694,-2.7244,-2.8371,-2.9496,-2.9729,-2.9806,-2.996,-3.0216,-3.0292,-3.0228,-3.0152,-3.0011,-2.9934,-2.9934,-3.0011,-3.0011,-3.0011,-3.0011,-3.0011,-3.0075,-3.0011,-2.9521,-2.8371,-2.8961,-2.8712,-2.6976,-2.6987,-2.6976,-2.6565,-2.5589,-2.5105,-2.5263,-2.4775,-2.454,-2.454,-2.454,-2.454,-2.454,-2.454,-2.454,-2.454,-2.454,-2.454,-2.454,-2.454,-2.454,-2.454,-2.454,-2.454,-2.454,-2.454,-2.454,-2.454,-2.454,-2.454,-2.454,0.0,0.0,0.0,0.0,0.0,0.0,0.0,0.0,0.0,0.0,-1.2441,-1.2441,0.0,0.0,0.0,0.0,0.0,0.0,0.0,-1.2441,-1.2441,-1.2441,-1.2441,-1.2441,-1.2441,-1.2441,-1.298,-1.4169,-1.6305,-1.6829,-1.6074,-1.8206,-1.9175,-1.9279,-1.9279,-1.948,-1.968,-1.968,-1.9975,-2.0444,-2.0225,-2.0277,-2.0404,-2.0143,0.0,0.0,0.0,0.0,0.0,0.0,0.0,0.0,-2.468,-2.538,-2.5728,-2.538,-2.5464,-2.5812,-2.6196,-2.6588,-2.7058,-2.7545,-2.853,-2.9651,-3.0203,-3.0228,-3.0075,-3.0075,-3.0075,-3.0075,-3.0075,-3.0075,-3.0011,-2.9869,-2.9792,-2.9792,-2.9792,-2.9792,-2.9869,-3.0088,-3.0075,-3.0075,-2.9998,-2.9275,-2.8791,-2.8542,-2.7637,-2.6812,-2.6069,-2.5819,-2.5337,-2.4615,-2.454,-2.454,-2.454,-2.454,-2.454,-2.454,-2.454,-2.454,-2.454,-2.454,-2.454,-2.454,-2.454,-2.454,-2.454,-2.454,-2.454,-2.454,-2.454,-2.454,-2.454,-2.454,-2.454,-2.454,0.0,0.0,0.0,0.0,0.0,0.0,0.0,0.0,0.0,0.0,0.0,0.0,0.0,0.0,0.0,0.0,0.0,0.0,0.0,-1.2441,-1.2441,-1.2441,-1.2441,-1.2441,-1.2441,-1.2441,-1.298,-1.4169,-1.4702,-1.5767,-1.7259,-1.7687,-1.8429,-1.9279,-1.9279,-1.948,-1.968,-1.968,-1.9838,-2.021,-2.0791,-2.108,-2.1088,-2.071,-2.1036,0.0,0.0,0.0,0.0,0.0,0.0,0.0,-2.4946,-2.52,-2.5369,-2.5633,-2.6146,-2.6644,-2.6727,-2.751,-2.8462,-2.8688,-2.9341,-2.9998,-3.0152,-3.0011,-2.9934,-3.0075,-3.0075,-3.0088,-2.9869,-2.9869,-2.9869,-2.9792,-2.9792,-2.9792,-2.9792,-2.9792,-2.9792,-2.9869,-2.9869,-2.9611,-2.8949,-2.9287,-2.9287,-2.8542,-2.7637,-2.7313,-2.7879,-2.5924,-2.502,-2.5505,-2.4861,-2.454,-2.454,-2.454,-2.454,-2.454,-2.454,-2.454,-2.454,-2.454,-2.454,-2.454,-2.454,-2.454,-2.454,-2.454,-2.454,-2.454,-2.454,-2.454,-2.454,-2.454,-2.454,-2.454,0.0,0.0,0.0,0.0,0.0,0.0,0.0,0.0,0.0,0.0,0.0,0.0,0.0,0.0,0.0,0.0,0.0,0.0,0.0,0.0,-1.2441,-1.2441,-1.2441,-1.2441,-1.2441,-1.298,-1.3521,-1.4169,-1.4696,-1.5867,-1.7582,-1.8108,-1.8743,-1.9279,-1.9279,-1.948,-1.9665,-1.9508,-1.9938,-2.0635,-2.0873,-2.1285,-2.1728,-2.134,-2.1554,-2.1988,-2.2302,0.0,0.0,0.0,0.0,0.0,0.0,0.0,-2.538,-2.5221,-2.5728,-2.6396,-2.6857,-2.7661,-2.8542,-2.9341,-2.9754,-2.9934,-2.9934,-2.9869,-2.9869,-2.9934,-2.9934,-2.9934,-2.9792,-2.9792,-2.9792,-2.9792,-2.9792,-2.9792,-2.9792,-2.9792,-2.9792,-2.9792,-2.9792,-2.9624,-2.9209,-2.9534,-2.9624,-2.9131,-2.8633,-2.8223,-2.7879,-2.6494,-2.56,-2.5179,-2.47,-2.454,-2.454,-2.454,-2.454,-2.454,-2.454,-2.454,-2.454,-2.454,-2.454,-2.454,-2.454,-2.454,-2.454,-2.454,-2.454,-2.454,-2.454,-2.454,-2.454,-2.454,-2.454,-2.454,0.0,0.0,0.0,0.0,0.0,0.0,0.0,0.0,0.0,0.0,0.0,0.0,0.0,0.0,0.0,0.0,0.0,0.0,0.0,0.0,0.0,-1.2441,-1.2441,-1.2441,-1.2441,-1.363,-1.4277,-1.4487,-1.5654,-1.6829,-1.7898,-1.8639,-1.9063,-1.9279,-1.9279,-1.948,-1.9657,-1.9321,-2.003,-2.1285,-2.0805,-2.1327,-2.2335,-2.2091,-2.205,-2.2227,-2.2921,-2.3183,-2.3454,-2.4272,0.0,0.0,0.0,0.0,-2.5391,-2.4796,-2.5126,-2.5884,-2.6753,-2.7395,-2.8291,-2.9677,-2.9934,-2.9792,-2.9792,-2.9792,-2.9792,-2.9792,-2.9792,-2.9792,-2.9792,-2.9792,-2.9792,-2.9792,-2.9792,-2.9792,-2.9792,-2.9792,-2.9792,-2.9792,-2.9792,-2.9792,-2.9792,-2.9792,-2.9792,-2.9792,-2.9624,-2.8882,-2.7151,-2.6987,-2.6174,-2.454,-2.454,-2.454,-2.454,-2.454,-2.454,-2.454,-2.454,-2.454,-2.454,-2.454,-2.454,-2.454,-2.454,-2.454,-2.454,-2.454,-2.454,-2.454,-2.454,-2.454,-2.454,-2.454,-2.454,-2.454,0.0,0.0,0.0,0.0,0.0,0.0,0.0,0.0,0.0,0.0,-1.3408,-1.3403,0.0,0.0,0.0,0.0,0.0,0.0,-1.2436,0.0,0.0,-1.2441,-1.2441,-1.2441,-1.2441,-1.363,-1.4696,-1.5648,-1.6829,-1.8003,-1.9063,-1.822,-1.8318,-1.9279,-1.9279,-1.948,-1.9657,-1.9321,-1.9904,-2.1038,-2.1436,-2.2152,-2.2998,-2.294,-2.3464,-2.4003,-2.3367,-2.3637,-2.4358,-2.4454,-2.454,0.0,0.0,0.0,-2.5041,-2.5115,-2.5611,-2.6113,-2.6268,-2.7325,-2.8621,-2.9624,-2.9792,-2.9792,-2.9792,-2.9792,-2.9792,-2.9792,-2.9792,-2.9792,-2.9792,-2.9792,-2.9792,-2.9792,-2.9792,-2.9792,-2.9792,-2.9792,-2.9792,-2.9792,-2.9792,-2.9792,-2.9792,-2.9792,-2.9792,-2.9792,-2.9118,-2.8211,-2.7151,-2.64,-2.5505,-2.454,-2.454,-2.454,-2.454,-2.454,-2.454,-2.454,-2.454,-2.454,-2.454,-2.454,-2.454,-2.454,-2.454,-2.454,-2.454,-2.454,-2.454,-2.454,-2.454,-2.454,-2.454,-2.454,-2.454,-2.454,0.0,0.0,0.0,0.0,0.0,0.0,0.0,0.0,0.0,0.0,0.0,-1.384,0.0,0.0,0.0,-1.3197,-1.3197,-1.298,-1.2436,-1.2441,-1.2654,-1.3413,-1.3413,-1.3727,-1.4363,-1.5553,-1.6299,-1.6829,-1.8003,-1.8848,-1.9272,-1.8743,-1.8855,-1.9279,-1.9279,-1.9376,-1.9475,-1.9821,-2.0531,-2.148,-2.218,-2.2997,-2.3744,-2.382,-2.41,-2.4282,-2.4003,-2.4186,-2.454,-2.454,-2.454,-2.454,-2.4625,0.0,0.0,0.0,-2.6163,-2.6987,-2.7406,-2.8303,-2.9287,-2.9714,-2.9792,-2.9792,-2.9792,-2.9792,-2.9792,-2.9792,-2.9792,-2.9792,-2.9792,-2.9792,-2.9792,-2.9792,-2.9792,-2.9792,-2.9792,-2.9792,-2.9792,-2.9792,-2.9378,-2.904,-2.904,-2.8633,-2.8303,-2.8303,-2.7971,-2.7313,-2.64,-2.5986,-2.5421,-2.454,-2.454,-2.454,-2.454,-2.454,-2.454,-2.454,-2.454,-2.454,-2.454,-2.454,-2.454,-2.454,-2.454,-2.454,-2.454,-2.454,-2.4454,-2.4368,-2.4454,-2.4368,-2.411,-2.4282,-2.4196,-2.41,0.0,0.0,0.0,0.0,0.0,0.0,0.0,0.0,0.0,0.0,0.0,0.0,0.0,0.0,0.0,0.0,-1.2871,-1.2762,-1.2436,-1.2441,-1.298,-1.4164,-1.4169,-1.4696,-1.5861,-1.7041,-1.7582,-1.7582,-1.8743,-1.9279,-1.9279,-1.9279,-1.9279,-1.9272,-1.9191,-1.9316,-1.9451,-1.9981,-2.0857,-2.2044,-2.2555,-2.329,-2.411,-2.4282,-2.4196,-2.411,-2.4368,-2.4454,-2.4454,-2.4454,-2.454,-2.454,-2.454,-2.5115,0.0,0.0,0.0,-2.7302,-2.8211,-2.8961,-2.9534,-2.9714,-2.9792,-2.9792,-2.9792,-2.9792,-2.9714,-2.9546,-2.9624,-2.9714,-2.9534,-2.9624,-2.9792,-2.9792,-2.9792,-2.9792,-2.9792,-2.9792,-2.9714,-2.9468,-2.8882,-2.8383,-2.8131,-2.7476,-2.7069,-2.7069,-2.7069,-2.673,-2.583,-2.5819,-2.5421,-2.454,-2.454,-2.454,-2.454,-2.454,-2.454,-2.454,-2.454,-2.454,-2.454,-2.454,-2.454,-2.454,-2.454,-2.454,-2.454,-2.454,-2.4368,-2.4292,-2.4454,-2.4272,-2.3937,-2.412,-2.4024,-2.3841,0.0,0.0,0.0,0.0,0.0,0.0,0.0,0.0,0.0,0.0,0.0,0.0,-1.5541,-1.4804,-1.4062,-1.4062,-1.4062,-1.363,-1.2436,-1.2441,-1.298,-1.4164,-1.4169,0.0,-1.5861,-1.7041,-1.7582,-1.7582,-1.8743,-1.9279,-1.9279,-1.9279,-1.9279,-1.9264,-1.895,-1.9295,-2.0114,-1.9638,-2.0543,-2.2427,-2.2199,-2.2755,-2.3841,-2.3841,-2.3841,-2.3841,-2.411,-2.4206,-2.4206,-2.4454,-2.454,-2.454,-2.454,-2.454,-2.4625,0.0,0.0,0.0,-2.8039,-2.8542,-2.8791,-2.9624,-2.9792,-2.9792,-2.9792,-2.9792,-2.9546,-2.8712,-2.9209,-2.9546,-2.8712,-2.9209,-2.9792,-2.9792,-2.9792,-2.9792,-2.9792,-2.9792,-2.9456,-2.8633,-2.8542,-2.8131,-2.7232,-2.7151,-2.7069,-2.7069,-2.7069,-2.673,-2.583,-2.5819,-2.5421,-2.454,-2.454,-2.454,-2.454,-2.454,-2.454,-2.454,-2.454,-2.454,-2.454,-2.454,-2.454,-2.454,-2.454,-2.454,-2.454,-2.454,-2.4454,-2.4454,-2.454,-2.4378,-2.4206,-2.4206,-2.4024,-2.3841,0.0,0.0,0.0,0.0,0.0,0.0,0.0,0.0,0.0,0.0,0.0,0.0,0.0,-1.33,-1.3088,-1.3088,-1.3088,-1.2871,-1.2436,-1.2441,-1.298,-1.4164,-1.4169,-1.5125,-1.6935,-1.7364,-1.8003,-1.8639,-1.9063,-1.9279,-1.9279,-1.9279,-1.9465,-1.9852,-1.9729,-1.9744,-1.9995,-2.0925,-2.167,-2.2246,-2.2911,-2.3299,-2.358,-2.3754,-2.3754,-2.3677,-2.3851,-2.4024,-2.4206,-2.4282,-2.4368,-2.454,-2.454,-2.4861,-2.5421,-2.5997,-2.6412,-2.6812,-2.7395,-2.8051,-2.8542,-2.8882,-2.8961,-2.8961,-2.8961,-2.8462,-2.7971,-2.7649,-2.7891,-2.7971,-2.7637,-2.8803,-2.9624,-2.904,-2.8961,-2.8791,-2.8143,-2.8051,-2.7971,-2.7637,-2.7139,-2.6648,-2.6318,-2.5757,-2.5443,-2.5443,-2.5443,-2.5263,-2.4935,-2.4935,-2.4861,-2.454,-2.454,-2.454,-2.454,-2.454,-2.454,-2.454,-2.454,-2.454,-2.454,-2.454,-2.454,-2.454,-2.454,-2.454,-2.4454,-2.4368,-2.4196,-2.4013,-2.4013,-2.3841,-2.3493,-2.3677,-2.358,-2.3319,0.0,0.0,0.0,0.0,0.0,0.0,0.0,0.0,-1.1568,-1.1787,0.0,0.0,0.0,0.0,-1.2441,-1.2441,-1.2441,-1.2545,-1.298,-1.298,-1.3619,-1.512,-1.5232,-1.6199,-1.801,-1.8011,-1.8428,-1.9279,-1.9169,-1.9169,-1.9272,-1.9162,-1.949,-2.0253,-2.0303,-2.0459,-2.069,-2.1796,-2.2292,-2.2413,-2.3379,-2.3632,-2.3426,-2.3652,-2.3622,-2.3406,-2.358,-2.3851,-2.3947,-2.4024,-2.411,-2.4282,-2.4368,-2.4861,-2.5505,-2.6412,-2.6648,-2.6741,-2.6987,-2.7557,-2.8051,-2.8051,-2.8051,-2.8051,-2.8051,-2.7557,-2.6987,-2.673,-2.6905,-2.6987,-2.673,-2.7891,-2.8712,-2.8131,-2.8051,-2.7799,-2.7151,-2.7069,-2.6987,-2.673,-2.6152,-2.5663,-2.5421,-2.4861,-2.454,-2.454,-2.454,-2.454,-2.454,-2.454,-2.454,-2.454,-2.454,-2.454,-2.454,-2.454,-2.454,-2.454,-2.454,-2.454,-2.454,-2.4454,-2.4368,-2.4368,-2.4282,-2.4368,-2.4454,-2.4378,-2.4196,-2.3927,-2.3927,-2.3667,-2.3232,-2.3406,-2.3319,-2.3135,0.0,0.0,0.0,0.0,0.0,0.0,0.0,0.0,-1.124,-1.1568,0.0,0.0,0.0,0.0,0.0,-1.2441,-1.2436,-1.298,-1.4164,-1.4164,-1.5125,-1.6922,-1.7364,-1.7905,-1.8869,-1.8759,-1.8957,-1.9279,-1.8957,-1.8957,-1.9257,-1.8935,-1.9272,-2.0198,-2.0562,-2.127,-2.2172,-2.186,-2.2236,-2.3174,-2.3613,-2.3535,-2.3115,-2.3643,-2.3545,-2.3174,-2.3446,-2.3543,-2.3543,-2.3794,-2.3871,-2.3861,-2.412,-2.4368,-2.47,-2.5505,-2.5746,-2.5986,0.0,0.0,0.0,-2.7069,-2.7069,-2.7069,-2.7069,-2.7069,-2.6812,-2.5913,-2.64,-2.6741,-2.5902,-2.6483,-2.6987,-2.6987,-2.7069,-2.7058,-2.7069,-2.6987,-2.673,-2.5819,-2.5746,-2.5421,-2.4625,-2.454,-2.454,-2.454,-2.454,-2.454,-2.454,-2.454,-2.454,-2.454,-2.454,-2.454,-2.454,-2.454,-2.454,-2.4454,-2.4454,-2.4454,-2.4454,-2.4292,-2.4206,-2.4196,-2.3927,-2.41,-2.4454,-2.4454,-2.4368,-2.4206,-2.4206,-2.3851,-2.3503,-2.3503,-2.3319,-2.3135,0.0,0.0,0.0,0.0,0.0,-1.099,-1.099,-1.0945,-1.0911,0.0,0.0,0.0,-1.1678,-1.1787,-1.254,-1.4374,-1.3619,-1.3506,-1.4691,-1.4798,-1.5013,-1.5541,-1.5654,-1.6293,-1.7569,-1.7593,-1.8123,-1.9279,-1.9184,-1.9067,-1.8921,-1.8833,-1.9414,-2.0537,-2.0619,-2.1488,-2.2859,-2.2735,-2.2872,-2.3174,-2.3613,-2.3631,-2.3374,-2.3991,-2.4069,-2.3779,-2.4062,-2.4254,-2.4445,-2.4526,-2.4496,-2.4527,-2.4471,-2.4454,-2.454,-2.4786,-2.4861,-2.4946,-2.5189,0.0,0.0,0.0,0.0,0.0,-2.6152,-2.5673,-2.5189,-2.4946,-2.502,-2.5115,-2.4946,-2.5031,-2.5189,-2.5189,-2.5757,-2.5913,-2.5274,-2.5189,-2.5115,-2.4861,-2.4861,-2.4786,-2.454,-2.454,-2.454,-2.454,-2.454,-2.454,-2.454,-2.454,-2.454,-2.454,-2.454,-2.454,-2.454,-2.454,-2.4454,-2.4282,-2.4282,-2.4196,-2.4013,-2.3937,-2.3927,-2.3937,-2.3841,-2.3841,-2.4013,-2.3851,-2.3764,-2.3677,-2.3493,-2.3319,-2.3232,-2.3232,-2.3144,-2.3135,0.0,0.0,0.0,-1.0692,-1.0692,-1.0692,-1.0692,-1.0692,-1.0802,0.0,0.0,0.0,-1.2214,-1.2323,-1.3078,-1.5013,-1.4476,-1.4471,-1.5654,-1.5761,-1.5867,-1.6193,-1.6399,-1.6717,-1.747,-1.756,-1.8088,-1.9175,-1.914,-1.8979,-1.8789,-1.9044,-1.9755,-2.0704,-2.1003,-2.1916,-2.3408,-2.3408,-2.3408,-2.3467,-2.3991,-2.3944,-2.3717,-2.4346,-2.4301,-2.4034,-2.4322,-2.4516,-2.4608,-2.4608,-2.4715,-2.4785,-2.4527,-2.4559,-2.4615,-2.4506,-2.454,-2.454,-2.454,-2.4861,-2.5263,-2.5263,0.0,0.0,-2.5094,-2.469,-2.4196,-2.4196,-2.4282,-2.4368,-2.4368,-2.4454,-2.454,-2.454,-2.4946,-2.5105,-2.454,-2.454,-2.454,-2.454,-2.454,-2.454,-2.454,-2.454,-2.454,-2.454,-2.454,-2.454,-2.454,-2.454,-2.454,-2.454,-2.3993,-2.3917,-2.4378,-2.3917,-2.3744,-2.4024,-2.4024,-2.3927,-2.3841,-2.3667,-2.3667,-2.3667,-2.358,-2.3493,-2.3493,-2.3406,-2.3406,-2.3503,-2.3319,-2.3232,-2.3135,-2.3135,-2.3135,-2.3135,0.0,0.0,-1.0692,-1.0692,-1.0692,-1.0692,-1.0692,-1.0692,-1.0692,0.0,-1.1017,-1.1773,-1.329,-1.3398,-1.3932,-1.5227,-1.5227,-1.5547,-1.673,-1.6836,-1.716,-1.7911,-1.822,-1.822,-1.8016,-1.8274,-1.848,-1.8869,-1.8781,-1.8702,-1.8622,-1.9406,-2.0014,-2.0636,-2.1401,-2.2471,-2.3799,-2.3838,-2.3887,-2.3913,-2.4504,-2.4477,-2.4066,-2.4612,-2.4535,-2.4179,-2.4468,-2.456,-2.4551,-2.4512,-2.4677,-2.4792,-2.4636,-2.4664,-2.4761,-2.4635,-2.4567,-2.4537,-2.4537,-2.4495,-2.4454,-2.4454,-2.4282,0.0,-2.4206,-2.3927,-2.3841,-2.3841,-2.4024,-2.4206,-2.4206,-2.4368,-2.4454,-2.4454,-2.4454,-2.4454,-2.454,-2.454,-2.454,-2.454,-2.454,-2.454,-2.454,-2.454,-2.4454,-2.4272,-2.4186,-2.4186,-2.4358,-2.4272,-2.4186,-2.4186,-2.3096,-2.2921,-2.3841,-2.2755,-2.2668,-2.3484,-2.357,-2.357,-2.357,-2.3493,-2.3503,-2.3416,-2.3232,-2.3135,-2.3135,-2.3135,-2.3232,-2.3503,-2.3503,-2.3319,-2.3135,-2.3135,-2.3135,-2.3144,-1.0692,-1.0692,-1.0692,-1.0692,-1.0692,-1.0692,-1.0692,-1.0692,-1.0692,-1.0692,-1.1555,-1.2743,-1.4148,-1.4143,-1.4888,-1.7265,-1.6399,-1.6187,-1.7371,-1.7371,-1.7477,-1.7687,-1.7687,-1.7799,-1.8016,-1.8067,-1.8269,-1.8534,-1.8471,-1.8182,-1.7796,-1.8897,-1.9598,-2.0087,-2.1186,-2.2471,-2.3809,-2.415,-2.4409,-2.4571,-2.465,-2.4564,-2.4336,-2.4957,-2.4956,-2.4783,-2.5286,-2.5478,-2.543,-2.5248,-2.5214,-2.5238,-2.5077,-2.5028,-2.5007,-2.5017,-2.4745,-2.4472,-2.4472,-2.42,-2.3927,-2.3927,-2.3927,0.0,-2.3841,-2.3841,-2.3841,-2.3841,-2.3841,-2.3841,-2.3841,-2.411,-2.4206,-2.3927,-2.411,-2.4292,-2.4454,-2.454,-2.454,-2.454,-2.454,-2.454,-2.454,-2.454,-2.409,-2.3096,-2.2375,-2.2375,-2.328,-2.2668,-2.2129,-2.1924,-2.1747,-2.156,-2.1569,-2.1293,-2.1212,-2.1221,-2.2031,-2.2315,-2.2138,-2.2862,-2.3144,-2.3144,-2.3135,-2.3135,-2.3135,-2.3135,-2.3135,-2.3144,-2.3144,-2.3144,-2.3135,-2.3135,-2.3135,-2.3184,-1.0692,-1.0692,-1.0692,-1.0692,-1.0692,-1.0692,-1.0692,-1.0692,-1.0692,-1.0692,-1.1232,-1.2096,-1.3388,-1.3383,-1.403,-1.5861,-1.5968,-1.618,-1.6717,-1.7259,-1.7582,-1.7582,-1.7582,-1.7687,-1.7799,-1.7911,-1.8122,-1.822,-1.8318,-1.8184,-1.7729,-1.8745,-1.9252,-1.9477,-2.0976,-2.2327,-2.3476,-2.4181,-2.482,-2.5228,-2.4929,-2.4629,-2.4453,-2.4758,-2.4833,-2.4735,-2.5137,-2.544,-2.5509,-2.5565,-2.5592,-2.5513,-2.5341,-2.5202,-2.5255,-2.5127,-2.5007,-2.4836,-2.4836,-2.4665,-2.4355,-2.4233,-2.4085,0.0,0.0,-2.358,-2.3493,-2.3493,-2.358,-2.3667,-2.3667,-2.3851,-2.3937,-2.3841,-2.3484,-2.3299,-2.3474,-2.4013,-2.4368,-2.4368,-2.4454,-2.4358,-2.382,-2.4272,-2.4003,-2.2824,-2.1836,-2.1471,-2.2013,-2.1578,-2.1221,-2.1114,-2.0486,-2.0395,-2.0764,-2.0133,-2.0042,-2.0413,-2.0863,-2.132,-2.1695,-2.2148,-2.2687,-2.3135,-2.3135,-2.3135,-2.3135,-2.3135,-2.3135,-2.3135,-2.3135,-2.3135,-2.3135,-2.3135,-2.3271,-2.3496,-1.0692,-1.0692,-1.0692,-1.0692,-1.0692,-1.0692,-1.0692,-1.0692,-1.0692,-1.0692,-1.0802,-1.1341,-1.22,-1.2521,-1.295,-1.3917,-1.4888,-1.5535,-1.5749,-1.6717,-1.7259,-1.7582,-1.7582,-1.7582,-1.7582,-1.7799,-1.7911,-1.7911,-1.8115,-1.806,-1.7858,-1.8688,-1.8913,-1.8927,-2.0573,-2.1958,-2.3,-2.3914,-2.4649,-2.5128,-2.4932,-2.4735,-2.4637,-2.4637,-2.4529,-2.4637,-2.4833,-2.5039,-2.5235,-2.5538,-2.5635,-2.5577,-2.5494,-2.5376,-2.5401,-2.5242,-2.5083,-2.5013,-2.5105,-2.5035,-2.4886,-2.4546,-2.4356,-2.4058,0.0,0.0,0.0,-2.3154,-2.3232,-2.3416,-2.3416,-2.358,-2.3754,-2.3667,-2.294,-2.2306,-2.2306,-2.294,-2.357,-2.3841,-2.3831,-2.3551,-2.3008,-2.328,-2.3183,-2.2375,-2.1302,-2.0576,-2.0666,-2.0494,-2.0314,-2.0314,-1.9322,-1.9239,-1.996,-1.8964,-1.8872,-1.9596,-1.9869,-2.0331,-2.115,-2.1516,-2.2148,-2.2872,-2.3047,-2.3135,-2.3135,-2.3135,-2.3135,-2.3135,-2.3135,-2.3135,-2.3154,-2.3232,-2.3486,-2.3809,-1.0692,-1.0692,-1.0692,-1.0692,-1.0692,-1.0692,-1.0692,-1.0692,-1.0692,-1.0692,-1.1337,-1.1873,-1.1982,-1.2733,-1.327,-1.3372,-1.348,-1.4126,-1.5417,-1.563,-1.628,-1.7582,-1.7582,-1.7582,-1.7582,-1.7582,-1.7687,-1.7687,-1.7687,-1.7539,-1.7353,-1.8412,-1.884,-1.855,-1.9958,-2.1332,-2.2717,-2.292,-2.3046,-2.3294,-2.4223,-2.4833,-2.5137,-2.4941,-2.4833,-2.4833,-2.4932,-2.4932,-2.5039,-2.5235,-2.5342,-2.543,-2.5577,-2.546,-2.5353,-2.5605,-2.5217,-2.483,-2.5,-2.48,-2.4496,-2.4447,-2.4346,-2.4238,-2.3908,0.0,-2.3603,-2.3213,0.0,-2.3144,-2.3144,0.0,0.0,-2.3232,-2.258,-2.1952,-2.1784,-2.132,-2.1409,-2.2482,-2.1845,-2.1658,-2.2394,-2.0764,-2.0124,-2.1025,-1.9239,-1.8535,-1.9621,-1.8896,-1.835,-1.8079,-1.79,-1.78,-1.7692,-1.7512,-1.7505,-1.7598,-1.8511,-1.9063,-1.9155,-2.0881,-2.1784,-2.1882,-2.2775,-2.3135,-2.3135,-2.3135,-2.3135,-2.3135,-2.3135,-2.3135,-2.3184,-2.3574,-2.375,-2.3896,-1.0692,-1.0692,-1.0692,-1.0692,-1.0692,-1.0692,-1.0692,-1.0692,-1.0692,-1.0692,-1.1013,-1.1227,-1.1227,-1.1551,-1.1769,-1.1551,-1.2195,-1.3053,-1.4341,-1.499,-1.6062,-1.7582,-1.7582,-1.7582,-1.7582,-1.7582,-1.7582,-1.7582,-1.7582,-1.7522,-1.7395,-1.7832,-1.828,-1.8912,-1.9322,-2.0412,-2.1962,-2.2559,-2.2944,-2.3194,-2.3601,-2.3908,-2.4214,-2.444,-2.444,-2.4538,-2.4637,-2.4637,-2.4735,-2.4932,-2.5137,-2.5333,-2.5235,-2.5333,-2.5538,-2.544,-2.5412,-2.5276,-2.5459,-2.4717,-2.4115,-2.4656,-2.4202,-2.3702,-2.4065,-2.415,-2.4033,-2.3603,0.0,0.0,0.0,0.0,0.0,0.0,-2.0683,-2.0141,-2.0059,-1.9239,-1.9322,-2.1132,-2.1123,-2.1025,-2.148,-1.9687,-1.888,-1.9761,-1.8527,-1.7807,-1.8156,-1.7885,-1.7613,-1.7434,-1.7434,-1.7426,-1.7326,-1.7326,-1.7326,-1.7333,-1.7692,-1.8241,-1.8796,-1.9604,-2.0331,-2.0872,-2.1872,-2.2325,-2.2325,-2.2872,-2.3291,-2.3516,-2.3516,-2.3516,-2.3574,-2.3994,-2.4316,-2.459,-1.0363,-1.0582,-1.0692,-1.0692,-1.0692,-1.0692,-1.0692,-1.0692,-1.0692,-1.0692,-1.0692,-1.0582,-1.0582,-1.0472,-1.0257,-1.0036,-1.0684,-1.1651,-1.2945,-1.4126,-1.531,-1.6393,-1.7153,-1.7364,-1.7041,-1.7364,-1.7582,-1.7582,-1.7582,-1.7582,-1.7582,-1.7368,-1.7791,-1.87,-1.8583,-1.9316,-2.0664,-2.1473,-2.1971,-2.2072,-2.2484,-2.2685,-2.2693,-2.352,-2.3945,-2.4251,-2.4341,-2.444,-2.444,-2.4735,-2.4932,-2.5039,-2.4932,-2.5137,-2.5342,-2.5235,-2.5235,-2.544,-2.5538,-2.4913,-2.4328,-2.5131,-2.4458,-2.3846,-2.4501,-2.459,-2.4473,-2.3952,-2.3874,0.0,0.0,0.0,-2.1545,-2.0339,0.0,-1.8788,-1.8788,-1.7963,-1.7963,-1.9869,-2.0223,-2.0215,-1.9943,-1.8696,-1.8071,-1.8596,-1.7978,-1.7527,-1.7333,-1.7326,-1.7326,-1.7326,-1.7326,-1.7326,-1.7326,-1.7326,-1.7326,-1.7326,-1.7326,-1.7692,-1.8427,-1.8696,-1.9147,-1.9786,-2.1051,-2.158,-2.177,-2.2682,-2.3386,-2.3884,-2.401,-2.4059,-2.4088,-2.4482,-2.4795,-2.5088,-0.9816,-1.0253,-1.0692,-1.0692,-1.0692,-1.0692,-1.0692,-1.0692,-1.0692,-1.0692,-1.0476,-1.0257,-1.0257,-0.9816,-0.9489,-0.9379,-0.9158,-0.9588,-1.1105,-1.2512,-1.3372,-1.348,-1.6068,-1.6929,-1.5524,-1.6823,-1.7582,-1.7582,-1.7582,-1.7582,-1.7582,-1.7569,-1.7575,-1.7687,-1.7674,-1.8087,-1.893,-1.9228,-1.9124,-1.9027,-2.0475,-2.0987,-2.1081,-2.2484,-2.3511,-2.4152,-2.4251,-2.4251,-2.4251,-2.444,-2.4529,-2.4538,-2.4833,-2.4735,-2.4637,-2.4833,-2.4735,-2.4627,-2.5137,-2.5235,-2.5333,-2.5625,-2.5616,-2.5499,-2.5146,-2.5049,-2.4828,-2.4102,-2.421,-2.3881,-2.2245,-2.208,-2.1853,-2.0473,-1.9422,0.0,0.0,-1.7963,-1.7692,-1.8696,-1.888,-1.8511,-1.7512,-1.7326,-1.7326,-1.7326,-1.7326,-1.7333,-1.7326,-1.7326,-1.7326,-1.7326,-1.7326,-1.7326,-1.7326,-1.7326,-1.7326,-1.7326,-1.7326,-1.7326,-1.7419,-1.8334,-1.8696,-1.8519,-2.0512,-2.1464,-2.1639,-2.2656,-2.3357,-2.4063,-2.4506,-2.4679,-2.4679,-2.4954,-2.5059,-2.5127,-0.9706,-0.9923,-1.0143,-1.0363,-1.0582,-1.0692,-1.0472,-1.0476,-1.0363,-1.0147,-1.0036,-0.9926,-0.9926,-0.9816,-0.9596,-0.9379,-0.9268,-0.9809,-1.0996,-1.229,-1.3048,-1.3264,-1.5861,-1.673,-1.5417,-1.6823,-1.7582,-1.7582,-1.7582,-1.7582,-1.7582,-1.7582,-1.7996,-1.861,-1.7891,-1.8101,-1.8826,-1.8923,-1.8819,-1.8603,-1.9013,-1.9731,-2.0649,-2.1277,-2.1794,-2.2106,-2.2828,-2.3038,-2.3238,-2.4044,-2.444,-2.4538,-2.444,-2.4637,-2.4735,-2.4637,-2.4214,-2.3701,-2.3908,-2.2785,-2.1971,-2.3701,-2.3402,-2.3167,-2.4645,-2.5015,-2.4591,-2.3382,-2.3195,-2.259,-2.0366,-1.9819,-1.9437,-1.8297,-1.7834,-1.7621,0.0,-1.734,-1.7153,-1.7326,-1.7598,-1.7692,-1.7326,-1.7326,-1.7326,-1.7326,-1.7326,-1.7326,-1.7326,-1.7326,-1.7326,-1.7326,-1.7326,-1.7326,-1.7326,-1.7153,-1.7066,-1.7066,-1.6965,-1.6864,-1.6864,-1.7232,-1.7811,-1.8683,-1.9969,-2.1026,-2.2058,-2.3019,-2.3729,-2.4212,-2.4364,-2.4592,-2.483,-2.5112,-2.5112,-2.5034,-0.9485,-0.9596,-0.9706,-1.0036,-1.0257,-1.0366,-1.0147,-0.9809,-0.9588,-0.9816,-0.9478,-0.9368,-0.9706,-0.9706,-0.9596,-0.9379,-0.9268,-0.9482,-1.0241,-1.1538,-1.2073,-1.1755,-1.4352,-1.5215,-1.3911,-1.5749,-1.6723,-1.6823,-1.7265,-1.7483,-1.7582,-1.7582,-1.7996,-1.861,-1.7891,-1.7786,-1.8094,-1.8206,-1.7996,-1.7667,-1.7772,-1.8283,-1.9095,-1.9317,-2.0261,-2.1497,-2.181,-2.1912,-2.2013,-2.282,-2.312,-2.322,-2.3029,-2.322,-2.3411,-2.3094,-2.2793,-2.2484,-2.2374,-2.1355,-2.0656,-2.2265,-2.1971,-2.1777,-2.3908,-2.4223,-2.3934,-2.2876,-2.2823,-2.2004,-1.9178,-1.8845,-1.8476,-1.7218,-1.6952,-1.7006,0.0,-1.6878,-1.6683,-1.6103,-1.6669,-1.7052,-1.7145,-1.7145,-1.7145,-1.7333,-1.7239,-1.7239,-1.7326,-1.7239,-1.7153,-1.7153,-1.7145,-1.7052,-1.7052,-1.6965,-1.6878,-1.6878,-1.6683,-1.6644,-1.6749,-1.7122,-1.7867,-1.875,-2.0074,-2.1234,-2.2267,-2.3257,-2.3879,-2.4341,-2.4341,-2.45,-2.4833,-2.5039,-2.5039,-2.4932,-0.8937,-0.9158,-0.9489,-0.9706,-0.9816,-0.9816,-0.9816,-0.8809,-0.8364,-0.9482,-0.8699,-0.8364,-0.9592,-0.9485,-0.9379,-0.9379,-0.9047,-0.894,-0.894,-1.0241,-1.0457,-0.8937,-1.1755,-1.262,-1.1105,-1.3706,-1.5108,-1.5417,-1.6624,-1.7279,-1.7582,-1.7582,-1.7582,-1.7582,-1.7582,-1.7259,-1.673,-1.706,-1.6855,-1.6324,-1.6524,-1.673,-1.673,-1.673,-1.9005,-2.2114,-2.1191,-2.0783,-2.0783,-2.0885,-2.0885,-2.0885,-2.0885,-2.0885,-2.0775,-2.0436,-2.0554,-2.0775,-2.0735,-2.0853,-2.1175,-2.1456,-2.1338,-2.144,-2.2776,-2.2985,-2.2685,-2.2383,-2.2685,-2.2063,-1.8825,-1.8955,-1.8944,-1.7275,-1.6973,-1.6856,-1.6557,-1.6609,-1.6218,-1.514,-1.5913,-1.6588,-1.6784,-1.6683,-1.6676,-1.7138,-1.7059,-1.7066,-1.7239,-1.7066,-1.6979,-1.6979,-1.6683,-1.6588,-1.6588,-1.6602,-1.6609,-1.6609,-1.6623,-1.6777,-1.7057,-1.8215,-1.8684,-1.8905,-2.0942,-2.1926,-2.2264,-2.3169,-2.3892,-2.4538,-2.4538,-2.4538,-2.4529,-2.4735,-2.4833,-2.4833,-0.8716,-0.894,-0.9047,-0.9158,-0.9485,-0.9706,-0.9489,-0.8481,-0.7703,-0.7817,-0.7485,-0.7485,-0.7706,-0.8488,-0.9047,-0.9047,-0.8937,-0.894,-0.894,-1.0131,-1.0241,-0.8937,-1.1538,-1.2398,-1.1105,-1.3706,-1.5007,-1.5114,-1.6299,-1.6955,-1.7279,-1.7279,-1.7384,-1.7582,-1.7582,-1.7259,-1.673,-1.6842,-1.6524,-1.5998,-1.6105,-1.673,-1.7569,-1.6743,-1.7667,-1.942,-1.9117,-1.9013,-1.9117,-1.9937,-2.0238,-2.0238,-2.0238,-2.0238,-2.0246,-2.0128,-1.962,-1.9013,-1.8998,-1.8485,-1.8073,-1.8998,-1.9206,-1.9406,-2.0538,-2.0743,-2.0538,-1.962,-1.9509,-1.9184,-1.7796,-1.7495,-1.7422,-1.715,-1.7095,-1.6691,-1.5589,-1.6152,-1.6175,-1.4604,-1.535,-1.5622,-1.4453,-1.5038,-1.5425,-1.5615,-1.6292,-1.6777,-1.677,-1.6777,-1.6683,-1.6683,-1.6683,-1.6588,-1.6588,-1.6628,-1.6656,-1.6656,-1.6674,-1.6718,-1.6792,-1.7963,-1.9018,-2.0027,-2.1408,-2.2619,-2.3682,-2.3898,-2.4159,-2.4251,-2.4251,-2.4251,-2.4251,-2.435,-2.435,-2.4449,-0.7934,-0.8491,-0.894,-0.894,-0.9168,-0.9393,-0.9175,-0.8159,-0.726,-0.6927,-0.6591,-0.6702,-0.782,-0.8045,-0.838,-0.883,-0.894,-0.894,-0.894,-0.9588,-0.9588,-0.8937,-1.0347,-1.0777,-1.0131,-1.2082,-1.3378,-1.403,-1.5215,-1.6193,-1.6955,-1.6955,-1.7054,-1.7265,-1.7265,-1.6948,-1.653,-1.6418,-1.6205,-1.5891,-1.5891,-1.6418,0.0,-1.6418,-1.6624,-1.7351,-1.7351,-1.7457,-1.7765,-1.838,-1.8589,-1.8589,-1.8589,-1.8589,-1.8485,-1.8387,-1.808,-1.7667,-1.7457,-1.7147,-1.6836,-1.7457,-1.7562,-1.7772,-1.9005,-1.9213,-1.8902,-1.8394,-1.829,-1.7871,-1.6199,-1.6405,-1.6996,-1.7174,-1.7218,-1.6693,-1.5283,-1.6058,-1.5802,-1.3463,-1.4138,-1.3987,-1.2097,-1.4045,-1.5045,-1.4358,-1.5235,-1.5812,-1.5906,-1.5818,-1.6069,-1.66,-1.6505,-1.656,-1.6601,-1.6674,-1.667,-1.667,-1.6733,-1.6774,-1.7002,-1.8589,-1.976,-2.0684,-2.2292,-2.3431,-2.4152,-2.4152,-2.4152,-2.4152,-2.4152,-2.4152,-2.4152,-2.4152,-2.4152,-2.4251,-0.6818,-0.782,-0.8605,-0.8491,-0.8732,-0.8749,-0.8409,-0.7388,-0.6818,-0.6932,-0.5922,-0.5919,-0.7814,-0.7485,-0.7487,-0.8605,-0.8826,-0.894,-0.894,-0.894,-0.894,-0.894,-0.894,-0.894,-0.894,-1.0131,-1.1319,-1.2724,-1.3922,-1.5227,-1.663,-1.663,-1.663,-1.673,-1.673,-1.6524,-1.6105,-1.5779,-1.5565,-1.5452,-1.5452,-1.5452,-1.5452,-1.5672,-1.5678,-1.5672,-1.5891,-1.6205,-1.6624,-1.6624,-1.6624,-1.6624,-1.6624,-1.6624,-1.6524,-1.6324,-1.6424,-1.6518,-1.6318,-1.6424,-1.6624,-1.6624,-1.6424,-1.653,-1.7765,-1.7877,-1.7667,-1.7667,-1.7765,-1.7121,-1.4696,-1.5559,-1.6765,-1.6931,-1.6891,-1.6369,-1.4742,-1.5632,-1.5316,-1.2221,-1.273,0.0,-1.0539,-1.3302,-1.4712,-1.3346,-1.4027,-1.4629,-1.4954,-1.4865,-1.537,-1.6626,-1.6431,-1.6446,-1.67,-1.674,-1.6767,-1.6767,-1.68,-1.6954,-1.7311,-1.952,-2.0591,-2.0987,-2.3229,-2.4152,-2.4152,-2.4152,-2.4152,-2.4152,-2.4152,-2.4152,-2.4152,-2.4152,-2.4152,-2.4152,-0.5472,-0.6591,-0.7149,-0.6142,-0.761,-0.8072,-0.5599,-0.5039,-0.5828,-0.8214,-0.6056,-0.4026,-0.3126,-0.5472,-0.7152,-0.7376,-0.838,-0.894,-0.894,-0.894,-0.894,-0.894,-0.894,-0.894,-0.894,-1.0131,-1.1324,-1.2516,-1.3722,-1.5024,-1.6318,-1.6318,-1.653,-1.673,-1.673,-1.598,-1.4905,-1.4595,-1.3943,-1.2955,-1.2955,-1.2955,-1.3068,-1.4164,-1.4493,-1.46,-1.5565,-1.5998,-1.5992,-1.5992,-1.5992,-1.5992,-1.5992,-1.5992,-1.5992,-1.5998,-1.5998,-1.5992,-1.5998,-1.5998,-1.5992,-1.5992,-1.5998,-1.5992,-1.6311,-1.6305,-1.6311,-1.6311,-1.5553,-1.4798,-1.4578,-1.4245,-1.4336,-1.5269,-1.5577,-1.4836,-1.2274,-1.392,-1.4585,-1.2643,-1.2715,-1.2802,-1.2464,-1.2259,-1.2024,-1.1825,-1.2725,-1.3811,-1.492,-1.4932,-1.5457,-1.6633,-1.6627,-1.6653,-1.6707,-1.6947,-1.7074,-1.7074,-1.7315,-1.7455,-1.7607,-1.9766,-2.0829,-2.0987,-2.3229,-2.4152,-2.4152,-2.4152,-2.4152,-2.4152,-2.4152,-2.4152,-2.4152,-2.4152,-2.4152,-2.4152,-0.5139,-0.6146,-0.6255,-0.4569,-0.6829,-0.7862,-0.4925,-0.4484,-0.4485,-0.4255,-0.4367,-0.4142,-0.3689,-0.4021,-0.5365,-0.785,-0.8399,-0.8615,-0.8615,-0.8497,-0.838,-0.838,-0.838,-0.838,-0.838,-0.9034,-0.9904,-1.1214,-1.2417,-1.3835,-1.5244,-1.5785,-1.6211,-1.6311,-1.5666,-1.5018,-1.4374,-1.3614,-1.296,-1.2417,-1.2417,-1.2417,-1.2417,-1.3073,-1.3619,-1.4277,-1.4815,-1.5351,-1.5891,-1.5891,-1.5891,-1.5891,-1.5891,-1.5891,-1.5891,-1.5891,-1.5891,-1.5891,-1.5891,-1.5891,-1.5891,-1.5891,-1.5891,-1.5891,-1.5891,-1.5458,-1.503,-1.503,-1.4051,-1.3393,-1.3593,-1.3372,-1.3264,-1.4024,-1.4674,-1.4308,-1.1733,-1.3001,-1.3386,-1.1389,-1.169,-1.2068,-1.2073,-1.125,-1.0944,-1.1657,-1.2359,-1.3426,-1.4969,-1.4969,-1.5448,-1.6629,-1.6737,-1.6701,-1.6742,-1.6996,-1.7173,-1.7173,-1.7312,-1.7483,-1.7687,-1.9731,-2.0767,-2.0987,-2.3229,-2.4152,-2.4152,-2.4152,-2.4152,-2.4152,-2.4152,-2.4152,-2.4152,-2.4152,-2.3845,-2.3438,-0.4021,-0.4578,-0.4239,-0.2225,-0.4468,-0.5942,-0.4024,-0.3586,-0.2691,-0.0335,-0.2014,-0.3694,-0.4252,-0.2682,-0.313,-0.6844,-0.7396,-0.7727,-0.8183,-0.8057,-0.7937,-0.7937,-0.7934,-0.8045,-0.8045,-0.8045,-0.8702,-1.0123,-1.1109,-1.2521,-1.4159,-1.4804,-1.5131,-1.5018,-1.4159,-1.3511,-1.3181,-1.22,-1.1651,-1.1433,-1.1433,-1.1433,-1.1542,-1.176,-1.2526,-1.3398,-1.3727,-1.4374,-1.5131,-1.5131,-1.5458,-1.5891,-1.5891,-1.5891,-1.5891,-1.5891,-1.5891,-1.5891,-1.5891,-1.5891,-1.5891,-1.5891,-1.5672,-1.5565,-1.5565,-1.4702,-1.384,-1.384,-1.2856,-1.2082,-1.229,-1.2181,-1.2181,-1.2945,-1.3706,-1.3491,-1.1647,-1.2403,-1.2403,-1.0245,-1.1114,-1.1702,-1.134,-1.0683,-1.0621,-1.1736,-1.22,-1.3225,-1.5041,-1.4938,-1.5342,-1.662,-1.673,-1.6729,-1.673,-1.6955,-1.7173,-1.7179,-1.7173,-1.7272,-1.7582,-1.942,-2.0451,-2.0877,-2.302,-2.4044,-2.4152,-2.4152,-2.4152,-2.4152,-2.4152,-2.4053,-2.3845,-2.3845,-2.3138,-2.2325,-0.0336,0.0223,0.0781,0.201,0.1449,0.0334,-0.1007,-0.0784,-0.0336,-0.0,-0.0224,-0.0448,-0.0448,-0.0783,-0.1117,-0.1564,-0.3575,-0.5708,-0.7862,-0.7844,-0.7832,-0.7832,-0.7937,-0.8045,-0.8045,-0.8045,-0.8592,-0.9798,-1.0233,-1.1538,-1.3701,-1.3063,-1.2635,-1.2309,-1.22,-1.1433,-1.0233,-1.0123,-0.9357,-0.8374,-0.8374,-0.8374,-0.8592,-0.9904,-1.0453,-1.0781,-1.2087,-1.2635,-1.2743,-1.2743,-1.4148,-1.5891,-1.5891,-1.5891,-1.5891,-1.5891,-1.5891,-1.5891,-1.5891,-1.5891,-1.5891,-1.5891,-1.5137,-1.4385,-1.4385,-1.3398,-1.2526,-1.2526,-1.1655,-1.0891,-1.0891,-1.0021,-0.9919,-1.2087,-1.1869,-1.1324,-1.0887,-1.1964,-1.229,-1.0781,-1.1873,-1.2299,-1.1193,-1.1084,-1.118,-1.1489,-1.1652,-1.2694,-1.4927,-1.4938,-1.5488,-1.6692,-1.6692,-1.6704,-1.673,-1.673,-1.6955,-1.7179,-1.6842,-1.6948,-1.7279,-1.8916,-1.993,-2.0538,-2.2501,-2.3737,-2.4152,-2.4152,-2.4152,-2.4152,-2.4152,-2.3546,-2.2627,-2.2627,-2.2013,-2.1089,0.1677,0.2459,0.3242,0.3913,0.4585,0.481,0.4027,0.2908,0.1678,0.0224,-0.0,-0.0,-0.0,-0.0224,-0.0336,-0.0336,-0.123,-0.2236,-0.3132,-0.4474,-0.5933,-0.7404,-0.7516,-0.7513,-0.7513,-0.7507,-0.7724,-0.8266,-0.9244,-1.0221,-1.1315,-1.1746,-1.1746,-1.1638,-1.0996,-1.0343,-0.9798,-0.903,-0.8484,-0.8045,-0.8045,-0.8045,-0.8045,-0.8702,-0.9357,-1.0014,-1.0672,-1.1319,-1.1855,-1.2087,-1.2847,-1.3825,-1.3825,-1.3825,-1.3825,-1.3825,-1.3825,-1.3825,-1.3825,-1.3825,-1.3825,-1.3825,-1.3501,-1.3073,-1.3073,-1.22,-1.1324,-1.1324,-1.046,-0.9588,-0.9588,-0.9805,-1.0025,-1.0245,-1.0566,-1.0566,-0.9699,-1.0131,-1.0237,-0.9699,-1.0135,-1.057,-1.0891,-1.0996,-1.1324,-1.1978,-1.2126,-1.2974,-1.49,-1.5452,-1.5992,-1.6424,-1.6424,-1.6424,-1.6205,-1.6424,-1.6537,-1.6643,-1.653,-1.6849,-1.7701,-1.8819,-2.0349,-2.219,-2.292,-2.3637,-2.4152,-2.4152,-2.4152,-2.4152,-2.4152,-2.3538,-2.2526,-2.2526,-2.1395,-1.9849,0.3466,0.4252,0.515,0.5479,0.6497,0.7184,0.7182,0.5714,0.4029,0.235,0.1456,0.0784,0.0112,-0.0,-0.0,-0.0,-0.0,-0.0,-0.0,-0.1566,-0.3357,-0.5044,-0.5723,-0.6172,-0.6172,-0.6168,-0.6502,-0.7176,-0.8152,-0.8803,-0.9016,-1.0445,-1.0887,-1.0453,-0.9578,-0.9144,-0.8927,-0.8156,-0.7712,-0.7712,-0.7712,-0.7712,-0.7823,-0.7823,-0.8374,-0.914,-0.9251,-0.979,-1.0546,-1.0773,-1.0996,-1.1214,-1.2087,-1.2417,-1.2417,-1.2417,-1.2417,-1.2417,-1.2417,-1.2417,-1.2417,-1.2417,-1.22,-1.1873,-1.1873,-1.1,-1.0131,-1.0131,-0.9482,-0.894,-0.894,-0.9588,-1.0021,-0.9482,-0.9805,-0.9911,-0.9372,-0.9261,-0.9151,-0.8823,-0.9695,-1.0241,-1.0131,-1.1,-1.1437,-1.1328,-1.1982,-1.3063,-1.4691,-1.5672,-1.6217,-1.6217,-1.6217,-1.6105,-1.5891,-1.6105,-1.6217,-1.6324,-1.6217,-1.6743,-1.7911,-1.8819,-2.0357,-2.2518,-2.2619,-2.302,-2.3637,-2.3845,-2.4044,-2.4152,-2.3845,-2.3029,-2.2013,-2.17,-2.0364,-1.8715,0.5146,0.6161,0.7176,0.7157,0.7154,0.7163,0.7179,0.7182,0.7184,0.7081,0.5043,0.2686,0.0224,-0.0,-0.0,-0.0,-0.0,-0.0,-0.0,-0.0,-0.0112,-0.0112,-0.2349,-0.3692,-0.3692,-0.3692,-0.4817,-0.7195,-0.7187,-0.7274,-0.7238,-0.9254,-0.9396,-0.7976,-0.773,-0.7504,-0.7179,-0.7163,-0.7154,-0.7154,-0.7154,-0.7154,-0.7265,-0.7493,-0.7607,-0.7607,-0.7934,-0.8045,-0.8045,-0.8045,-0.8045,-0.8592,-1.1433,-1.2417,-1.2417,-1.2417,-1.2417,-1.2417,-1.2417,-1.2417,-1.2417,-1.2417,-1.1542,-1.0672,-1.0672,-0.9805,-0.8937,-0.8937,-0.894,-0.894,-0.894,-0.894,-0.9265,-1.0457,-0.9699,-0.9261,-1.0014,-1.0233,-0.9794,-0.8595,-1.1529,-1.2403,-0.9265,-1.1004,-1.1442,-0.9154,-1.1114,-1.296,-1.4164,-1.5244,-1.5891,-1.5891,-1.5891,-1.5891,-1.5891,-1.5891,-1.5998,-1.6324,-1.5998,-1.6524,-1.7687,-1.8715,-1.9642,-2.0585,-2.1081,-2.1591,-2.219,-2.302,-2.3637,-2.4053,-2.2929,-2.1912,-2.0783,-1.9642,-1.8506,-1.7582,0.6596,0.6824,0.7163,0.7157,0.7154,0.7157,0.7163,0.7163,0.7168,0.7184,0.6505,0.5717,0.5046,0.2015,-0.0,-0.0,-0.0,-0.0,-0.0,-0.0,-0.0,-0.0,-0.0784,-0.112,-0.112,-0.1119,-0.2351,-0.4711,-0.4706,-0.4698,-0.4803,-0.5361,-0.627,-0.7418,-0.5599,-0.5712,-0.7192,-0.7184,-0.7182,-0.7182,-0.7182,-0.7179,-0.7173,-0.7287,-0.7279,-0.7379,-0.7379,-0.7487,-0.749,-0.7715,-0.7715,-0.7934,-0.903,-0.9357,-0.9357,-0.9357,-0.9578,-0.9688,-0.9688,-0.9911,-1.0025,-1.0025,-0.9699,-0.9482,-0.9482,-0.9154,-0.894,-0.894,-0.894,-0.894,-0.894,-0.894,-0.8937,-0.9144,-0.8927,-0.8598,-0.8702,-0.8702,-0.8592,-0.8156,-0.9354,-0.9794,-0.8709,-1.0237,-1.0891,-1.0131,-1.2309,-1.3403,-1.2965,-1.4804,-1.5891,-1.5891,-1.5891,-1.5891,-1.5891,-1.5891,-1.5891,-1.5998,-1.5891,-1.6736,-1.8213,-1.852,-1.9346,-2.0483,-2.0055,-2.0143,-2.0649,-2.0955,-2.1159,-2.1363,-2.1159,-2.0451,-1.9443,-1.9228,-1.8506,-1.7582,0.7154,0.7154,0.7154,0.7154,0.7154,0.7154,0.7154,0.7268,0.7271,0.7171,0.7393,0.751,0.741,0.47,0.246,0.1456,0.056,-0.0,-0.0,-0.0,-0.0,-0.0,-0.0,-0.0,-0.0,-0.0,-0.0784,-0.2241,-0.224,-0.2239,-0.2239,-0.2238,-0.3023,-0.4485,-0.3918,-0.3918,-0.4596,-0.5495,-0.5833,-0.5833,-0.5833,-0.583,-0.594,-0.6847,-0.7182,-0.7171,-0.7171,-0.7171,-0.7282,-0.7396,-0.7396,-0.751,-0.7616,-0.7727,-0.7727,-0.7937,-0.8156,-0.8266,-0.8266,-0.838,-0.8605,-0.8605,-0.8605,-0.8605,-0.8605,-0.8605,-0.8605,-0.8605,-0.8605,-0.8605,-0.8605,-0.8605,-0.8491,-0.8377,-0.8266,-0.8156,-0.7937,-0.7826,-0.7826,-0.7826,-0.8371,-0.8699,-0.8374,-1.0014,-1.1,-1.0562,-1.2748,-1.384,-1.3073,-1.4911,-1.5891,-1.5891,-1.5891,-1.5891,-1.5891,-1.5891,-1.5891,-1.5891,-1.6205,-1.6942,-1.7996,-1.7996,-1.8408,-1.9228,-1.8708,-1.87,-1.9317,-1.9524,-1.9826,-2.0033,-1.9716,-1.9324,-1.8722,-1.8513,-1.8101,-1.7582,0.7154,0.7154,0.7154,0.7265,0.7265,0.7265,0.7265,0.749,0.7493,0.7265,0.7712,0.794,0.7844,0.7838,0.6712,0.4139,0.1901,0.0448,0.0336,0.0336,0.0224,0.0112,-0.0,-0.0,-0.0,-0.0,-0.0,-0.0,-0.0,-0.0,-0.0,-0.0,-0.0,-0.0112,-0.2351,-0.2125,-0.0112,-0.2349,-0.3357,-0.3357,-0.3357,-0.3357,-0.358,-0.5835,-0.6852,-0.6966,-0.6966,-0.6966,-0.6966,-0.6966,-0.6966,-0.6966,-0.6966,-0.6966,-0.7075,-0.7721,-0.7937,-0.7937,-0.7937,-0.7937,-0.8048,-0.8048,-0.8048,-0.8048,-0.7934,-0.7934,-0.7934,-0.8045,-0.8045,-0.8045,-0.8045,-0.8045,-0.8045,-0.7934,-0.7934,-0.7826,-0.7607,-0.7607,-0.7607,-0.7607,-0.8472,-0.891,-0.8042,-1.0343,-1.1433,-1.0453,-1.2635,-1.4169,-1.4277,-1.5351,-1.5891,-1.5891,-1.5891,-1.5891,-1.5891,-1.5891,-1.5891,-1.5891,-1.6723,-1.7147,-1.7252,-1.7147,-1.7147,-1.7252,-1.7147,-1.7358,-1.7877,-1.8708,-1.9317,-1.962,-1.8589,-1.8394,-1.8513,-1.7483,-1.7272,-1.7582,0.7154,0.7154,0.7265,0.7493,0.7493,0.7604,0.7823,0.7823,0.7934,0.7823,0.7934,0.7934,0.794,0.7937,0.7712,0.7038,0.6381,0.5375,0.3576,0.3465,0.2571,0.0783,0.0224,-0.0,-0.0,-0.0,-0.0,-0.0,-0.0,-0.0,-0.0,-0.0,-0.0,-0.0,-0.056,-0.056,-0.0,-0.056,-0.0896,-0.0896,-0.0896,-0.0896,-0.0895,-0.1455,-0.2798,-0.4479,-0.4479,-0.4479,-0.4479,-0.4479,-0.4479,-0.4479,-0.4479,-0.4479,-0.4817,-0.6842,-0.7404,-0.7399,-0.7399,-0.7739,-0.797,-0.797,-0.797,-0.7964,-0.7835,-0.7832,-0.7829,-0.7934,-0.8045,-0.8045,-0.8045,-0.8045,-0.7934,-0.7715,-0.7718,-0.7604,-0.7379,-0.7268,-0.7268,-0.7268,-0.7709,-0.7934,-0.7715,-0.914,-1.0453,-1.1542,-1.2743,-1.4051,-1.5458,-1.5779,-1.5891,-1.5891,-1.5891,-1.5891,-1.5891,-1.5891,-1.5891,-1.5891,-1.6099,-1.6518,-1.7147,-1.6518,-1.6518,-1.7147,-1.6518,-1.6311,-1.6411,-1.6617,-1.6723,-1.6823,-1.6836,-1.6842,-1.6842,-1.6842,-1.6842,-1.6942,0.7379,0.749,0.7601,0.7715,0.7826,0.7826,0.7934,0.8156,0.8156,0.8045,0.8266,0.8377,0.8263,0.8377,0.838,0.838,0.8291,0.7624,0.6376,0.6383,0.5938,0.4589,0.324,0.2347,0.2014,0.1007,0.0448,0.0449,0.0449,0.0449,0.0449,0.0449,0.0224,-0.0,0.0336,0.0224,-0.0,-0.0,-0.0,-0.0,-0.0,-0.0,-0.0,-0.0,-0.0784,-0.1903,-0.1903,-0.1903,-0.1903,-0.1903,-0.1903,-0.2127,-0.3249,-0.3587,-0.3811,-0.5164,-0.5609,-0.5601,-0.5601,-0.5714,-0.5942,-0.5942,-0.5942,-0.594,-0.5929,-0.672,-0.7513,-0.7616,-0.7613,-0.761,-0.7601,-0.7601,-0.7601,-0.749,-0.7382,-0.7379,-0.7265,-0.7154,-0.7154,-0.7154,-0.7379,-0.7382,-0.7382,-0.903,-1.0343,-1.1324,-1.2856,-1.4164,-1.503,-1.5137,-1.5351,-1.5885,-1.5891,-1.5891,-1.5891,-1.5891,-1.5785,-1.5464,-1.5785,-1.6099,-1.6624,-1.6099,-1.6205,-1.6624,-1.6099,-1.5891,-1.5891,-1.5891,-1.5891,-1.5891,-1.6105,-1.6217,-1.6324,-1.6424,-1.663,-1.673,0.8152,0.8371,0.8589,0.8592,0.8592,0.8592,0.8702,0.8923,0.8923,0.8484,0.8819,0.9044,0.8595,0.8712,0.894,0.894,0.8615,0.8399,0.8399,0.8759,0.8772,0.866,0.6951,0.5592,0.4806,0.268,0.1566,0.1569,0.1569,0.1345,0.1009,0.1009,0.0785,0.0336,0.0673,0.0673,0.0224,0.0224,0.0112,0.0112,0.0112,0.0112,-0.0,-0.0,-0.0,-0.0,-0.0,-0.0,-0.0,-0.0,-0.0,-0.0336,-0.2357,-0.3031,-0.3031,-0.3031,-0.3026,-0.3022,-0.3022,-0.3022,-0.3022,-0.3022,-0.3022,-0.3022,-0.3021,-0.4594,-0.6175,-0.6616,-0.6956,-0.7179,-0.7163,-0.7157,-0.7154,-0.7154,-0.7154,-0.7154,-0.7154,-0.7154,-0.7154,-0.7154,-0.7154,-0.7154,-0.7154,-0.9244,-1.0562,-1.0672,-1.2748,-1.4062,-1.4169,-1.4169,-1.46,-1.5565,-1.5678,-1.5678,-1.5678,-1.5678,-1.5464,-1.5041,-1.5571,-1.5785,-1.5891,-1.5891,-1.5891,-1.5891,-1.5891,-1.5891,-1.5891,-1.5891,-1.5891,-1.5891,-1.5891,-1.5998,-1.6217,-1.6217,-1.6424,-1.6624,1.087,1.0979,1.1093,1.1324,1.1324,1.1433,1.1651,1.176,1.1433,1.0453,1.0343,1.0021,0.8933,0.8826,0.894,0.894,0.883,0.883,0.883,0.8836,0.839,0.7385,0.7955,0.773,0.6265,0.5256,0.4698,0.47,0.47,0.3691,0.1677,0.1677,0.1567,0.1458,0.1121,0.1121,0.1458,0.1009,0.0785,0.0785,0.0785,0.0449,-0.0,-0.0,-0.0,-0.0,-0.0,-0.0,-0.0,-0.0,-0.0,-0.0112,-0.0449,-0.0561,-0.0561,-0.0561,-0.0561,-0.056,-0.056,-0.056,-0.056,-0.056,-0.056,-0.056,-0.056,-0.0895,-0.1678,-0.3692,-0.5826,-0.7182,-0.7179,-0.7165,-0.7154,-0.7154,-0.7154,-0.7154,-0.7154,-0.7154,-0.7154,-0.7154,-0.7154,-0.7154,-0.7154,-0.8916,-1.0123,-1.0672,-1.2432,-1.3635,-1.4169,-1.4169,-1.4277,-1.4487,-1.4487,-1.4487,-1.4487,-1.4487,-1.46,-1.5041,-1.5035,-1.5464,-1.5891,-1.5891,-1.5891,-1.5891,-1.5891,-1.5891,-1.5891,-1.5891,-1.5891,-1.5891,-1.5891,-1.5891,-1.5998,-1.5998,-1.5998,-1.6105,1.1751,1.186,1.2082,1.22,1.22,1.2309,1.2413,1.2417,1.2195,1.1651,1.1109,1.0457,0.9915,0.9265,0.894,0.894,0.894,0.894,0.894,0.894,0.8605,0.8045,0.8611,0.8279,0.6932,0.6485,0.6038,0.5365,0.5365,0.4804,0.3685,0.3685,0.3463,0.313,0.3243,0.2796,0.1791,0.1455,0.1344,0.1346,0.1346,0.1234,0.0897,0.0561,0.0336,-0.0,0.0336,0.0224,-0.0,-0.0,-0.0,-0.0,-0.0,-0.0,-0.0,-0.0,-0.0,-0.0,-0.0,-0.0,-0.0,-0.0,-0.0,-0.0,-0.0,-0.0,-0.0336,-0.1454,-0.2573,-0.414,-0.6728,-0.7176,-0.7165,-0.7157,-0.7154,-0.7154,-0.7154,-0.7154,-0.7154,-0.7154,-0.7154,-0.7154,-0.7154,-0.8806,-0.9904,-1.0233,-1.1778,-1.2985,-1.3197,-1.3197,-1.3197,-1.3197,-1.384,-1.4062,-1.3743,-1.4062,-1.4169,-1.4072,-1.4719,-1.5143,-1.5464,-1.5785,-1.5891,-1.5891,-1.5891,-1.5891,-1.5891,-1.5891,-1.5891,-1.5891,-1.5891,-1.5891,-1.5891,-1.5891,-1.5891,-1.5891,1.296,1.3068,1.3176,1.3176,1.3176,1.3176,1.3176,1.3176,1.3068,1.2852,1.2091,1.1437,1.1109,1.0241,0.9592,0.9372,0.9372,0.9154,0.8937,0.894,0.894,0.894,0.894,0.8491,0.7487,0.7487,0.7038,0.6253,0.6253,0.6031,0.5808,0.5808,0.5359,0.4462,0.5135,0.4355,0.268,0.268,0.2683,0.2689,0.2689,0.2576,0.2353,0.1792,0.112,0.0448,0.0784,0.0672,0.0449,0.0224,0.0112,-0.0,-0.0,-0.0,-0.0,-0.0,-0.0,-0.0,-0.0,-0.0,-0.0,-0.0,-0.0,-0.0,-0.0,-0.0,-0.0,-0.0,-0.0,-0.1342,-0.5601,-0.6842,-0.7176,-0.7157,-0.7154,-0.7154,-0.7154,-0.7154,-0.7154,-0.7154,-0.7154,-0.7154,-0.7154,-0.8806,-0.9798,-0.9798,-1.1446,-1.2441,-1.2441,-1.2441,-1.2441,-1.2441,-1.3305,-1.3521,-1.3098,-1.3521,-1.3635,-1.3315,-1.418,-1.4719,-1.5035,-1.5464,-1.5785,-1.5891,-1.5891,-1.5891,-1.5891,-1.5891,-1.5891,-1.5891,-1.5891,-1.5891,-1.5891,-1.5891,-1.5891,-1.5891,1.5565,1.5672,1.5672,1.5672,1.5672,1.5672,1.5672,1.5672,1.5244,1.4164,1.3948,1.3511,1.2417,1.22,1.1764,1.0676,1.0566,1.0131,0.8937,0.894,0.894,0.894,0.894,0.8826,0.8716,0.8716,0.8716,0.8602,0.8602,0.8045,0.693,0.693,0.6369,0.5359,0.5361,0.525,0.5137,0.5137,0.5137,0.5139,0.5139,0.4689,0.4016,0.4016,0.3014,0.1564,0.1118,0.1231,0.157,0.1009,0.0449,-0.0,-0.0,-0.0,-0.0,-0.0,-0.0,-0.0,-0.0,-0.0,-0.0,-0.0,-0.0,-0.0,-0.0,-0.0,-0.0,-0.0,-0.0,-0.0783,-0.3357,-0.5714,-0.7176,-0.7157,-0.7154,-0.7154,-0.7154,-0.7154,-0.7154,-0.7154,-0.7154,-0.7154,-0.7154,-0.8806,-0.9798,-0.9798,-1.1446,-1.2441,-1.2441,-1.2441,-1.2441,-1.2441,-1.2441,-1.2545,-1.2441,-1.2545,-1.2767,-1.3315,-1.3423,-1.3964,-1.5041,-1.5035,-1.5357,-1.5891,-1.5891,-1.5891,-1.5891,-1.5891,-1.5891,-1.5891,-1.5891,-1.5891,-1.5891,-1.5891,-1.5891,-1.5891,1.5891,1.5891,1.5891,1.5891,1.5891,1.5891,1.5891,1.5891,1.5785,1.5351,1.46,1.4056,1.3619,1.2852,1.22,1.176,1.176,1.1546,1.1114,1.046,0.9699,0.8937,0.894,0.894,0.894,0.894,0.894,0.894,0.894,0.8716,0.8269,0.8269,0.7931,0.7593,0.7593,0.7149,0.648,0.648,0.6031,0.5361,0.5361,0.5248,0.491,0.491,0.4914,0.4693,0.3908,0.3801,0.3918,0.3242,0.313,0.3244,0.2908,0.2796,0.2461,0.1007,0.0559,0.0448,0.0112,-0.0,-0.0,-0.0,-0.0,-0.0,-0.0,-0.0,-0.0,-0.0,-0.0,-0.0336,-0.1231,-0.4592,-0.7187,-0.7173,-0.7163,-0.7154,-0.7154,-0.7154,-0.7154,-0.7154,-0.7154,-0.7154,-0.7154,-0.826,-0.9034,-0.9034,-1.0127,-1.0785,-1.0785,-1.1341,-1.1891,-1.2327,-1.2441,-1.2441,-1.2441,-1.2441,-1.255,-1.2767,-1.3098,-1.3743,-1.4493,-1.4821,-1.5357,-1.5891,-1.5891,-1.5891,-1.5891,-1.5891,-1.5891,-1.5891,-1.5891,-1.5891,-1.5891,-1.5891,-1.5891,-1.5891,1.5891,1.5891,1.5891,1.5891,1.5891,1.5891,1.5891,1.5891,1.5891,1.5891,1.5244,1.4702,1.4702,1.3938,1.3393,1.2965,1.296,1.2852,1.2413,1.1651,1.0566,0.8937,0.894,0.894,0.894,0.894,0.894,0.894,0.894,0.894,0.894,0.894,0.894,0.894,0.894,0.8491,0.7709,0.7709,0.726,0.6478,0.6478,0.6478,0.6478,0.6478,0.6591,0.671,0.6144,0.5699,0.5365,0.4801,0.5139,0.5706,0.5256,0.5481,0.5596,0.3914,0.2346,0.1118,0.0672,0.0448,0.0224,-0.0,-0.0,-0.0,-0.0,-0.0,-0.0,-0.0,-0.0,-0.0,-0.0,-0.336,-0.6284,-0.707,-0.7168,-0.7154,-0.7154,-0.7154,-0.7154,-0.7154,-0.7154,-0.7154,-0.7154,-0.8042,-0.8484,-0.8484,-0.9361,-0.9908,-1.0241,-1.0794,-1.1455,-1.2332,-1.2441,-1.2441,-1.2441,-1.2441,-1.2441,-1.2441,-1.2767,-1.331,-1.3954,-1.4283,-1.4928,-1.5571,-1.5571,-1.5678,-1.5891,-1.5891,-1.5891,-1.5891,-1.5891,-1.5891,-1.5891,-1.5891,-1.5891,-1.5891,1.5891,1.5891,1.5891,1.5891,1.5891,1.5891,1.5891,1.5891,1.5891,1.5891,1.5891,1.5891,1.5891,1.5891,1.5458,1.4277,1.4169,1.3727,1.2526,1.2417,1.1328,0.9047,0.8937,0.894,0.894,0.894,0.894,0.894,0.894,0.894,0.894,0.894,0.894,0.894,0.894,0.894,0.894,0.894,0.894,0.894,0.894,0.894,0.894,0.894,0.8156,0.7152,0.7152,0.6369,0.5472,0.5472,0.5924,0.6601,0.6601,0.763,0.8897,0.8897,0.5489,0.1788,0.1788,0.1343,0.0785,0.0112,-0.0,-0.0,-0.0,-0.0,-0.0,-0.0,-0.0,-0.0,-0.0,-0.2014,-0.4365,-0.6842,-0.7168,-0.7154,-0.7154,-0.7154,-0.7154,-0.7154,-0.7154,-0.7154,-0.7154,-0.7931,-0.8484,-0.8484,-0.9251,-1.0131,-1.1017,-1.1126,-1.1455,-1.2332,-1.2441,-1.2441,-1.2441,-1.2441,-1.2441,-1.2441,-1.2441,-1.2767,-1.3315,-1.3315,-1.3964,-1.5035,-1.5035,-1.5357,-1.5891,-1.5891,-1.5891,-1.5891,-1.5891,-1.5891,-1.5891,-1.5891,-1.5891,-1.5672,1.5891,1.5891,1.5891,1.5891,1.5891,1.5891,1.5891,1.5891,1.5891,1.5891,1.5891,1.5891,1.5891,1.5891,1.5779,1.5458,1.5351,1.4917,1.3727,1.3619,1.2965,1.1437,1.0566,1.0131,1.0131,0.9372,0.894,0.894,0.894,0.894,0.894,0.894,0.894,0.894,0.894,0.894,0.894,0.894,0.894,0.894,0.894,0.894,0.894,0.894,0.8716,0.838,0.838,0.8156,0.7817,0.7817,0.8045,0.8159,0.8159,0.8501,0.8735,0.7841,0.6599,0.5025,0.2457,0.1677,0.1343,0.0785,0.0673,0.0561,0.0112,-0.0,-0.0,-0.0,-0.0,-0.0,-0.0,-0.2014,-0.4367,-0.685,-0.7171,-0.7154,-0.7154,-0.7154,-0.7154,-0.7154,-0.7154,-0.7154,-0.7154,-0.7487,-0.7598,-0.7598,-0.7817,-0.8367,-0.9254,-0.9801,-1.057,-1.1455,-1.211,-1.2441,-1.2441,-1.2441,-1.2441,-1.2441,-1.2441,-1.2767,-1.3315,-1.3315,-1.3743,-1.4493,-1.4493,-1.4708,-1.525,-1.525,-1.5571,-1.5891,-1.5891,-1.5891,-1.5891,-1.5891,-1.5351,-1.4708,1.5891,1.5891,1.5891,1.5891,1.5891,1.5891,1.5891,1.5998,1.5998,1.5891,1.6099,1.6205,1.6105,1.6105,1.6105,1.6105,1.5998,1.5571,1.4922,1.4922,1.4589,1.3825,1.2743,1.1873,1.1324,1.068,1.0245,1.0245,0.9809,0.9588,0.9588,0.9158,0.894,0.894,0.894,0.894,0.894,0.894,0.894,0.894,0.894,0.894,0.894,0.894,0.894,0.894,0.894,0.894,0.894,0.894,0.894,0.894,0.894,0.894,0.8716,0.8045,0.7487,0.6594,0.4467,0.3574,0.3016,0.2127,0.1569,0.1121,0.0785,0.0561,0.0336,0.0336,0.0336,0.0336,-0.0,-0.1792,-0.4143,-0.674,-0.7179,-0.7163,-0.7157,-0.7154,-0.7154,-0.7154,-0.7154,-0.7154,-0.7154,-0.7154,-0.7154,-0.7154,-0.7154,-0.7598,-0.8484,-0.903,-0.9801,-1.1017,-1.1564,-1.2001,-1.2441,-1.211,-1.211,-1.2441,-1.2441,-1.255,-1.2985,-1.2985,-1.331,-1.3851,-1.3851,-1.4175,-1.4713,-1.4713,-1.5035,-1.5571,-1.5571,-1.5678,-1.5891,-1.5351,-1.4815,-1.4056,1.5992,1.5992,1.5992,1.5992,1.5992,1.5992,1.5992,1.6211,1.6211,1.5998,1.6418,1.663,1.6324,1.6324,1.6324,1.6324,1.5998,1.5891,1.5891,1.5891,1.5891,1.5891,1.4922,1.3835,1.2738,1.2521,1.2417,1.2417,1.1324,1.0781,1.0672,0.9588,0.9047,0.894,0.894,0.894,0.894,0.894,0.894,0.894,0.894,0.894,0.894,0.894,0.894,0.894,0.894,0.894,0.894,0.894,0.894,0.894,0.894,0.894,0.894,0.894,0.8156,0.7263,0.7154,0.6366,0.525,0.3916,0.28,0.1907,0.1795,0.1346,0.1009,0.1009,0.1009,0.0785,0.0224,-0.1345,-0.3474,-0.6403,-0.6961,-0.7062,-0.7157,-0.7154,-0.7154,-0.7154,-0.7154,-0.7154,-0.7154,-0.7154,-0.7154,-0.7154,-0.7154,-0.7598,-0.8374,-0.8484,-0.9254,-1.0798,-1.0907,-1.1345,-1.211,-1.1345,-1.1455,-1.2332,-1.2219,-1.2219,-1.2332,-1.2332,-1.2659,-1.3207,-1.3207,-1.3527,-1.4169,-1.4169,-1.4493,-1.4928,-1.4821,-1.525,-1.5678,-1.4487,-1.4056,-1.3727,1.6524,1.6524,1.6524,1.6524,1.6524,1.6524,1.6524,1.663,1.663,1.6518,1.6624,1.673,1.663,1.6424,1.6324,1.6324,1.5998,1.5998,1.6217,1.5998,1.5891,1.5891,1.5672,1.5458,1.5125,1.3393,1.2417,1.2417,1.22,1.1542,1.0672,1.0457,0.9805,0.894,0.894,0.894,0.894,0.894,0.894,0.894,0.894,0.894,0.894,0.894,0.894,0.894,0.894,0.894,0.894,0.894,0.894,0.894,0.894,0.894,0.894,0.894,0.8716,0.8269,0.7376,0.693,0.6258,0.4137,0.3357,0.2911,0.2019,0.1683,0.157,0.157,0.157,0.157,0.1458,-0.0224,-0.2239,-0.448,-0.515,-0.5817,-0.7043,-0.7154,-0.7154,-0.7154,-0.7154,-0.7154,-0.7154,-0.7154,-0.7154,-0.7154,-0.7154,-0.7265,-0.7487,-0.8152,-0.8706,-0.9034,-0.9691,-1.0127,-1.0347,-1.0127,-1.057,-1.1345,-1.068,-1.068,-1.1345,-1.1345,-1.1782,-1.255,-1.255,-1.2985,-1.3527,-1.3527,-1.3851,-1.4277,-1.3835,-1.4272,-1.5035,-1.3398,-1.2743,-1.2417,1.673,1.673,1.673,1.673,1.673,1.673,1.673,1.6842,1.6842,1.673,1.6942,1.7054,1.6955,1.6849,1.6643,1.653,1.6311,1.6311,1.653,1.6311,1.6311,1.6311,1.6311,1.6311,1.6311,1.5114,1.4358,1.404,1.3506,1.2965,1.2309,1.1764,1.1219,1.057,1.0025,0.9805,0.9699,0.9154,0.894,0.894,0.894,0.894,0.894,0.894,0.894,0.894,0.894,0.894,0.894,0.894,0.894,0.894,0.894,0.894,0.894,0.894,0.894,0.8716,0.8159,0.7934,0.7374,0.5027,0.447,0.4026,0.2242,0.1795,0.1795,0.1795,0.1795,0.1795,0.1795,0.0897,-0.056,-0.3248,-0.4142,-0.5033,-0.6596,-0.7043,-0.7154,-0.7154,-0.7154,-0.7154,-0.7154,-0.7154,-0.7154,-0.7154,-0.7154,-0.7154,-0.7154,-0.7598,-0.8042,-0.8484,-0.8923,-0.9361,-0.9798,-0.9361,-0.9364,-0.9805,-0.9798,-1.0017,-1.0464,-1.0464,-1.1013,-1.1782,-1.1782,-1.2001,-1.2332,-1.2659,-1.2758,-1.2526,-1.2753,-1.3186,-1.3398,-1.2091,-1.1219,-1.057,1.6836,1.6836,1.6836,1.6836,1.6836,1.6836,1.6836,1.706,1.7173,1.6836,1.7259,1.7483,1.7279,1.7179,1.7067,1.6842,1.673,1.673,1.673,1.673,1.673,1.673,1.673,1.673,1.673,1.673,1.6518,1.5992,1.503,1.4487,1.4272,1.3181,1.2635,1.2309,1.1433,1.0891,1.0672,0.9588,0.9047,0.894,0.894,0.894,0.894,0.894,0.894,0.894,0.894,0.894,0.894,0.894,0.894,0.894,0.894,0.894,0.894,0.894,0.894,0.894,0.894,0.894,0.838,0.6255,0.5584,0.4804,0.2576,0.1907,0.1795,0.1795,0.1795,0.1795,0.1795,0.1795,0.0897,-0.2128,-0.3246,-0.4252,-0.5704,-0.6596,-0.7043,-0.7043,-0.7154,-0.7154,-0.7154,-0.7154,-0.7154,-0.7154,-0.7154,-0.7154,-0.7154,-0.7154,-0.7487,-0.8263,-0.8263,-0.8592,-0.9357,-0.8592,-0.8263,-0.8263,-0.903,-0.9467,-0.9578,-0.9578,-1.0021,-1.0903,-1.0903,-1.0903,-1.0903,-1.1669,-1.1446,-1.0672,-1.1446,-1.1773,-1.1651,-1.0891,-0.9915,-0.894,1.7477,1.7477,1.7477,1.7477,1.7477,1.7477,1.7477,1.7477,1.7477,1.7477,1.7582,1.7582,1.7589,1.7384,1.7173,1.7173,1.6849,1.6842,1.7067,1.6842,1.673,1.673,1.673,1.673,1.673,1.673,1.6624,1.6624,1.6211,1.5559,1.4578,1.4159,1.3403,1.2413,1.22,1.1651,1.0672,1.0566,0.9805,0.894,0.894,0.894,0.894,0.894,0.894,0.894,0.894,0.894,0.894,0.894,0.894,0.894,0.894,0.894,0.894,0.894,0.894,0.894,0.894,0.894,0.8602,0.7263,0.6144,0.5027,0.3692,0.2577,0.1795,0.1795,0.1795,0.1795,0.1795,0.1795,0.1233,-0.0448,-0.1567,-0.2686,-0.414,-0.5481,-0.6374,-0.6374,-0.6932,-0.7154,-0.7154,-0.7154,-0.7154,-0.7154,-0.7154,-0.7154,-0.7154,-0.7154,-0.7265,-0.7376,-0.7376,-0.7487,-0.7595,-0.7487,-0.7376,-0.7376,-0.7487,-0.7928,-0.8706,-0.8706,-0.914,-1.0017,-1.0017,-1.0017,-1.0017,-1.0127,-1.0017,-0.9908,-0.9471,-1.0017,-1.0781,-1.0453,-0.9695,-0.894,1.9443,1.9443,1.9235,1.861,1.8506,1.8304,1.7687,1.7582,1.7582,1.7582,1.7582,1.7582,1.7582,1.7483,1.7378,1.7378,1.7265,1.7265,1.7378,1.7265,1.7153,1.7153,1.7153,1.7153,1.7153,1.7153,1.7153,1.7153,1.6736,1.6305,1.5761,1.5452,1.5131,1.4583,1.3727,1.3181,1.2635,1.1978,1.1,0.9915,0.9915,0.9478,0.894,0.894,0.894,0.894,0.894,0.894,0.894,0.894,0.894,0.894,0.894,0.894,0.894,0.894,0.894,0.894,0.894,0.894,0.8605,0.7376,0.6255,0.5139,0.3914,0.2688,0.1795,0.1795,0.1795,0.1795,0.1795,0.1795,0.1458,0.0224,-0.1008,-0.2239,-0.3357,-0.481,-0.5929,-0.6262,-0.6818,-0.7154,-0.7154,-0.7154,-0.7154,-0.7154,-0.7154,-0.7154,-0.7154,-0.7154,-0.7154,-0.7154,-0.7154,-0.7154,-0.7154,-0.7154,-0.7154,-0.7154,-0.7154,-0.7376,-0.782,-0.782,-0.826,-0.9034,-0.9034,-0.9034,-0.914,-0.9578,-0.9247,-0.8367,-0.8809,-0.903,-0.914,-0.903,-0.8706,-0.838]},{"header":{"parameterUnit":"m.s-1","parameterCategory":1,"la1":30.6,"la2":28.766,"lo1":-90.7593,"lo2":-88.6598,"dy":0.0162,"dx":0.0183,"nx":116,"ny":114,"refTime":"2023-10-09T00:00:00:Z","depth":0,"parameterNumber":3,"parameterNumberName":"V-component_of_WINDS"},"data":[0.0,0.0,0.0,0.0,0.0,0.0,0.0,0.0,0.0,0.0,0.0,0.0,0.0,0.0,0.0,0.0,0.0,0.0,0.0,0.0,0.0,0.0,0.0,0.0,0.0,0.0,0.0,0.0,0.0,0.0,0.0,0.0,0.0,0.0,0.0,0.0,0.0,0.0,0.0,0.0,0.0,0.0,0.0,0.0,0.0,0.0,0.0,0.0,0.0,0.0,0.0,0.0,0.0,0.0,0.0,0.0,0.0,0.0,0.0,0.0,0.0,0.0,0.0,0.0,0.0,0.0,0.0,0.0,0.0,0.0,0.0,0.0,0.0,0.0,0.0,0.0,0.0,0.0,0.0,0.0,0.0,0.0,0.0,0.0,0.0,0.0,0.0,0.0,0.0,0.0,0.0,0.0,0.0,0.0,0.0,0.0,0.0,0.0,0.0,0.0,0.0,0.0,0.0,0.0,0.0,0.0,0.0,0.0,0.0,0.0,0.0,0.0,0.0,0.0,0.0,0.0,0.0,0.0,0.0,0.0,0.0,0.0,0.0,0.0,0.0,0.0,0.0,0.0,0.0,0.0,0.0,0.0,0.0,0.0,0.0,0.0,0.0,0.0,0.0,0.0,0.0,0.0,0.0,0.0,0.0,0.0,0.0,0.0,0.0,0.0,0.0,0.0,0.0,0.0,0.0,0.0,0.0,0.0,0.0,0.0,0.0,0.0,0.0,0.0,0.0,0.0,0.0,0.0,0.0,0.0,0.0,0.0,0.0,0.0,0.0,0.0,0.0,0.0,0.0,0.0,0.0,0.0,0.0,0.0,0.0,0.0,0.0,0.0,0.0,0.0,0.0,0.0,0.0,0.0,0.0,0.0,0.0,0.0,0.0,0.0,0.0,0.0,0.0,0.0,0.0,0.0,0.0,0.0,0.0,0.0,0.0,0.0,0.0,0.0,0.0,0.0,0.0,0.0,0.0,0.0,0.0,0.0,0.0,0.0,0.0,0.0,0.0,0.0,0.0,0.0,0.0,0.0,0.0,0.0,0.0,0.0,0.0,0.0,0.0,0.0,0.0,0.0,0.0,0.0,0.0,0.0,0.0,0.0,0.0,0.0,0.0,0.0,0.0,0.0,0.0,0.0,0.0,0.0,0.0,0.0,0.0,0.0,0.0,0.0,0.0,0.0,0.0,0.0,0.0,0.0,0.0,0.0,0.0,0.0,0.0,0.0,0.0,0.0,0.0,0.0,0.0,0.0,0.0,0.0,0.0,0.0,0.0,0.0,0.0,0.0,0.0,0.0,0.0,0.0,0.0,0.0,0.0,0.0,0.0,0.0,0.0,0.0,0.0,0.0,0.0,0.0,0.0,0.0,0.0,0.0,0.0,0.0,0.0,0.0,0.0,0.0,0.0,0.0,0.0,0.0,0.0,0.0,0.0,0.0,0.0,0.0,0.0,0.0,0.0,0.0,0.0,0.0,0.0,0.0,0.0,0.0,0.0,0.0,0.0,0.0,0.0,0.0,0.0,0.0,0.0,0.0,0.0,0.0,0.0,0.0,0.0,0.0,0.0,0.0,0.0,0.0,0.0,0.0,0.0,0.0,0.0,0.0,0.0,0.0,0.0,0.0,0.0,0.0,0.0,0.0,0.0,0.0,0.0,0.0,0.0,0.0,0.0,0.0,0.0,0.0,0.0,0.0,0.0,0.0,0.0,0.0,0.0,0.0,0.0,0.0,0.0,0.0,0.0,0.0,0.0,0.0,0.0,0.0,0.0,0.0,0.0,0.0,0.0,0.0,0.0,0.0,0.0,0.0,0.0,0.0,0.0,0.0,0.0,0.0,0.0,0.0,0.0,0.0,0.0,0.0,0.0,0.0,0.0,0.0,0.0,0.0,0.0,0.0,0.0,0.0,0.0,0.0,0.0,0.0,0.0,0.0,0.0,0.0,0.0,0.0,0.0,0.0,0.0,0.0,0.0,0.0,0.0,0.0,0.0,0.0,0.0,0.0,0.0,0.0,0.0,0.0,0.0,0.0,0.0,0.0,0.0,0.0,0.0,0.0,0.0,0.0,0.0,0.0,0.0,0.0,0.0,0.0,0.0,0.0,0.0,0.0,0.0,0.0,0.0,0.0,0.0,0.0,0.0,0.0,0.0,0.0,0.0,0.0,0.0,0.0,0.0,0.0,0.0,0.0,0.0,0.0,0.0,0.0,0.0,0.0,0.0,0.0,0.0,0.0,0.0,0.0,0.0,0.0,0.0,0.0,0.0,0.0,0.0,0.0,0.0,0.0,0.0,0.0,0.0,0.0,0.0,0.0,0.0,0.0,0.0,0.0,0.0,0.0,0.0,0.0,0.0,0.0,0.0,0.0,0.0,0.0,0.0,0.0,0.0,0.0,0.0,0.0,0.0,0.0,0.0,0.0,0.0,0.0,0.0,0.0,0.0,0.0,0.0,0.0,0.0,0.0,0.0,0.0,0.0,0.0,0.0,0.0,0.0,0.0,0.0,0.0,0.0,0.0,0.0,0.0,0.0,0.0,0.0,0.0,0.0,0.0,0.0,0.0,0.0,0.0,0.0,0.0,0.0,0.0,0.0,0.0,0.0,0.0,0.0,0.0,0.0,0.0,0.0,0.0,0.0,0.0,0.0,0.0,0.0,0.0,0.0,0.0,0.0,0.0,0.0,0.0,0.0,0.0,0.0,0.0,0.0,0.0,0.0,0.0,0.0,0.0,0.0,0.0,0.0,0.0,0.0,0.0,0.0,0.0,0.0,0.0,0.0,0.0,0.0,0.0,0.0,0.0,0.0,0.0,0.0,0.0,0.0,0.0,0.0,0.0,0.0,0.0,0.0,0.0,0.0,0.0,0.0,0.0,0.0,0.0,0.0,0.0,0.0,0.0,0.0,0.0,0.0,0.0,0.0,0.0,0.0,0.0,0.0,0.0,0.0,0.0,0.0,0.0,0.0,0.0,0.0,0.0,0.0,0.0,0.0,0.0,0.0,0.0,0.0,0.0,0.0,0.0,0.0,0.0,0.0,0.0,0.0,0.0,0.0,0.0,0.0,0.0,0.0,0.0,0.0,0.0,0.0,0.0,0.0,0.0,0.0,0.0,0.0,0.0,0.0,0.0,0.0,0.0,0.0,0.0,0.0,0.0,0.0,0.0,0.0,0.0,0.0,0.0,0.0,0.0,0.0,0.0,0.0,0.0,0.0,0.0,0.0,0.0,0.0,0.0,0.0,0.0,0.0,0.0,0.0,0.0,0.0,0.0,0.0,0.0,0.0,0.0,0.0,0.0,0.0,0.0,0.0,0.0,0.0,0.0,0.0,0.0,0.0,0.0,0.0,0.0,0.0,0.0,0.0,0.0,0.0,0.0,0.0,0.0,0.0,0.0,0.0,0.0,0.0,0.0,0.0,0.0,0.0,0.0,0.0,0.0,0.0,0.0,0.0,0.0,0.0,0.0,0.0,0.0,0.0,0.0,0.0,0.0,0.0,0.0,0.0,0.0,0.0,0.0,0.0,0.0,0.0,0.0,0.0,0.0,0.0,0.0,0.0,0.0,0.0,0.0,0.0,0.0,0.0,0.0,0.0,0.0,0.0,0.0,0.0,0.0,0.0,0.0,0.0,0.0,0.0,0.0,0.0,0.0,0.0,0.0,0.0,0.0,0.0,0.0,0.0,0.0,0.0,0.0,0.0,0.0,0.0,0.0,0.0,0.0,0.0,0.0,0.0,0.0,0.0,0.0,0.0,0.0,0.0,0.0,0.0,0.0,0.0,0.0,0.0,0.0,0.0,0.0,0.0,0.0,0.0,0.0,0.0,0.0,0.0,0.0,0.0,0.0,0.0,0.0,0.0,0.0,0.0,0.0,0.0,0.0,0.0,0.0,0.0,0.0,0.0,0.0,0.0,0.0,0.0,0.0,0.0,0.0,0.0,0.0,0.0,0.0,0.0,0.0,0.0,0.0,0.0,0.0,0.0,0.0,0.0,0.0,0.0,0.0,0.0,0.0,0.0,0.0,0.0,0.0,0.0,0.0,0.0,0.0,0.0,0.0,0.0,0.0,0.0,0.0,0.0,0.0,0.0,0.0,0.0,0.0,0.0,0.0,0.0,0.0,0.0,0.0,0.0,0.0,0.0,0.0,0.0,0.0,0.0,0.0,0.0,0.0,0.0,0.0,0.0,0.0,0.0,0.0,0.0,0.0,0.0,0.0,0.0,0.0,0.0,0.0,0.0,0.0,0.0,0.0,0.0,0.0,0.0,0.0,0.0,0.0,0.0,0.0,0.0,0.0,0.0,0.0,0.0,0.0,0.0,0.0,0.0,0.0,0.0,0.0,0.0,0.0,0.0,0.0,0.0,0.0,0.0,0.0,0.0,0.0,0.0,0.0,0.0,0.0,0.0,0.0,0.0,0.0,0.0,0.0,0.0,0.0,0.0,0.0,0.0,0.0,0.0,0.0,0.0,0.0,0.0,0.0,0.0,0.0,0.0,0.0,0.0,0.0,0.0,0.0,0.0,0.0,0.0,0.0,0.0,0.0,0.0,0.0,0.0,0.0,0.0,0.0,0.0,0.0,0.0,0.0,0.0,0.0,0.0,0.0,0.0,0.0,0.0,0.0,0.0,0.0,0.0,0.0,0.0,0.0,0.0,0.0,0.0,0.0,0.0,0.0,0.0,0.0,0.0,0.0,0.0,0.0,0.0,0.0,0.0,0.0,0.0,0.0,0.0,0.0,0.0,0.0,0.0,0.0,0.0,0.0,0.0,0.0,0.0,0.0,0.0,0.0,0.0,0.0,0.0,0.0,0.0,0.0,0.0,0.0,0.0,0.0,0.0,0.0,0.0,0.0,0.0,0.0,0.0,0.0,0.0,0.0,0.0,0.0,0.0,0.0,0.0,0.0,0.0,0.0,0.0,0.0,0.0,0.0,0.0,0.0,0.0,0.0,0.0,0.0,0.0,0.0,0.0,0.0,0.0,0.0,0.0,0.0,0.0,0.0,0.0,0.0,0.0,0.0,0.0,0.0,0.0,0.0,0.0,0.0,0.0,0.0,0.0,0.0,0.0,0.0,0.0,0.0,0.0,0.0,0.0,0.0,0.0,0.0,0.0,0.0,0.0,0.0,0.0,0.0,0.0,0.0,0.0,0.0,0.0,0.0,0.0,0.0,0.0,0.0,0.0,0.0,0.0,0.0,0.0,0.0,0.0,0.0,0.0,0.0,0.0,0.0,0.0,0.0,0.0,0.0,0.0,0.0,0.0,0.0,0.0,0.0,0.0,0.0,0.0,0.0,0.0,0.0,0.0,0.0,0.0,0.0,0.0,0.0,0.0,0.0,0.0,0.0,0.0,0.0,0.0,0.0,0.0,0.0,0.0,0.0,0.0,0.0,0.0,0.0,0.0,0.0,0.0,0.0,0.0,0.0,0.0,0.0,0.0,0.0,0.0,0.0,0.0,0.0,0.0,0.0,0.0,0.0,0.0,0.0,0.0,0.0,0.0,0.0,0.0,0.0,0.0,0.0,0.0,0.0,0.0,0.0,0.0,0.0,0.0,0.0,0.0,0.0,0.0,0.0,0.0,0.0,0.0,0.0,0.0,0.0,0.0,0.0,0.0,0.0,0.0,0.0,0.0,0.0,0.0,0.0,0.0,0.0,0.0,0.0,0.0,0.0,0.0,0.0,0.0,0.0,0.0,0.0,0.0,0.0,0.0,0.0,0.0,0.0,0.0,0.0,0.0,0.0,0.0,0.0,0.0,0.0,0.0,0.0,0.0,0.0,0.0,0.0,0.0,0.0,0.0,0.0,0.0,0.0,0.0,0.0,0.0,0.0,0.0,0.0,0.0,0.0,0.0,0.0,0.0,0.0,0.0,0.0,0.0,0.0,0.0,0.0,0.0,0.0,0.0,0.0,0.0,0.0,0.0,0.0,0.0,0.0,0.0,0.0,0.0,0.0,0.0,0.0,0.0,0.0,0.0,0.0,0.0,0.0,0.0,0.0,0.0,0.0,0.0,0.0,0.0,0.0,0.0,0.0,0.0,0.0,0.0,0.0,0.0,0.0,0.0,0.0,0.0,0.0,0.0,0.0,0.0,0.0,0.0,0.0,-3.8317,-3.79,0.0,0.0,0.0,0.0,0.0,0.0,0.0,0.0,0.0,0.0,0.0,0.0,0.0,0.0,0.0,0.0,0.0,0.0,0.0,0.0,0.0,0.0,0.0,0.0,0.0,0.0,0.0,0.0,0.0,0.0,0.0,0.0,0.0,0.0,0.0,0.0,0.0,-4.6254,-4.6187,-4.6187,-4.6212,-4.5846,-4.5829,-4.6186,0.0,0.0,0.0,0.0,0.0,0.0,0.0,0.0,0.0,0.0,0.0,0.0,0.0,0.0,0.0,0.0,0.0,0.0,0.0,0.0,0.0,0.0,0.0,0.0,0.0,0.0,0.0,0.0,0.0,0.0,0.0,0.0,0.0,0.0,0.0,0.0,0.0,0.0,0.0,0.0,0.0,0.0,0.0,0.0,0.0,0.0,0.0,0.0,0.0,0.0,0.0,0.0,0.0,0.0,0.0,0.0,0.0,0.0,0.0,0.0,0.0,0.0,0.0,0.0,0.0,0.0,0.0,0.0,0.0,0.0,-3.7939,-3.79,0.0,0.0,0.0,0.0,0.0,0.0,0.0,0.0,0.0,0.0,0.0,0.0,0.0,0.0,0.0,0.0,0.0,0.0,0.0,0.0,0.0,0.0,0.0,-4.9852,-4.9502,-4.868,-4.7946,-4.715,0.0,0.0,0.0,0.0,0.0,0.0,-4.5152,-4.5152,-4.5152,-4.5152,-4.507,-4.497,-4.4946,-4.4165,-4.4406,-4.5518,-4.5079,0.0,0.0,0.0,0.0,0.0,0.0,0.0,0.0,0.0,0.0,0.0,0.0,0.0,0.0,0.0,0.0,0.0,0.0,0.0,0.0,0.0,0.0,0.0,0.0,0.0,0.0,0.0,0.0,0.0,0.0,0.0,0.0,0.0,0.0,0.0,0.0,0.0,0.0,0.0,0.0,0.0,0.0,0.0,0.0,0.0,0.0,0.0,0.0,0.0,0.0,0.0,0.0,0.0,0.0,0.0,0.0,0.0,0.0,0.0,0.0,0.0,0.0,0.0,-3.7807,-3.7755,-3.7586,-3.7586,-3.7312,-3.6881,-3.7377,-3.7586,-3.7599,-3.7704,0.0,0.0,0.0,0.0,0.0,0.0,0.0,0.0,0.0,0.0,0.0,0.0,0.0,0.0,0.0,0.0,0.0,0.0,0.0,-4.9959,-4.9925,-4.9693,-4.9058,-4.7862,-4.7405,-4.667,-4.553,0.0,0.0,0.0,0.0,0.0,-4.5251,-4.5251,-4.5251,-4.5251,-4.4845,-4.4589,-4.4405,-4.3357,-4.2911,-4.2979,-4.3185,-4.3031,-4.2594,0.0,0.0,0.0,0.0,0.0,0.0,0.0,0.0,0.0,0.0,0.0,0.0,0.0,0.0,0.0,0.0,0.0,0.0,0.0,0.0,0.0,0.0,0.0,0.0,0.0,0.0,0.0,0.0,0.0,0.0,0.0,0.0,0.0,0.0,0.0,0.0,0.0,0.0,0.0,0.0,0.0,-3.995,-4.0355,0.0,0.0,0.0,0.0,0.0,0.0,0.0,0.0,0.0,0.0,0.0,0.0,0.0,-3.5874,-3.6881,-3.7284,-3.7364,-3.7116,-3.7431,-3.7103,-3.6345,-3.6345,-3.6292,-3.6227,-3.6305,0.0,-3.6384,-3.6907,0.0,0.0,0.0,0.0,0.0,0.0,0.0,0.0,0.0,0.0,0.0,0.0,0.0,0.0,0.0,0.0,0.0,0.0,0.0,0.0,0.0,-4.986,-4.9363,-4.8108,-4.7436,-4.6531,-4.515,-4.4638,0.0,0.0,0.0,-4.4064,-4.4064,-4.3989,-4.3815,-4.3558,-4.3334,-4.3063,-4.2732,-4.1816,-4.1408,-4.1307,-4.1323,-4.1493,-4.1782,-4.2038,0.0,0.0,0.0,0.0,0.0,0.0,0.0,0.0,0.0,0.0,0.0,0.0,0.0,0.0,0.0,0.0,0.0,0.0,0.0,0.0,0.0,0.0,0.0,0.0,0.0,0.0,0.0,0.0,0.0,0.0,0.0,0.0,0.0,0.0,0.0,0.0,0.0,0.0,0.0,-3.995,-3.9681,-4.0021,-3.9753,-3.9409,0.0,0.0,0.0,0.0,0.0,0.0,0.0,0.0,0.0,-3.5273,-3.4959,-3.5338,-3.6488,-3.6346,-3.6346,-3.6502,-3.6651,-3.6518,-3.6109,-3.6109,-3.594,-3.5652,-3.5652,-3.5652,-3.5717,-3.6632,-3.7207,-3.7534,0.0,0.0,0.0,0.0,-3.79,-3.79,0.0,0.0,0.0,0.0,0.0,0.0,0.0,0.0,0.0,0.0,0.0,0.0,-5.0031,-5.0082,-4.9549,-4.8117,-4.7372,-4.6304,-4.4687,-4.3959,-4.3442,-4.3196,-4.316,-4.3141,-4.3104,-4.2956,-4.2673,-4.2198,-4.2074,-4.176,-4.1321,-4.0594,-4.0269,-4.0269,-3.9969,-4.0282,-4.105,-4.1483,-4.1429,-4.105,0.0,0.0,0.0,0.0,0.0,0.0,0.0,0.0,0.0,0.0,0.0,0.0,0.0,0.0,0.0,0.0,0.0,0.0,0.0,0.0,0.0,0.0,0.0,0.0,0.0,0.0,0.0,0.0,0.0,0.0,0.0,0.0,0.0,0.0,0.0,0.0,0.0,-3.9696,-3.9625,-3.9895,-3.9768,-3.9481,0.0,0.0,0.0,0.0,0.0,0.0,-3.5736,-3.4868,-3.4607,-3.5051,-3.4633,-3.4881,-3.5887,-3.5495,-3.5574,-3.6109,-3.6109,-3.6109,-3.6109,-3.6109,-3.5887,-3.5495,-3.5495,-3.5587,-3.5796,-3.6488,-3.7129,-3.7691,-3.7848,-3.79,-3.79,-3.79,-3.79,-3.79,0.0,0.0,0.0,0.0,0.0,0.0,0.0,0.0,0.0,0.0,0.0,-5.0182,-5.0108,-5.0139,-4.9378,-4.7332,-4.688,-4.5873,-4.3874,-4.3444,-4.3196,-4.3214,-4.3214,-4.316,-4.3104,-4.2956,-4.2673,-4.2198,-4.1743,-4.1321,-4.0802,-4.0204,-3.9952,-3.9901,-3.9642,-3.9746,-4.0071,-4.0121,-4.0121,-4.002,-3.9778,0.0,0.0,0.0,0.0,0.0,0.0,0.0,0.0,0.0,0.0,0.0,0.0,0.0,0.0,0.0,0.0,0.0,0.0,0.0,0.0,0.0,0.0,0.0,0.0,0.0,0.0,0.0,0.0,0.0,0.0,0.0,0.0,0.0,0.0,0.0,0.0,0.0,0.0,-4.0424,-4.0316,0.0,0.0,0.0,0.0,-3.8277,-3.7372,-3.6582,-3.5736,-3.4868,-3.441,-3.4437,-3.441,-3.4698,-3.5325,-3.5312,-3.5574,-3.6109,-3.6109,-3.6109,-3.6109,-3.6109,-3.6083,-3.6057,-3.6057,-3.6384,-3.6881,-3.6358,-3.6502,-3.7103,-3.7678,-3.79,-3.79,-3.79,-3.79,-3.79,0.0,0.0,0.0,0.0,0.0,0.0,0.0,0.0,-5.0108,-5.0108,-5.0158,-5.0188,-5.0182,-5.0212,-4.9544,-4.771,-4.746,-4.649,-4.4296,-4.4035,-4.3804,-4.341,-4.3286,-4.3013,-4.2516,-4.2458,-4.2074,-4.1293,-4.1139,-4.0802,-4.0353,-3.9969,-3.9833,-3.9901,-3.9537,-3.9484,-3.9713,-3.9919,-3.9817,-3.9592,-3.9935,-3.9901,0.0,0.0,0.0,0.0,0.0,0.0,0.0,0.0,0.0,0.0,0.0,0.0,0.0,0.0,0.0,0.0,0.0,0.0,0.0,0.0,0.0,0.0,0.0,0.0,0.0,0.0,0.0,0.0,0.0,0.0,0.0,0.0,0.0,0.0,0.0,0.0,0.0,-4.0176,-3.991,0.0,-3.925,-3.9409,-3.925,-3.8634,-3.7525,-3.6802,-3.6503,-3.5182,-3.458,-3.4959,-3.4972,-3.5247,-3.5809,-3.5809,-3.5913,-3.6109,-3.6109,-3.6109,-3.6109,-3.6109,-3.6109,-3.6109,-3.6109,-3.6449,-3.6985,-3.6776,-3.7037,-3.7599,-3.7821,-3.79,-3.79,-3.79,-3.79,-3.79,0.0,0.0,0.0,0.0,0.0,0.0,0.0,0.0,-5.0158,-5.0133,-5.0188,-5.0212,-5.0212,-5.003,-4.9328,-4.7933,-4.7353,-4.6335,-4.4505,-4.4202,-4.3918,-4.3513,-4.3304,-4.292,-4.2297,-4.2198,-4.1717,-4.0802,-4.0802,-4.058,-4.0087,-3.9935,-3.9884,-3.9935,-3.9625,-3.9537,-3.9642,-3.9747,-3.9661,-3.9325,-3.9901,-3.9952,-3.9729,0.0,0.0,0.0,0.0,0.0,0.0,0.0,0.0,0.0,0.0,0.0,0.0,0.0,0.0,0.0,0.0,0.0,0.0,0.0,0.0,0.0,0.0,0.0,0.0,0.0,0.0,0.0,0.0,0.0,0.0,0.0,0.0,0.0,0.0,-4.0789,-4.0585,-4.0066,-3.9854,-3.9625,-3.9322,-3.9394,-3.9322,-3.9017,-3.7994,-3.7204,-3.6894,-3.5764,-3.5205,-3.5286,-3.5482,-3.5744,-3.6109,-3.6305,-3.641,-3.641,-3.6619,-3.6711,-3.6711,-3.6711,-3.6711,-3.6711,-3.6711,-3.6933,-3.7312,-3.7312,-3.7547,-3.79,-3.79,-3.79,-3.79,-3.79,-3.79,-3.79,0.0,0.0,0.0,0.0,0.0,0.0,-5.0188,-5.0255,-5.0278,-5.0212,-5.0255,-5.0302,-5.0302,-4.9576,-4.8754,-4.7895,-4.6505,-4.5331,-4.4458,-4.3823,-4.3532,-4.3497,-4.3322,-4.2957,-4.2418,-4.2239,-4.1717,-4.0802,-4.0802,-4.0531,-4.007,-4.0087,-4.0087,-4.007,-3.9952,-3.9901,-3.9901,-3.959,-3.9432,-3.9325,-3.9432,-3.959,-3.9729,0.0,0.0,0.0,0.0,0.0,0.0,0.0,0.0,0.0,0.0,0.0,0.0,0.0,0.0,0.0,0.0,0.0,0.0,0.0,0.0,0.0,0.0,0.0,0.0,0.0,0.0,0.0,0.0,0.0,0.0,0.0,0.0,0.0,-4.1245,-4.106,-4.0752,-4.0066,-4.0137,-4.0121,-3.9768,-3.9681,-3.9625,-3.9409,-3.8664,-3.7872,-3.6972,-3.6672,-3.6136,-3.5372,-3.5822,-3.6109,-3.6136,-3.6737,-3.7037,-3.7037,-3.7625,-3.79,-3.79,-3.7887,-3.7874,-3.7874,-3.7861,-3.7848,-3.7848,-3.7848,-3.7848,-3.7848,-3.7887,-3.79,-3.79,-3.79,-3.7887,-3.7874,0.0,0.0,0.0,0.0,0.0,0.0,-5.0278,-5.0278,-5.0302,-5.0278,-5.0278,-5.0302,-5.0302,-4.9576,-4.8754,-4.7895,-4.6681,-4.5531,-4.4467,-4.4042,-4.3716,-4.3446,-4.3286,-4.2957,-4.2418,-4.1931,-4.141,-4.0802,-4.0434,-4.0221,-4.007,-3.9986,-3.9986,-4.007,-3.9884,-3.9798,-3.9901,-3.9746,-3.9625,-3.9573,-3.9625,-3.9952,-4.0368,0.0,0.0,0.0,0.0,0.0,0.0,0.0,0.0,0.0,0.0,0.0,0.0,0.0,0.0,0.0,0.0,0.0,0.0,0.0,0.0,0.0,0.0,0.0,0.0,0.0,0.0,0.0,0.0,0.0,0.0,0.0,-4.4138,-4.3443,-4.211,-4.1965,-4.1509,-4.0331,-3.998,-3.9839,-3.9681,-3.9553,-3.9481,-3.9409,-3.8664,-3.8127,-3.7872,-3.7141,-3.6562,-3.6136,-3.6739,-3.6917,-3.675,-3.7351,-3.7652,-3.7652,-3.7821,-3.79,-3.7887,-3.7456,-3.7246,-3.722,-3.6789,-3.6593,-3.6593,-3.6593,-3.6593,-3.6684,-3.756,-3.79,-3.79,-3.79,-3.8066,-3.8046,0.0,0.0,0.0,0.0,0.0,0.0,-5.0302,-5.0302,-5.0302,-5.0302,-5.0302,-5.0302,-5.0302,-4.9251,-4.8353,-4.7857,-4.6407,-4.5231,-4.4448,-4.403,-4.3716,-4.3582,-4.3393,-4.3013,-4.2418,-4.2074,-4.163,-4.1094,-4.0611,-4.0385,-4.0402,-4.0121,-4.0037,-4.007,-3.9935,-3.9935,-3.9986,-4.0054,-4.0087,-4.0187,-4.0319,-4.0449,-4.0625,-4.0754,-4.1111,-4.1481,-4.1481,-4.199,-4.2756,-4.3738,0.0,0.0,0.0,0.0,0.0,0.0,0.0,0.0,0.0,0.0,0.0,0.0,0.0,0.0,0.0,0.0,0.0,0.0,0.0,0.0,0.0,0.0,0.0,0.0,-4.344,-4.3013,-4.2027,-4.2102,-4.1917,-4.0836,-4.0176,-3.9768,-3.9681,-3.9553,-3.9424,-3.9424,-3.8958,-3.8575,-3.8202,-3.7935,-3.7521,-3.7029,-3.7245,-3.7322,-3.7148,-3.7151,-3.7155,-3.7155,-3.7155,-3.7155,-3.7142,-3.6789,-3.6619,-3.6606,-3.6253,-3.6109,-3.6109,-3.6109,-3.6109,-3.6175,0.0,0.0,0.0,0.0,-3.7805,-3.7863,0.0,0.0,0.0,0.0,0.0,0.0,-5.0302,-5.0302,-5.0302,-5.0302,-5.0302,-5.0302,-5.0302,-4.8888,-4.7914,-4.7818,-4.6045,-4.477,-4.443,-4.3886,-4.3664,-4.3823,-4.3582,-4.316,-4.2516,-4.2418,-4.2115,-4.1569,-4.1094,-4.0896,-4.0896,-4.0434,-4.0254,-4.0254,-4.0254,-4.0254,-4.0303,-4.0594,-4.0767,-4.0879,-4.1213,-4.1122,-4.0814,-4.0926,-4.123,-4.1656,-4.1656,-4.2071,-4.2714,-4.334,0.0,0.0,0.0,0.0,0.0,0.0,0.0,0.0,0.0,0.0,0.0,0.0,0.0,0.0,0.0,0.0,0.0,0.0,0.0,0.0,0.0,0.0,0.0,0.0,-4.2286,-4.2109,-4.1471,-4.182,-4.1869,-4.1107,-4.0293,-3.9698,-3.9455,-3.9257,-3.923,-3.929,-3.9305,-3.903,-3.8352,-3.8786,0.0,0.0,0.0,-3.749,-3.7402,-3.6704,-3.6271,-3.6109,-3.6197,-3.6197,-3.6109,-3.6044,-3.6018,-3.6005,-3.594,-3.5913,-3.5913,-3.5913,-3.6,-3.6087,-3.6057,-3.6109,-3.6184,-3.6981,-3.7379,-3.7533,0.0,0.0,0.0,0.0,0.0,0.0,-5.0302,-5.0302,-5.0302,-5.0302,-5.0302,-5.0302,-5.0302,-4.9423,-4.8563,-4.7876,-4.6601,-4.5439,-4.4467,-4.427,-4.4162,-4.3955,-4.3809,-4.3511,-4.305,-4.2634,-4.2297,-4.2056,-4.1569,-4.1348,-4.1348,-4.1258,-4.1213,-4.1213,-4.1213,-4.1213,-4.1213,-4.1303,-4.1348,-4.1348,-4.1437,-4.1613,-4.1888,-4.1948,-4.2239,-4.2616,-4.2616,-4.2724,-4.2979,-4.4015,-4.4455,-4.4766,-4.5768,-4.6221,0.0,0.0,0.0,0.0,0.0,0.0,0.0,0.0,0.0,0.0,0.0,0.0,0.0,0.0,0.0,0.0,0.0,0.0,0.0,-4.2356,-4.2286,-4.2233,-4.1963,-4.1567,-4.0836,-3.9532,-3.8811,-3.8251,-3.7863,-3.7793,-3.8018,-3.8542,-3.8586,-3.8755,-3.9162,-3.9296,-3.9135,-3.8765,-3.8738,-3.8257,-3.7402,-3.7867,-3.7433,-3.6096,-3.6791,0.0,-3.6083,-3.5652,-3.5443,-3.543,-3.4933,-3.4724,-3.4724,-3.4724,-3.513,-3.5789,-3.5989,-3.6109,-3.6131,-3.6498,-3.714,-3.7721,0.0,0.0,0.0,0.0,0.0,0.0,-5.0302,-5.0302,-5.0302,-5.0302,-5.0302,-5.0302,-5.0348,-4.9217,-4.8277,-4.79,-4.6373,-4.5274,-4.4876,-4.4565,-4.4346,-4.4192,-4.403,-4.3679,-4.3196,-4.292,-4.2711,-4.2537,-4.2056,-4.1846,-4.1846,-4.1613,-4.1481,-4.1481,-4.1481,-4.1481,-4.1525,-4.1943,-4.2109,-4.2149,-4.2549,-4.2831,-4.2996,-4.2422,-4.2598,-4.3142,-4.3142,-4.3249,-4.3495,-4.407,-4.4232,-4.434,-4.4911,-4.5384,-4.576,0.0,0.0,0.0,0.0,0.0,0.0,0.0,0.0,0.0,0.0,0.0,0.0,0.0,0.0,-4.3152,-4.2543,0.0,-4.1904,-4.1289,-4.1187,-4.1135,-4.0995,-4.0479,-3.9854,-3.936,-3.8738,-3.8111,-3.7473,-3.7404,-3.7539,-3.7868,-3.7898,-3.8048,-3.8392,-3.8721,-3.882,-3.8664,-3.8614,-3.8337,-3.7798,-3.777,-3.7097,-3.5898,-3.6716,-3.6716,-3.5885,-3.5618,-3.5485,-3.5472,-3.4682,-3.4634,-3.5114,-3.5494,-3.5883,-3.6336,-3.6457,-3.6524,-3.6579,-3.7181,-3.7636,-3.7982,0.0,0.0,0.0,0.0,0.0,0.0,0.0,-5.0302,-5.0302,-5.0302,-5.0302,-5.0325,-5.0371,-4.9121,-4.8184,-4.7903,-4.6062,-4.5023,-4.5277,-4.4838,-4.4565,-4.4465,-4.4221,-4.3841,-4.3321,-4.3232,-4.3123,-4.2938,-4.2537,-4.2338,-4.2338,-4.1973,-4.1785,-4.1785,-4.1785,-4.1828,-4.1919,-4.2567,-4.2868,-4.2978,-4.3652,-4.3912,-4.3799,-4.2886,-4.2941,-4.3508,-4.3508,-4.3656,-4.3912,-4.3974,-4.4004,-4.4004,-4.4065,-4.4561,-4.509,-4.5164,-4.5667,0.0,0.0,0.0,0.0,0.0,0.0,0.0,0.0,-4.5582,-4.5183,-4.4378,-4.3525,-4.2793,-4.2072,-4.1552,-4.1001,-4.0356,-4.0171,-4.0037,-3.9901,-3.9435,-3.9237,-3.939,-3.8748,-3.8012,-3.7285,-3.7098,-3.709,-3.7225,-3.7225,-3.7285,-3.7404,-3.7913,-3.8197,-3.8197,-3.8061,-3.7973,-3.7825,-3.7358,-3.6712,-3.5719,-3.6682,-3.6738,-3.5896,-3.5896,-3.5896,-3.5896,-3.5182,-3.5264,-3.5963,-3.666,-3.6972,-3.7127,-3.7127,-3.7281,-3.7448,-3.8037,-3.8202,-3.8277,0.0,0.0,0.0,0.0,0.0,0.0,0.0,0.0,-5.0302,-5.0302,-5.0302,-5.0302,-5.0302,-5.013,-4.9423,-4.7933,-4.623,-4.5256,-4.5297,-4.5235,-4.5065,-4.4751,-4.4493,-4.4173,-4.3758,-4.3391,-4.3142,-4.3067,-4.29,-4.2806,-4.2806,-4.2768,-4.275,-4.275,-4.275,-4.2921,-4.3194,-4.3283,-4.3505,-4.3767,-4.3862,-4.3912,-4.3881,-4.3767,-4.3767,-4.3849,-4.3849,-4.3881,-4.3943,-4.4242,-4.4327,-4.4402,-4.4681,-4.4833,-4.499,-4.5416,-4.5611,-4.5776,-4.6192,-4.6359,-4.6178,-4.5213,-4.5478,-4.5517,0.0,-4.3803,-4.4035,-4.3222,-4.2982,-4.2771,-4.2258,-4.1797,-4.1272,-4.0819,-4.0353,-4.0037,-3.9781,-3.9661,-3.9325,-3.8561,-3.7547,-3.6848,-3.6536,-3.6008,-3.5968,-3.6552,-3.6596,-3.6821,-3.7375,-3.7479,-3.7524,-3.7524,-3.7515,-3.7128,-3.6403,-3.7617,-3.7434,-3.5927,-3.7358,-3.763,-3.6738,-3.6738,-3.6738,-3.6724,-3.6646,-3.666,-3.6802,-3.688,-3.7372,-3.8037,-3.8037,-3.8486,-3.9031,-3.8427,-3.8202,-3.8277,0.0,0.0,0.0,0.0,0.0,0.0,0.0,0.0,-5.0302,-5.0302,-5.0302,-5.0302,-5.0348,-4.9488,-4.8398,-4.715,-4.5965,-4.5297,-4.5297,-4.5297,-4.5151,-4.48,-4.4701,-4.4438,-4.4042,-4.3855,-4.3693,-4.3579,-4.3508,-4.349,-4.349,-4.349,-4.349,-4.349,-4.349,-4.3557,-4.3689,-4.3893,-4.4046,-4.4213,-4.4402,-4.4476,-4.4476,-4.4476,-4.4476,-4.4476,-4.427,-4.4318,0.0,-4.4636,-4.4681,-4.4707,-4.487,-4.4895,-4.4946,-4.5141,-4.5191,-4.524,-4.5534,-4.5416,-4.5241,-4.5312,-4.523,-4.4912,-4.4072,-4.3977,-4.386,-4.3063,-4.2673,-4.2418,-4.2257,-4.1587,-4.1001,-4.0737,-4.0286,-3.9884,-3.9642,-3.959,-3.9415,-3.8952,-3.8124,-3.731,-3.6492,-3.6196,-3.5967,-3.5893,-3.5908,-3.6028,-3.6282,-3.6656,-3.6866,-3.6866,-3.7225,-3.7267,-3.6906,-3.7535,-3.7219,-3.6127,-3.7214,-3.7273,-3.6499,-3.6499,-3.64,-3.6374,-3.7306,-3.763,-3.7706,-3.8159,-3.856,-3.8885,-3.8885,-3.8882,-3.8784,-3.8898,-3.8885,-3.8958,0.0,0.0,0.0,0.0,0.0,0.0,0.0,0.0,0.0,0.0,-5.0302,-5.0325,-5.0367,-4.9089,-4.7843,-4.694,-4.6118,-4.5545,-4.5297,-4.5297,-4.5194,-4.4957,-4.4843,-4.465,-4.4374,-4.426,-4.4162,-4.3974,-4.3943,-4.3912,-4.3912,-4.3912,-4.3912,-4.3912,-4.3912,-4.3943,-4.4065,-4.4299,-4.4457,-4.4557,-4.4802,-4.4895,-4.4895,-4.4895,-4.4895,-4.4895,-4.4662,-4.4707,-4.4914,-4.4943,-4.4943,-4.4919,-4.4943,-4.4943,-4.4919,-4.4919,-4.4919,-4.4919,-4.5061,-4.4833,-4.4716,-4.5327,-4.5013,-4.4524,-4.4441,-4.4163,-4.3722,-4.3178,-4.2693,-4.2378,-4.2356,-4.1692,-4.1082,-4.0767,-4.0319,-3.9918,-3.9554,-3.9501,-3.9432,-3.9325,-3.8898,-3.8124,-3.7011,-3.6768,-3.643,-3.5797,-3.5733,-3.5683,-3.5504,-3.5953,-3.6207,-3.6207,-3.6656,-3.6881,-3.6881,-3.706,-3.6862,-3.6292,-3.704,-3.7114,-3.6541,-3.6541,-3.6418,-3.6413,-3.7521,-3.796,-3.8033,-3.8641,-3.8871,-3.8871,-3.8871,-3.8556,-3.8182,-3.8676,-3.8871,-3.8871,0.0,0.0,0.0,0.0,0.0,0.0,0.0,0.0,0.0,0.0,0.0,0.0,0.0,-4.9557,-4.8697,-4.7837,-4.6978,-4.6137,-4.5354,-4.5297,-4.5297,-4.5297,-4.4957,-4.4776,-4.4776,-4.4465,-4.426,-4.4192,-4.4065,-4.3955,-4.3912,-4.3912,-4.3912,-4.3912,-4.3912,-4.4095,-4.4402,-4.4402,-4.4584,-4.4895,-4.4895,-4.4895,-4.4895,-4.4895,-4.4943,-4.501,-4.501,-4.4943,-4.4919,-4.5057,-4.5057,-4.501,-4.5061,-4.5057,-4.501,-4.501,-4.4943,-4.4919,-4.5061,-4.5038,-4.4943,-4.4681,-4.4557,-4.4402,-4.4011,-4.366,-4.3389,-4.3371,-4.3105,-4.2862,-4.2783,-4.2409,-4.1856,-4.1168,-4.0672,-4.0187,-3.959,-3.9501,-3.9432,-3.9325,-3.9272,-3.9023,-3.8294,-3.7706,-3.7071,-3.643,-3.6368,-3.6148,-3.5504,-3.5534,-3.5534,-3.5534,-3.5549,-3.5564,-3.5564,-3.6193,-3.6522,-3.6522,-3.712,-3.7404,-3.7336,-3.7336,-3.7351,-3.7366,-3.7381,-3.7396,-3.7396,-3.7464,-3.7464,-3.7464,-3.7464,-3.7464,-3.7434,-3.7464,-3.7464,-3.7464,0.0,0.0,0.0,0.0,0.0,0.0,0.0,0.0,0.0,0.0,0.0,0.0,0.0,0.0,0.0,0.0,-4.7341,-4.6385,-4.6118,-4.5602,-4.5297,-4.5297,-4.5194,-4.5109,-4.5065,-4.4953,-4.4857,-4.4783,-4.48,-4.4787,-4.4762,-4.4834,-4.49,-4.49,-4.49,-4.4947,-4.5074,-4.5123,-4.5118,-4.5084,-4.5096,-4.5026,-4.4919,-4.5052,-4.512,-4.5142,0.0,-4.5178,-4.5057,-4.5061,-4.5135,-4.5184,-4.5223,-4.5223,-4.5203,-4.5156,-4.5113,-4.5113,-4.5199,-4.5109,-4.4991,-4.4948,-4.4688,-4.4383,-4.427,-4.3955,-4.3656,-4.344,-4.3301,-4.3142,-4.2842,-4.2151,-4.1455,-4.1013,-4.0302,-3.9713,-3.9432,-3.9379,-3.9325,-3.9325,-3.9272,-3.9202,-3.8969,-3.8367,-3.7764,-3.7131,-3.7071,-3.6784,-3.6148,-3.6085,-3.591,-3.5504,-3.5504,-3.5504,-3.5504,-3.5729,-3.5833,-3.5833,-3.6043,-3.6148,-3.6163,-3.6596,-3.6791,-3.6821,-3.724,-3.7404,-3.7404,-3.7404,-3.7404,-3.7404,-3.7404,-3.7165,-3.6791,-3.6791,-3.6522,-3.6267,0.0,0.0,0.0,0.0,0.0,0.0,0.0,0.0,0.0,0.0,0.0,0.0,0.0,0.0,0.0,0.0,0.0,-4.7169,-4.6538,-4.6023,-4.5602,-4.5297,-4.5297,-4.5298,-4.5301,-4.5301,-4.5302,-4.5284,-4.5304,-4.5342,-4.5343,-4.54,-4.5456,-4.5473,-4.5456,-4.5456,-4.5473,-4.549,-4.5437,-4.5342,-4.5323,-4.5226,-4.5161,-4.5285,-4.5341,0.0,-4.5449,-4.5398,-4.5304,-4.5262,-4.5323,-4.5395,-4.5432,-4.5432,-4.5396,-4.5361,-4.5343,-4.5343,-4.5399,-4.5304,-4.5201,-4.5178,-4.4919,-4.4682,-4.4591,-4.4299,-4.4035,-4.3799,-4.3557,-4.3284,-4.2957,-4.2257,-4.1604,-4.1168,-4.0449,-3.9867,-3.9609,-3.9415,-3.9272,-3.9272,-3.9272,-3.9272,-3.9202,-3.8898,-3.8423,-3.7764,-3.7706,-3.7354,-3.643,-3.643,-3.607,-3.5424,-3.5439,-3.5439,-3.5359,-3.5439,-3.5504,-3.5504,-3.5504,-3.5504,-3.5519,-3.5953,-3.6133,-3.6148,-3.6552,-3.6731,-3.6731,-3.6731,-3.6731,-3.6731,-3.6731,-3.6492,-3.6199,-3.6366,-3.6045,-3.5624,0.0,0.0,0.0,0.0,0.0,0.0,0.0,0.0,0.0,0.0,0.0,0.0,0.0,0.0,0.0,0.0,0.0,0.0,-4.6748,-4.6557,-4.6156,-4.5392,-4.5316,-4.5361,-4.5509,-4.549,-4.5519,-4.5607,-4.5621,-4.5611,-4.5619,-4.5539,-4.5574,-4.5619,-4.5539,-4.5574,-4.5619,-4.5558,-4.5555,-4.5584,-4.5539,-4.5539,-4.5603,-4.5619,-4.563,-4.5621,-4.5621,-4.567,-4.5703,-4.5555,-4.5552,-4.5636,-4.5703,-4.567,-4.5621,-4.5615,-4.5619,-4.56,-4.5607,-4.5596,-4.5555,-4.5361,-4.5246,-4.5144,-4.4948,-4.4681,-4.443,-4.4383,-4.3818,-4.3284,-4.3123,-4.2747,-4.2264,-4.1622,-4.1128,-4.0594,-4.0053,-3.9592,-3.9325,-3.9325,-3.9272,-3.9218,-3.9023,-3.9148,-3.9023,-3.8351,-3.8351,-3.7822,-3.6538,-3.6492,-3.6117,-3.5344,-3.5424,-3.5424,-3.5213,-3.5424,-3.5504,-3.5504,-3.5504,-3.5504,-3.5504,-3.5504,-3.5504,-3.5504,-3.5504,-3.5504,-3.5504,-3.5504,-3.5504,-3.5569,-3.5569,-3.5569,-3.5683,-3.6258,-3.6085,-3.5619,0.0,0.0,0.0,0.0,0.0,0.0,0.0,0.0,0.0,0.0,0.0,0.0,0.0,0.0,0.0,0.0,0.0,0.0,-4.8468,-4.7226,-4.6405,-4.6194,-4.5621,-4.5361,-4.5509,-4.549,-4.5555,-4.567,-4.5764,-4.5829,-4.5815,-4.5854,-4.5879,-4.5891,-4.5879,-4.5879,-4.5891,-4.5925,-4.5859,-4.5736,-4.5777,-4.5722,-4.5619,-4.5764,-4.5828,-4.5828,-4.5871,-4.5968,-4.6027,-4.5731,-4.5764,-4.5902,-4.5914,-4.5947,-4.5947,-4.5854,-4.5775,-4.5752,-4.5747,-4.5626,-4.551,-4.5456,-4.5322,-4.5175,-4.5148,-4.4924,-4.4707,-4.4457,-4.3986,-4.3557,-4.3177,-4.244,-4.1813,-4.1516,-4.1128,-4.0594,-4.0053,-3.9919,-3.9679,-3.9325,-3.9272,-3.9218,-3.9023,-3.904,-3.8969,-3.8662,-3.8898,-3.8623,-3.7578,-3.7637,-3.7326,-3.6477,-3.6054,-3.5737,-3.5737,-3.5394,-3.5294,-3.5294,-3.5439,-3.5504,-3.5504,-3.5504,-3.5504,-3.5504,-3.5504,-3.5504,-3.5504,-3.5504,-3.5733,-3.6196,-3.6196,-3.6492,-3.6951,-3.7071,-3.7071,-3.6906,0.0,0.0,0.0,0.0,0.0,0.0,0.0,0.0,0.0,0.0,0.0,0.0,0.0,0.0,0.0,0.0,0.0,0.0,0.0,-4.7837,-4.6901,-4.6519,-4.5736,-4.5361,-4.5509,-4.5555,-4.5679,-4.5835,-4.5966,-4.6027,-4.6027,-4.6037,-4.6066,-4.6084,-4.6017,-4.6027,-4.6084,-4.6075,-4.6027,0.0,0.0,-4.5936,-4.5883,-4.5978,-4.6027,-4.6047,-4.6065,-4.6138,-4.6162,-4.5978,-4.5978,-4.6084,-4.6084,-4.6093,-4.6084,-4.6007,-4.5953,-4.5893,-4.5893,-4.5808,-4.5708,-4.5613,-4.5456,-4.5301,-4.5235,-4.4991,-4.4745,-4.4402,-4.3974,-4.3523,-4.3123,-4.244,-4.1856,-4.1561,-4.1128,-4.0594,-4.0053,-3.9765,-3.947,-3.9202,-3.9094,-3.904,-3.8821,-3.886,-3.8805,-3.8655,-3.8931,-3.875,-3.7943,-3.7985,-3.7621,-3.6845,-3.6228,-3.5913,-3.5913,-3.5991,-3.6054,-3.6054,-3.6258,-3.6321,-3.6321,-3.6321,-3.6321,-3.6321,-3.6321,-3.6321,-3.6321,-3.6321,-3.6554,-3.6845,-3.6845,-3.7071,-3.7413,-3.7706,-3.7648,-3.7429,0.0,0.0,0.0,0.0,0.0,0.0,0.0,0.0,0.0,0.0,0.0,0.0,0.0,0.0,0.0,0.0,0.0,0.0,0.0,0.0,-4.7589,-4.671,-4.5889,-4.5456,-4.5509,-4.56,-4.5764,-4.5956,-4.6093,-4.6154,-4.6162,-4.6102,-4.6138,-4.6196,-4.6084,-4.6093,-4.6196,-4.6075,-4.6093,-4.6196,-4.6138,-4.6146,-4.6196,0.0,-4.6196,-4.6196,-4.6196,-4.6196,-4.6196,-4.6189,-4.6189,-4.6189,-4.6189,-4.6146,-4.6084,-4.6084,-4.6027,-4.5986,-4.5986,-4.5986,-4.5922,-4.5761,-4.5607,-4.5455,-4.5258,-4.4967,-4.4648,-4.4365,-4.3818,-4.3336,-4.3087,-4.2634,-4.2145,-4.1578,-4.1157,-4.0642,-4.0103,-3.9454,-3.9077,-3.9023,-3.886,-3.8766,-3.8616,-3.8711,-3.8655,-3.8391,-3.86,-3.8528,-3.8001,-3.8001,-3.7637,-3.6799,-3.6352,-3.6039,-3.5976,-3.6692,-3.7055,-3.7071,-3.731,-3.7429,-3.7429,-3.7429,-3.7429,-3.7429,-3.7429,-3.7429,-3.7429,-3.7429,-3.7429,-3.7546,-3.7546,-3.7605,-3.7722,-3.8238,-3.8124,-3.7722,0.0,0.0,0.0,0.0,0.0,0.0,0.0,0.0,0.0,0.0,-5.0302,-5.0302,0.0,0.0,0.0,0.0,0.0,0.0,0.0,0.0,0.0,-4.7608,-4.6748,-4.605,-4.5509,-4.5524,-4.5603,-4.5744,-4.579,-4.5871,-4.6027,-4.6017,-4.6084,-4.6196,-4.6181,-4.6189,-4.6196,-4.6181,-4.6189,-4.6196,-4.6189,-4.6189,-4.6196,-4.6196,0.0,0.0,-4.6196,-4.6196,-4.6196,-4.6138,-4.613,-4.613,-4.613,-4.6075,-4.6017,-4.6017,-4.5975,-4.5929,-4.5929,-4.5893,-4.5841,-4.578,-4.5692,-4.5528,-4.5243,-4.5026,-4.4789,-4.4532,-4.3918,-4.3406,-4.3336,-4.2788,-4.2145,-4.1578,-4.1321,-4.0938,-4.0086,-3.9697,-3.9365,-3.9023,-3.886,-3.8766,-3.8616,-3.8616,-3.856,-3.8391,-3.8448,-3.8448,-3.8335,-3.8448,-3.8132,-3.7282,-3.7163,-3.6845,-3.6322,-3.6707,-3.6951,-3.6951,-3.7251,-3.7429,-3.7429,-3.7429,-3.7429,-3.7429,-3.7429,-3.7429,-3.7429,-3.7429,-3.7706,-3.8108,-3.8108,-3.8479,-3.8969,-3.9094,-3.9077,-3.8969,0.0,0.0,0.0,0.0,0.0,0.0,0.0,-5.0302,-5.0302,-5.0302,-5.0302,-5.0302,-5.0302,-5.0302,-5.0302,0.0,0.0,0.0,0.0,0.0,0.0,-4.8487,-4.7207,-4.6352,-4.6013,-4.5667,-4.5541,-4.5603,0.0,-4.5744,-4.5847,-4.5847,-4.5936,-4.6093,-4.6066,-4.6093,-4.6196,-4.6154,-4.6181,-4.6196,-4.6196,-4.6196,-4.6196,-4.6196,0.0,0.0,-4.6196,-4.6189,-4.6146,-4.6102,-4.6047,-4.6007,-4.6047,-4.6007,-4.5953,-4.5953,-4.5886,-4.5854,-4.5854,-4.5808,-4.58,-4.58,-4.5692,-4.5526,-4.5263,-4.4985,-4.465,-4.424,-4.3693,-4.3232,-4.3069,-4.2498,-4.1959,-4.1561,-4.1094,-4.0559,-3.9986,-3.9401,-3.9023,-3.8821,-3.8655,-3.8544,-3.8504,-3.852,-3.8464,-3.8391,-3.8391,-3.8391,-3.8391,-3.8448,-3.8148,-3.7417,-3.7727,-3.7637,-3.704,-3.7504,-3.787,-3.801,-3.8141,-3.8311,-3.8383,-3.8383,-3.8383,-3.8383,-3.8383,-3.8383,-3.8383,-3.8383,-3.8551,-3.8827,-3.8827,-3.9023,-3.9272,-3.9272,-3.9272,-3.9272,0.0,0.0,0.0,0.0,0.0,0.0,0.0,-5.0302,-5.0302,-5.0302,-5.0302,-5.0302,-5.0302,-5.0302,-5.0302,0.0,0.0,0.0,0.0,0.0,0.0,0.0,0.0,0.0,-4.6519,0.0,0.0,-4.5455,-4.5555,0.0,0.0,0.0,0.0,0.0,-4.5866,-4.5936,-4.6083,-4.6047,-4.6036,0.0,0.0,-4.6083,-4.6083,0.0,0.0,0.0,0.0,-4.6102,-4.6066,-4.6075,-4.5997,-4.5917,-4.5953,-4.591,-4.5893,-4.5893,-4.5835,-4.58,-4.58,-4.58,-4.58,-4.58,-4.5723,-4.556,-4.5204,-4.4924,-4.458,-4.3962,-4.3458,-4.3032,-4.277,-4.2234,-4.1744,-4.1401,-4.0767,-4.0136,-3.98,-3.9115,-3.8672,-3.8632,-3.8448,-3.8391,-3.8391,-3.8391,-3.8391,-3.8391,-3.8391,-3.8391,-3.8391,-3.8391,-3.8148,-3.7653,-3.8148,-3.8205,-3.7796,-3.8359,-3.8766,-3.8969,-3.9023,-3.9148,-3.9272,-3.9272,-3.9272,-3.9272,-3.9272,-3.9272,-3.9272,-3.9272,-3.9272,-3.9272,-3.9272,-3.9272,-3.9272,-3.9272,-3.9272,-3.9272,0.0,0.0,0.0,0.0,0.0,0.0,0.0,-5.0302,-5.0302,-5.0302,-5.0302,-5.0302,-5.0302,-5.0302,-5.0302,0.0,0.0,0.0,0.0,0.0,0.0,0.0,0.0,0.0,0.0,0.0,0.0,-4.5319,-4.5258,0.0,0.0,0.0,0.0,0.0,0.0,-4.5731,-4.5744,-4.5744,0.0,0.0,0.0,0.0,0.0,0.0,0.0,0.0,0.0,-4.5975,-4.5941,-4.5986,-4.5964,-4.5886,-4.5841,-4.5794,-4.5814,-4.5814,-4.5794,-4.58,-4.58,-4.58,-4.58,-4.58,-4.58,-4.5623,-4.5044,-4.489,-4.47,-4.4121,-4.3371,-4.281,-4.281,-4.2175,-4.1453,-4.0943,-4.0689,-4.0285,-3.9558,-3.9169,-3.8876,-3.8616,-3.8448,-3.8391,-3.8391,-3.8391,-3.8391,-3.8391,-3.8391,-3.8391,-3.8391,-3.8391,-3.8391,-3.8335,-3.8391,-3.8391,-3.8335,-3.8655,-3.8805,-3.8805,-3.9148,-3.9272,-3.9272,-3.9272,-3.9272,-3.9272,-3.9272,-3.9272,-3.9272,-3.9272,-3.9272,-3.9272,-3.9272,-3.9272,-3.9272,-3.9272,-3.9272,-3.9272,0.0,0.0,0.0,0.0,0.0,0.0,-5.0302,-5.0302,-5.0302,-5.0302,-5.0302,-5.0302,-5.0302,-5.0302,-5.0302,-5.0302,0.0,0.0,0.0,0.0,0.0,0.0,0.0,0.0,0.0,0.0,-4.6744,-4.5951,-4.5929,0.0,0.0,0.0,0.0,0.0,0.0,-4.5615,-4.5703,-4.5703,0.0,0.0,0.0,0.0,0.0,0.0,0.0,0.0,0.0,0.0,-4.5654,-4.5684,-4.5638,-4.5594,-4.558,-4.5563,-4.5596,-4.5752,-4.58,-4.58,-4.58,-4.5805,-4.5791,-4.5791,-4.5661,-4.5398,-4.4995,-4.4787,-4.4482,-4.3886,-4.3266,-4.2734,-4.2598,-4.1924,-4.1346,-4.13,-4.0546,-3.9952,-3.9765,-3.9115,-3.8616,-3.8504,-3.8448,-3.8391,-3.8391,-3.8391,-3.8391,-3.8391,-3.8391,-3.8391,-3.8391,-3.8391,-3.8391,-3.8391,-3.8391,-3.8448,-3.8504,-3.8616,-3.8766,-3.8914,-3.904,-3.9202,-3.9272,-3.9272,-3.9272,-3.9272,-3.9272,-3.9272,-3.9272,-3.9272,-3.9272,-3.9272,-3.9272,-3.9272,-3.9272,-3.9272,-3.9272,-3.9272,0.0,0.0,0.0,0.0,0.0,-5.0302,-5.0302,-5.0302,-5.0302,-5.0302,-5.0302,-5.0302,-5.0302,-5.0278,-5.0278,-5.0278,-5.0231,0.0,0.0,0.0,0.0,0.0,0.0,0.0,0.0,0.0,-4.7528,-4.6758,-4.6735,-4.6454,0.0,0.0,-4.587,-4.5765,0.0,0.0,0.0,0.0,0.0,0.0,0.0,0.0,0.0,0.0,0.0,0.0,0.0,0.0,0.0,0.0,0.0,-4.54,-4.54,-4.5362,-4.5381,-4.5613,-4.5677,-4.5677,-4.5626,-4.5613,-4.5616,-4.5543,-4.5361,-4.5125,-4.483,-4.458,-4.4223,-4.3609,-4.2996,-4.2501,-4.2257,-4.1578,-4.1117,-4.118,-4.0434,-3.9765,-3.9714,-3.9061,-3.856,-3.8391,-3.8391,-3.8391,-3.8391,-3.8391,-3.8391,-3.8391,-3.8391,-3.8391,-3.8391,-3.8391,-3.8391,-3.8391,-3.8391,-3.8448,-3.8616,-3.8616,-3.8766,-3.9023,-3.9077,-3.9148,-3.9272,-3.9272,-3.9272,-3.9272,-3.9272,-3.9362,-3.9504,-3.9379,-3.9362,-3.9504,-3.9362,-3.9272,-3.9272,-3.9272,-3.9272,-3.9272,0.0,0.0,0.0,0.0,0.0,0.0,-5.0302,-5.0302,-5.0302,-5.0302,-5.0302,-5.0302,-5.0302,-5.0255,-5.0188,-5.0188,-5.0188,0.0,0.0,0.0,0.0,0.0,0.0,0.0,0.0,0.0,-4.8327,-4.7596,-4.7504,-4.7504,-4.7577,-4.7577,-4.7158,-4.6378,0.0,0.0,0.0,0.0,0.0,0.0,0.0,0.0,0.0,0.0,0.0,0.0,0.0,0.0,0.0,0.0,0.0,0.0,0.0,-4.5322,-4.5222,-4.5362,-4.54,-4.5381,-4.5243,-4.5201,-4.5161,-4.4954,-4.4912,-4.482,-4.458,-4.4308,-4.3949,-4.3351,-4.2582,-4.1948,-4.1735,-4.1255,-4.0776,-4.0404,-4.0288,-3.9986,-3.9131,-3.9023,-3.8876,-3.8448,-3.8391,-3.8391,-3.8391,-3.8391,-3.8391,-3.8391,-3.8391,-3.8391,-3.8391,-3.8391,-3.8391,-3.8391,-3.8391,-3.8448,-3.8616,-3.8711,-3.886,-3.9023,-3.9202,-3.9272,-3.9272,-3.9272,-3.9272,-3.9272,-3.9272,-3.954,-3.9969,-3.9504,-3.9592,-3.9969,-3.9451,-3.9272,-3.9272,-3.9272,-3.9272,-3.9272,0.0,0.0,0.0,0.0,0.0,0.0,0.0,-5.0302,-5.0278,-5.0255,-5.0212,-5.0212,-5.0182,-5.0158,-5.0133,-5.0133,-5.0108,0.0,0.0,0.0,0.0,0.0,0.0,0.0,0.0,0.0,-4.9129,-4.8365,-4.8339,-4.8061,-4.7523,-4.7523,-4.7414,-4.7215,-4.7215,-4.7063,0.0,0.0,0.0,0.0,0.0,0.0,-4.5057,0.0,0.0,0.0,0.0,0.0,0.0,0.0,0.0,0.0,0.0,0.0,0.0,-4.4802,-4.4896,-4.5061,-4.5017,-4.4992,-4.4966,-4.49,-4.4688,-4.4382,-4.3964,-4.3762,-4.344,-4.2544,-4.218,-4.1864,-4.1445,-4.1088,-4.0776,-4.0355,-4.0003,-3.9731,-3.947,-3.8969,-3.8655,-3.8821,-3.856,-3.8391,-3.8391,-3.8391,-3.8391,-3.8391,-3.8391,-3.8391,-3.8391,-3.8391,-3.8391,-3.8391,-3.8391,-3.8391,-3.8448,-3.8711,-3.8805,-3.886,-3.9148,-3.9272,-3.9272,-3.9272,-3.9272,-3.9272,-3.9272,-3.9556,-4.0003,-3.9817,-3.9868,-4.0003,-3.9817,-3.9592,-3.9272,-3.9272,-3.9272,-3.9272,0.0,0.0,0.0,0.0,0.0,0.0,0.0,-5.0278,-5.0255,-5.0207,-5.0182,-5.0158,-5.0108,-5.0082,-5.0057,-5.0057,-5.0005,0.0,0.0,0.0,0.0,0.0,0.0,0.0,-4.9898,-4.9898,-4.9633,-4.914,-4.914,-4.8901,-4.8422,-4.8422,-4.8251,-4.8017,-4.8017,-4.7827,0.0,0.0,0.0,0.0,0.0,0.0,-4.5878,0.0,0.0,0.0,0.0,0.0,0.0,0.0,0.0,0.0,0.0,0.0,0.0,0.0,-4.427,-4.4317,-4.4612,-4.458,-4.4455,-4.4401,-4.4154,-4.3767,-4.3379,-4.3176,-4.2846,-4.2056,-4.1778,-4.1561,-4.1163,-4.0853,-4.0534,-4.0121,-3.9679,-3.9312,-3.9152,-3.8711,-3.8504,-3.8766,-3.856,-3.8391,-3.8391,-3.8391,-3.8391,-3.8391,-3.8391,-3.8391,-3.8391,-3.8464,-3.8464,-3.8464,-3.8464,-3.8448,-3.8544,-3.8711,-3.886,-3.8969,-3.9218,-3.9272,-3.9325,-3.9504,-3.9468,-3.9325,-3.9504,-3.9833,0.0,-4.0103,-4.0103,-4.0302,-4.0302,-4.002,-3.954,-3.954,-3.954,-3.9556,0.0,0.0,0.0,0.0,0.0,0.0,0.0,-5.0255,-5.0207,-5.0188,-5.0133,-5.0082,-5.0082,-5.0031,-5.0005,-5.0005,0.0,0.0,0.0,0.0,0.0,0.0,0.0,0.0,-4.9852,-4.9824,-4.9824,-4.9852,-4.9852,-4.9898,-4.9898,-4.9898,-4.9481,-4.878,-4.878,-4.8325,0.0,0.0,0.0,0.0,0.0,0.0,0.0,0.0,0.0,0.0,0.0,0.0,0.0,0.0,0.0,0.0,0.0,0.0,0.0,0.0,0.0,0.0,0.0,-4.3986,-4.3707,-4.3579,-4.3356,-4.3069,-4.2772,-4.2559,0.0,-4.1753,-4.1418,-4.1117,-4.0918,-4.0583,-4.0138,-3.9662,-3.9259,-3.8876,-3.8504,-3.8448,-3.8448,-3.8391,-3.8391,-3.8391,-3.8391,-3.8391,-3.8391,-3.8391,-3.8391,-3.8391,-3.8391,-3.852,-3.8616,-3.8616,-3.8504,-3.8544,-3.8805,-3.8805,-3.8969,-3.9272,-3.9272,-3.9272,-3.9325,-3.9782,-3.9731,-3.9325,-3.9782,-4.0302,-4.0754,-4.0252,-4.0351,-4.0802,-4.0802,-4.0449,-4.0003,-3.9952,-3.9952,-3.9902,0.0,0.0,0.0,0.0,0.0,0.0,0.0,0.0,0.0,0.0,-5.0031,-4.9986,-4.9933,-4.9933,-4.9906,0.0,0.0,0.0,0.0,0.0,0.0,0.0,0.0,0.0,-4.9537,-4.9233,-4.9201,-4.9537,-4.9537,-4.9655,-4.9898,-4.9898,-4.9784,-4.9614,-4.9614,-4.9481,0.0,0.0,0.0,0.0,0.0,0.0,0.0,0.0,0.0,0.0,-4.6184,-4.5786,0.0,0.0,0.0,0.0,0.0,0.0,0.0,0.0,-4.3268,-4.3232,-4.341,0.0,-4.3032,-4.2996,-4.2772,-4.2404,0.0,-4.199,-4.1839,-4.1226,-4.1163,-4.1117,-4.0918,-4.0583,-4.0138,-3.9662,-3.9259,-3.8969,-3.886,-3.8876,-3.8766,-3.8448,-3.8391,-3.8391,-3.8391,-3.8391,-3.8391,-3.8391,-3.8391,-3.8391,-3.8391,-3.852,-3.8616,-3.8616,-3.8655,-3.875,-3.8805,-3.8914,-3.8969,-3.9077,-3.9218,-3.9272,-3.9325,-3.9782,-3.9731,-3.9325,-3.9782,-4.0302,-4.0802,-4.0659,-4.0707,-4.0802,-4.0802,-4.0449,-3.9969,-3.9592,-3.9679,-3.9902,0.0,0.0,0.0,0.0,0.0,0.0,0.0,0.0,0.0,0.0,0.0,0.0,0.0,0.0,0.0,0.0,0.0,0.0,0.0,0.0,0.0,0.0,0.0,-4.9625,-4.9625,-4.9283,-4.9252,-4.9625,-4.9476,-4.9566,-4.9898,-4.9898,-4.9898,-4.9898,-4.9898,-4.9898,0.0,0.0,0.0,0.0,-4.8723,0.0,0.0,0.0,0.0,0.0,-4.6833,-4.613,0.0,-4.5125,-4.4431,-4.3703,0.0,0.0,0.0,0.0,-4.2806,-4.2595,-4.2595,-4.248,-4.2404,-4.258,-4.1985,-4.134,-4.1213,-4.1094,-4.0908,-4.0417,-4.0368,-4.0417,-4.0336,-3.9952,-3.9609,-3.9365,-3.8969,-3.8711,-3.8711,-3.8711,-3.8655,-3.8464,-3.8391,-3.8391,-3.8391,-3.8391,-3.8391,-3.8391,-3.8391,-3.8464,-3.852,-3.8616,-3.8711,-3.8766,-3.8931,-3.8985,-3.8914,-3.8969,-3.904,-3.9148,-3.9272,-3.9272,-3.9325,-3.9782,-3.9731,-3.9325,-3.9782,-4.0302,-4.0802,-4.0802,-4.0802,-4.0802,-4.1036,-4.0832,-4.0302,-3.9782,-3.9919,-4.0252,0.0,0.0,0.0,0.0,0.0,0.0,0.0,0.0,0.0,0.0,0.0,0.0,0.0,0.0,0.0,0.0,0.0,0.0,0.0,0.0,0.0,0.0,-4.9778,-4.9722,-4.9722,-4.9377,-4.9365,-4.9665,-4.9488,-4.9566,-4.9824,-4.9898,-4.9898,-4.9898,-4.9898,-4.9898,0.0,-4.9898,-4.9898,-4.9898,-4.9898,0.0,0.0,0.0,0.0,0.0,0.0,0.0,0.0,-4.5244,-4.4358,-4.3301,-4.3301,0.0,0.0,0.0,0.0,0.0,-4.1683,-4.1525,-4.1534,-4.2015,-4.1196,-4.0317,-4.0431,-4.0186,-3.9851,-3.9662,-3.961,-3.961,-3.961,-3.9259,-3.9023,-3.9023,-3.8655,-3.8391,-3.8391,-3.8391,-3.8391,-3.8391,-3.8391,-3.8391,-3.8391,-3.8391,-3.8391,-3.8391,-3.8391,-3.8448,-3.856,-3.8711,-3.886,-3.8969,-3.9218,-3.9218,-3.904,-3.904,-3.9148,-3.9272,-3.9272,-3.9325,-3.9415,-3.9817,-3.9765,-3.9415,-3.9817,-4.0302,-4.0802,-4.0802,-4.0802,-4.0849,-4.1248,-4.1157,-4.0707,-4.0103,-4.0269,-4.0659,0.0,0.0,0.0,0.0,0.0,0.0,0.0,0.0,0.0,0.0,0.0,0.0,0.0,0.0,0.0,0.0,0.0,0.0,0.0,0.0,0.0,-4.9898,-4.9309,-4.8986,-4.8986,-4.8641,-4.8514,-4.8532,-4.9123,-4.9446,-4.9457,-4.9769,-4.9898,-4.9898,-4.9898,-4.9898,-4.9898,-4.9898,-4.9898,-4.9898,-4.9898,0.0,0.0,0.0,0.0,0.0,0.0,0.0,0.0,-4.5031,-4.3853,-4.2808,-4.2808,0.0,0.0,0.0,0.0,0.0,-4.0638,-4.0152,-3.9952,-4.0703,-4.0563,-4.0204,-3.9868,-3.9697,-3.9645,-3.961,-3.961,-3.961,-3.961,-3.9259,-3.9023,-3.9023,-3.8655,-3.8391,-3.8391,-3.8391,-3.8391,-3.8391,-3.8391,-3.8391,-3.8391,-3.8391,-3.8391,-3.8391,-3.8391,-3.8448,-3.856,-3.8711,-3.886,-3.8969,-3.9218,-3.9272,-3.9272,-3.9272,-3.9272,-3.9272,-3.9272,-3.9504,-3.9919,-3.9952,-3.9952,-3.9919,-3.9952,-4.0302,-4.0802,-4.0802,-4.0802,-4.0802,-4.0896,-4.0849,-4.0707,-3.9747,-3.9986,-4.0659,0.0,0.0,0.0,0.0,0.0,0.0,0.0,0.0,0.0,0.0,0.0,0.0,0.0,0.0,0.0,0.0,0.0,0.0,0.0,0.0,-4.9824,-4.9655,-4.9315,-4.9201,-4.9389,-4.885,-4.8765,-4.915,-4.9315,-4.9506,-4.9683,-4.9824,-4.9797,-4.9625,-4.9625,-4.9625,-4.9625,-4.9389,-4.9358,-4.9469,0.0,0.0,0.0,0.0,0.0,0.0,0.0,0.0,0.0,0.0,-4.38,-4.2454,-4.2315,0.0,0.0,0.0,0.0,0.0,-4.0218,-3.9834,-3.9542,-3.9697,-3.9523,-3.9292,-3.9365,-3.9206,-3.9061,-3.8952,-3.9007,-3.9061,-3.8952,-3.8805,-3.8655,-3.8655,-3.8504,-3.8391,-3.8391,-3.8391,-3.8391,-3.8391,-3.8391,-3.8391,-3.8391,-3.8391,-3.8391,-3.8391,-3.8391,-3.8504,-3.8711,-3.875,-3.8914,-3.9148,-3.9272,-3.9272,-3.9272,-3.9272,-3.9272,-3.9272,-3.9272,-3.9415,-3.9644,-3.9644,-3.9644,-3.9644,-3.9919,-4.0302,-4.0802,-4.0802,-4.0802,-4.0754,-4.0497,-4.0351,-4.0302,-3.9833,-3.9782,-3.9901,0.0,0.0,0.0,0.0,0.0,0.0,0.0,0.0,0.0,0.0,0.0,0.0,0.0,0.0,0.0,0.0,0.0,0.0,0.0,-4.9898,-4.9797,-4.9537,-4.9446,-4.9427,-4.9529,-4.9052,-4.9052,-4.9529,-4.9346,-4.9457,-4.9769,-4.9693,-4.9548,-4.9415,-4.9302,-4.9252,-4.9169,-4.8866,-4.8832,-4.8952,0.0,0.0,0.0,0.0,0.0,0.0,0.0,0.0,0.0,0.0,0.0,0.0,0.0,0.0,0.0,-4.072,-4.0285,-3.9902,-3.9697,-3.9454,-3.9259,-3.8969,-3.8711,-3.86,-3.8756,-3.8511,-3.8262,-3.8017,-3.8075,-3.8148,-3.8148,-3.8148,-3.8148,-3.8148,-3.8017,-3.796,-3.796,-3.796,-3.796,-3.796,-3.796,-3.796,-3.796,-3.796,-3.8091,-3.8205,-3.8262,-3.8432,-3.8805,-3.886,-3.8985,-3.9272,-3.9272,-3.9272,-3.9272,-3.9272,-3.9272,-3.9272,-3.9272,-3.9379,-3.9451,-3.9379,-3.9379,-3.9451,-3.9731,-4.0203,-4.0802,-4.0659,-4.0707,-4.0754,-4.0203,-4.0003,-4.0003,-4.0003,-3.9765,-3.9468,0.0,0.0,0.0,0.0,0.0,0.0,0.0,0.0,0.0,0.0,0.0,0.0,0.0,0.0,0.0,0.0,0.0,0.0,0.0,-4.9898,-4.9898,-4.9871,-4.9566,-4.909,-4.8439,-4.8658,-4.8694,-4.8402,-4.8694,-4.9038,-4.9446,-4.9052,-4.9071,-4.9365,-4.9005,-4.8763,-4.8655,-4.862,-4.8603,-4.8531,-4.8531,0.0,0.0,0.0,0.0,0.0,0.0,0.0,0.0,0.0,0.0,0.0,0.0,0.0,-4.0053,-3.9629,-3.9295,-3.9023,-3.86,-3.8504,-3.8504,-3.8616,-3.8766,-3.8694,-3.7754,-3.7535,-3.7282,-3.6692,-3.6707,-3.6982,-3.7417,-3.7476,-3.7476,-3.7476,-3.6951,-3.6569,-3.6569,-3.6569,-3.6569,-3.6569,-3.6569,-3.6569,-3.6569,-3.6707,-3.7027,-3.7605,-3.7812,-3.823,-3.8969,-3.8969,-3.9094,-3.9272,-3.9272,-3.9272,-3.9272,-3.9272,-3.9272,-3.9272,-3.9272,-3.9556,-3.9902,-3.9504,-3.9556,-3.9919,-3.9504,-3.9901,-4.0754,-4.0252,-4.0351,-4.0754,-4.0203,-4.0003,-4.0003,-4.0003,-4.0003,-3.9868,0.0,0.0,0.0,0.0,0.0,0.0,0.0,0.0,0.0,0.0,0.0,0.0,0.0,0.0,0.0,0.0,0.0,0.0,0.0,-4.9898,-4.9797,-4.9596,-4.9476,-4.9155,-4.8623,-4.8971,-4.8971,-4.8623,-4.8971,-4.9104,-4.9038,-4.9123,-4.9104,-4.9005,-4.8658,-4.8458,-4.8402,-4.8135,-4.8056,-4.8078,-4.8078,-4.7919,0.0,0.0,0.0,0.0,0.0,0.0,0.0,0.0,-4.3191,-4.1383,-4.1185,-4.0511,-3.98,-3.9295,-3.8969,-3.8727,-3.8448,-3.8391,-3.8391,-3.8448,-3.8246,-3.8059,-3.8132,-3.7812,-3.7429,-3.7087,-3.6906,-3.6845,-3.6982,-3.7027,-3.7087,-3.6982,-3.6723,-3.66,-3.66,-3.66,-3.66,-3.66,-3.6646,-3.689,-3.731,-3.7011,-3.7251,-3.8254,-3.8042,-3.823,-3.8969,-3.9023,-3.9094,-3.9272,-3.9272,-3.9272,-3.9272,-3.9272,-3.9272,-3.9272,-3.9272,-3.9415,-3.9556,-3.9362,-3.9415,-3.954,-3.9696,-3.9969,-4.0302,-4.0103,-4.0103,-4.0252,-3.9731,-3.954,-3.954,-3.954,-3.954,-3.9556,0.0,0.0,0.0,0.0,0.0,0.0,0.0,0.0,0.0,0.0,0.0,0.0,0.0,0.0,0.0,0.0,0.0,0.0,-4.9898,-4.9898,-4.9797,-4.9566,-4.9566,-4.9377,-4.9005,-4.9346,-4.9315,-4.8816,-4.899,-4.899,-4.8816,-4.8834,-4.8765,-4.8623,-4.8249,-4.8072,-4.7974,-4.7681,-4.7536,-4.756,-4.756,-4.7475,0.0,0.0,0.0,0.0,0.0,0.0,0.0,0.0,-4.274,-4.1076,-4.0672,-3.9986,-3.9295,-3.8914,-3.8727,-3.856,-3.852,-3.8448,-3.8448,-3.8448,-3.7902,-3.7535,-3.8075,-3.7562,-3.6935,-3.66,-3.6538,-3.6538,-3.6477,-3.6477,-3.6477,-3.6477,-3.629,-3.6117,-3.6117,-3.6117,-3.6117,-3.6054,-3.6165,-3.6415,-3.6845,-3.6707,-3.7071,-3.8197,-3.81,-3.8327,-3.904,-3.9077,-3.9148,-3.9272,-3.9272,-3.9272,-3.9272,-3.9272,-3.9272,-3.9272,-3.9272,-3.9272,-3.9272,-3.9272,-3.9272,-3.9325,-3.9644,-3.9868,-4.0003,-3.9817,-3.9782,-3.9731,-3.9415,-3.9362,-3.9504,-3.9362,-3.9415,-3.9504,0.0,0.0,0.0,0.0,0.0,0.0,0.0,0.0,0.0,0.0,0.0,0.0,0.0,0.0,0.0,0.0,0.0,0.0,-4.9898,-4.9898,-4.9898,-4.9898,-4.9898,-4.9741,-4.9415,-4.9741,-4.9558,-4.8816,-4.8458,-4.8458,-4.8781,-4.8053,-4.7929,-4.8267,-4.7888,-4.7554,-4.7302,-4.7302,-4.7187,-4.698,-4.698,-4.6998,-4.6998,0.0,0.0,0.0,0.0,0.0,0.0,0.0,-4.1608,-4.0234,-3.9749,-3.9044,-3.8391,-3.8391,-3.8504,-3.8616,-3.8616,-3.856,-3.856,-3.856,-3.796,-3.7417,-3.7417,-3.6492,-3.5509,-3.4817,-3.5249,-3.5737,-3.5864,-3.58,-3.5752,-3.5849,-3.5365,-3.4935,-3.4935,-3.4935,-3.4868,-3.4698,-3.4698,-3.4698,-3.4698,-3.5429,-3.6212,-3.7071,-3.7822,-3.859,-3.9272,-3.9272,-3.9272,-3.9272,-3.9272,-3.9272,-3.9272,-3.9272,-3.9272,-3.9272,-3.9272,-3.9272,-3.9272,-3.9272,-3.9272,-3.9272,-3.9272,-3.954,-3.9969,-3.9504,-3.9272,-3.9272,-3.9272,-3.9592,-3.9969,-3.9451,-3.9592,-3.9919,0.0,0.0,0.0,0.0,0.0,0.0,0.0,0.0,0.0,0.0,0.0,0.0,0.0,0.0,0.0,0.0,0.0,0.0,-4.9898,-4.9898,-4.9898,-4.9898,-4.9683,-4.9625,-4.9741,-4.9625,-4.9315,-4.8816,-4.8676,-4.8586,-4.8421,-4.8229,-4.819,-4.8267,-4.7888,-4.7657,-4.7572,-4.7572,-4.7425,-4.7232,-4.7232,-4.7116,-4.6926,0.0,0.0,0.0,0.0,0.0,0.0,0.0,0.0,0.0,-3.9697,-3.9206,-3.8639,-3.8448,-3.8464,-3.8448,-3.8448,-3.8221,-3.7934,-3.7786,-3.6966,-3.618,-3.618,-3.5864,-3.535,-3.4935,-3.5001,-3.5184,-3.5379,-3.5474,-3.5539,-3.5394,-3.5264,-3.5082,-3.5082,-3.5082,-3.5082,-3.5096,-3.5162,-3.5589,-3.6523,-3.6006,-3.6243,-3.7822,-3.7764,-3.7764,-3.7953,-3.8788,-3.9077,-3.859,-3.9023,-3.9272,-3.9272,-3.9272,-3.9272,-3.9272,-3.9272,-3.9272,-3.9272,-3.9272,-3.9272,-3.9272,-3.9272,-3.9362,-3.9504,-3.9379,-3.9272,-3.9272,-3.9272,-3.9362,-3.9504,-3.9379,-3.9362,-3.9504,0.0,0.0,0.0,0.0,0.0,0.0,0.0,0.0,0.0,0.0,-4.9898,-4.9898,0.0,0.0,0.0,0.0,0.0,0.0,0.0,-4.9898,-4.9898,-4.9898,-4.9712,-4.9712,-4.9898,-4.9712,-4.9408,-4.9038,-4.8765,-4.8569,-4.8495,-4.819,-4.805,-4.805,-4.7824,-4.7657,-4.7615,-4.7615,-4.7468,-4.7214,-4.6891,-4.6695,-4.6427,0.0,0.0,0.0,0.0,0.0,0.0,0.0,0.0,0.0,-3.9454,-3.9007,-3.8655,-3.86,-3.8504,-3.8448,-3.8319,-3.796,-3.7594,-3.7326,-3.6477,-3.5623,-3.5429,-3.5365,-3.5234,-3.5067,-3.5001,-3.5082,-3.5148,-3.5294,-3.5359,-3.5359,-3.5294,-3.5294,-3.5294,-3.5294,-3.5294,-3.5213,-3.5294,-3.5653,-3.6477,-3.6085,-3.6258,-3.7472,-3.7488,-3.7472,-3.7764,-3.8479,-3.8843,-3.8717,-3.9077,-3.9272,-3.9272,-3.9272,-3.9272,-3.9272,-3.9272,-3.9272,-3.9272,-3.9272,-3.9272,-3.9272,-3.9272,-3.9272,-3.9272,-3.9272,-3.9272,-3.9272,-3.9272,-3.9272,-3.9272,-3.9272,-3.9272,-3.9272,0.0,0.0,0.0,0.0,0.0,0.0,0.0,0.0,0.0,0.0,-4.9898,-4.9898,0.0,0.0,0.0,0.0,0.0,0.0,0.0,-4.9898,-4.9898,-4.9898,-4.9898,-4.9898,-4.9898,-4.9898,-4.9741,-4.9415,-4.8731,-4.8532,-4.8746,-4.8053,-4.7759,-4.7717,-4.7717,-4.7615,-4.7511,-4.7511,-4.7345,-4.7017,-4.6239,-4.5811,-4.5561,-4.4715,0.0,0.0,0.0,0.0,0.0,0.0,0.0,0.0,-3.9115,-3.8711,-3.8504,-3.8711,-3.8655,-3.8448,-3.8116,-3.7796,-3.7413,-3.7055,-3.6352,-3.5494,-3.5052,-3.5082,-3.5213,-3.5213,-3.5213,-3.5213,-3.5213,-3.5213,-3.5294,-3.5439,-3.5504,-3.5504,-3.5504,-3.5504,-3.5439,-3.5228,-3.5213,-3.5213,-3.5279,-3.5831,-3.6196,-3.6368,-3.7011,-3.7589,-3.8108,-3.8278,-3.8645,-3.9202,-3.9272,-3.9272,-3.9272,-3.9272,-3.9272,-3.9272,-3.9272,-3.9272,-3.9272,-3.9272,-3.9272,-3.9272,-3.9272,-3.9272,-3.9272,-3.9272,-3.9272,-3.9272,-3.9272,-3.9272,-3.9272,-3.9272,-3.9272,-3.9272,0.0,0.0,0.0,0.0,0.0,0.0,0.0,0.0,0.0,0.0,0.0,0.0,0.0,0.0,0.0,0.0,0.0,0.0,0.0,-4.9898,-4.9898,-4.9898,-4.9898,-4.9898,-4.9898,-4.9898,-4.9741,-4.9415,-4.9239,-4.8887,-4.8402,-4.8267,-4.801,-4.7717,-4.7717,-4.7615,-4.7511,-4.7511,-4.7021,-4.6203,-4.5622,-4.4951,-4.4212,-4.3419,-4.2893,0.0,0.0,0.0,0.0,0.0,0.0,0.0,-3.8969,-3.8805,-3.8694,-3.8544,-3.8221,-3.7876,-3.7817,-3.7178,-3.643,-3.6228,-3.5752,-3.5279,-3.5148,-3.5294,-3.5359,-3.5213,-3.5213,-3.5228,-3.5439,-3.5439,-3.5439,-3.5504,-3.5504,-3.5504,-3.5504,-3.5504,-3.5504,-3.5439,-3.5439,-3.5604,-3.607,-3.5846,-3.5846,-3.6368,-3.7011,-3.7251,-3.6829,-3.8254,-3.8898,-3.8535,-3.9023,-3.9272,-3.9272,-3.9272,-3.9272,-3.9272,-3.9272,-3.9272,-3.9272,-3.9272,-3.9272,-3.9272,-3.9272,-3.9272,-3.9272,-3.9272,-3.9272,-3.9272,-3.9272,-3.9272,-3.9272,-3.9272,-3.9272,-3.9272,0.0,0.0,0.0,0.0,0.0,0.0,0.0,0.0,0.0,0.0,0.0,0.0,0.0,0.0,0.0,0.0,0.0,0.0,0.0,0.0,-4.9898,-4.9898,-4.9898,-4.9898,-4.9898,-4.9741,-4.9596,-4.9415,-4.922,-4.8834,-4.8306,-4.8111,-4.7888,-4.7717,-4.7717,-4.7615,-4.7475,-4.7096,-4.6406,-4.5543,-4.4509,-4.3641,-4.2875,-4.2108,-4.1626,-4.1354,-4.0651,0.0,0.0,0.0,0.0,0.0,0.0,0.0,-3.8711,-3.8838,-3.8504,-3.8049,-3.7653,-3.7042,-3.6368,-3.5752,-3.5459,-3.5359,-3.5359,-3.5439,-3.5439,-3.5359,-3.5359,-3.5359,-3.5504,-3.5504,-3.5504,-3.5504,-3.5504,-3.5504,-3.5504,-3.5504,-3.5504,-3.5504,-3.5504,-3.5619,-3.591,-3.5668,-3.5619,-3.5973,-3.6321,-3.6616,-3.6829,-3.7838,-3.8495,-3.8772,-3.9148,-3.9272,-3.9272,-3.9272,-3.9272,-3.9272,-3.9272,-3.9272,-3.9272,-3.9272,-3.9272,-3.9272,-3.9272,-3.9272,-3.9272,-3.9272,-3.9272,-3.9272,-3.9272,-3.9272,-3.9272,-3.9272,-3.9272,-3.9272,0.0,0.0,0.0,0.0,0.0,0.0,0.0,0.0,0.0,0.0,0.0,0.0,0.0,0.0,0.0,0.0,0.0,0.0,0.0,0.0,0.0,-4.9898,-4.9898,-4.9898,-4.9898,-4.9566,-4.9384,-4.9302,-4.8903,-4.8532,-4.819,-4.7929,-4.7783,-4.7717,-4.7717,-4.7615,-4.7457,-4.6645,-4.5791,-4.4876,-4.3374,-4.2312,-4.1567,-4.0899,-4.0611,-4.0514,-4.0103,-3.9952,-3.9817,-3.9415,0.0,0.0,0.0,0.0,-3.8727,-3.911,-3.8876,-3.8375,-3.7679,-3.7191,-3.6538,-3.5524,-3.5359,-3.5504,-3.5504,-3.5504,-3.5504,-3.5504,-3.5504,-3.5504,-3.5504,-3.5504,-3.5504,-3.5504,-3.5504,-3.5504,-3.5504,-3.5504,-3.5504,-3.5504,-3.5504,-3.5504,-3.5504,-3.5504,-3.5504,-3.5504,-3.5619,-3.6148,-3.737,-3.7488,-3.8084,-3.9272,-3.9272,-3.9272,-3.9272,-3.9272,-3.9272,-3.9272,-3.9272,-3.9272,-3.9272,-3.9272,-3.9272,-3.9272,-3.9272,-3.9272,-3.9272,-3.9272,-3.9272,-3.9272,-3.9272,-3.9272,-3.9272,-3.9272,-3.9272,-3.9272,0.0,0.0,0.0,0.0,0.0,0.0,0.0,0.0,0.0,0.0,-4.9607,-4.9588,0.0,0.0,0.0,0.0,0.0,0.0,-4.9879,0.0,0.0,-4.9898,-4.9898,-4.9898,-4.9898,-4.9566,-4.922,-4.8885,-4.8532,-4.8151,-4.7783,-4.809,-4.8032,-4.7717,-4.7717,-4.7615,-4.7457,-4.6645,-4.5505,-4.4107,-4.276,-4.1443,-4.0239,-4.0137,-3.9833,-3.9556,-3.9868,-3.9731,-3.9362,-3.9325,-3.9272,0.0,0.0,0.0,-3.8931,-3.886,-3.8511,-3.8173,-3.8042,-3.7266,-3.6305,-3.5619,-3.5504,-3.5504,-3.5504,-3.5504,-3.5504,-3.5504,-3.5504,-3.5504,-3.5504,-3.5504,-3.5504,-3.5504,-3.5504,-3.5504,-3.5504,-3.5504,-3.5504,-3.5504,-3.5504,-3.5504,-3.5504,-3.5504,-3.5504,-3.5504,-3.5958,-3.66,-3.737,-3.7879,-3.8535,-3.9272,-3.9272,-3.9272,-3.9272,-3.9272,-3.9272,-3.9272,-3.9272,-3.9272,-3.9272,-3.9272,-3.9272,-3.9272,-3.9272,-3.9272,-3.9272,-3.9272,-3.9272,-3.9272,-3.9272,-3.9272,-3.9272,-3.9272,-3.9272,-3.9272,0.0,0.0,0.0,0.0,0.0,0.0,0.0,0.0,0.0,0.0,0.0,-4.9488,0.0,0.0,0.0,-4.9683,-4.9683,-4.9741,-4.9879,-4.9898,-4.9824,-4.9625,-4.9625,-4.9499,-4.9277,-4.8956,-4.8713,-4.8532,-4.8151,-4.7847,-4.7699,-4.7888,-4.7866,-4.7717,-4.7717,-4.7362,-4.6729,-4.5584,-4.428,-4.2847,-4.1495,-4.0442,-3.9713,-3.9644,-3.952,-3.9432,-3.9556,-3.9468,-3.9272,-3.9272,-3.9272,-3.9272,-3.9218,0.0,0.0,0.0,-3.8067,-3.7488,-3.7207,-3.6554,-3.5846,-3.5569,-3.5504,-3.5504,-3.5504,-3.5504,-3.5504,-3.5504,-3.5504,-3.5504,-3.5504,-3.5504,-3.5504,-3.5504,-3.5504,-3.5504,-3.5504,-3.5504,-3.5504,-3.5504,-3.5797,-3.6022,-3.6022,-3.6321,-3.6554,-3.6554,-3.6784,-3.7251,-3.7879,-3.8165,-3.859,-3.9272,-3.9272,-3.9272,-3.9272,-3.9272,-3.9272,-3.9272,-3.9272,-3.9272,-3.9272,-3.9272,-3.9272,-3.9272,-3.9272,-3.9272,-3.9272,-3.9272,-3.9325,-3.9379,-3.9325,-3.9379,-3.9537,-3.9432,-3.9484,-3.952,0.0,0.0,0.0,0.0,0.0,0.0,0.0,0.0,0.0,0.0,0.0,0.0,0.0,0.0,0.0,0.0,-4.9769,-4.9797,-4.9879,-4.9898,-4.9741,-4.9396,-4.9415,-4.922,-4.8816,-4.8458,-4.8306,-4.8306,-4.7888,-4.7717,-4.7717,-4.7717,-4.7717,-4.7699,-4.75,-4.6922,-4.6104,-4.4617,-4.324,-4.1899,-4.069,-3.9935,-3.9537,-3.9432,-3.9484,-3.9537,-3.9379,-3.9325,-3.9325,-3.9325,-3.9272,-3.9272,-3.9272,-3.886,0.0,0.0,0.0,-3.7235,-3.66,-3.6085,-3.5668,-3.5569,-3.5504,-3.5504,-3.5504,-3.5504,-3.5569,-3.5683,-3.5619,-3.5569,-3.5668,-3.5619,-3.5504,-3.5504,-3.5504,-3.5504,-3.5504,-3.5504,-3.5569,-3.5748,-3.6148,-3.6492,-3.6662,-3.7131,-3.7429,-3.7429,-3.7429,-3.7648,-3.8294,-3.8278,-3.859,-3.9272,-3.9272,-3.9272,-3.9272,-3.9272,-3.9272,-3.9272,-3.9272,-3.9272,-3.9272,-3.9272,-3.9272,-3.9272,-3.9272,-3.9272,-3.9272,-3.9272,-3.9379,-3.9448,-3.9325,-3.9415,-3.9642,-3.9554,-3.959,-3.9677,0.0,0.0,0.0,0.0,0.0,0.0,0.0,0.0,0.0,0.0,0.0,0.0,-4.8919,-4.9188,-4.9446,-4.9446,-4.9446,-4.9566,-4.9879,-4.9898,-4.9741,-4.9396,-4.9415,0.0,-4.8816,-4.8458,-4.8306,-4.8306,-4.7888,-4.7717,-4.7717,-4.7717,-4.7717,-4.7681,-4.6902,-4.6296,-4.5712,-4.4107,-4.2828,-4.1739,-4.0886,-4.022,-3.9677,-3.9677,-3.9677,-3.9677,-3.9537,-3.9501,-3.9501,-3.9325,-3.9272,-3.9272,-3.9272,-3.9272,-3.9218,0.0,0.0,0.0,-3.6707,-3.6368,-3.6196,-3.5619,-3.5504,-3.5504,-3.5504,-3.5504,-3.5683,-3.6258,-3.591,-3.5683,-3.6258,-3.591,-3.5504,-3.5504,-3.5504,-3.5504,-3.5504,-3.5504,-3.5733,-3.6321,-3.6368,-3.6662,-3.731,-3.737,-3.7429,-3.7429,-3.7429,-3.7648,-3.8294,-3.8278,-3.859,-3.9272,-3.9272,-3.9272,-3.9272,-3.9272,-3.9272,-3.9272,-3.9272,-3.9272,-3.9272,-3.9272,-3.9272,-3.9272,-3.9272,-3.9272,-3.9272,-3.9272,-3.9325,-3.9325,-3.9272,-3.9395,-3.9501,-3.9501,-3.959,-3.9677,0.0,0.0,0.0,0.0,0.0,0.0,0.0,0.0,0.0,0.0,0.0,0.0,0.0,-4.9636,-4.9712,-4.9712,-4.9712,-4.9769,-4.9879,-4.9898,-4.9741,-4.9396,-4.9415,-4.909,-4.8495,-4.8364,-4.8151,-4.7929,-4.7783,-4.7717,-4.7717,-4.7717,-4.7283,-4.6485,-4.6198,-4.5681,-4.491,-4.3142,-4.1851,-4.0971,-4.0289,-3.9952,-3.9833,-3.9729,-3.9729,-3.9798,-3.9694,-3.959,-3.9501,-3.9432,-3.9379,-3.9272,-3.9272,-3.9023,-3.859,-3.8181,-3.7895,-3.7589,-3.7191,-3.6723,-3.6368,-3.6148,-3.6085,-3.6085,-3.6085,-3.643,-3.6784,-3.7027,-3.6845,-3.6784,-3.7011,-3.6211,-3.5619,-3.6022,-3.6085,-3.6196,-3.6677,-3.6723,-3.6784,-3.7011,-3.7354,-3.7706,-3.7937,-3.8367,-3.8623,-3.8623,-3.8623,-3.8717,-3.8952,-3.8952,-3.9023,-3.9272,-3.9272,-3.9272,-3.9272,-3.9272,-3.9272,-3.9272,-3.9272,-3.9272,-3.9272,-3.9272,-3.9272,-3.9272,-3.9272,-3.9272,-3.9325,-3.9379,-3.9484,-3.9573,-3.9573,-3.9677,-3.9884,-3.9798,-3.9833,-3.9986,0.0,0.0,0.0,0.0,0.0,0.0,0.0,0.0,-5.0108,-5.0057,0.0,0.0,0.0,0.0,-4.9898,-4.9898,-4.9898,-4.9852,-4.9741,-4.9741,-4.9529,-4.9071,-4.9057,-4.8767,-4.8169,-4.7855,-4.7696,-4.7717,-4.7446,-4.7446,-4.7699,-4.7428,-4.6765,-4.5757,-4.5072,-4.4378,-4.3623,-4.2094,-4.1057,-4.0434,-4.029,-4.012,-3.9969,-4.0153,-4.0103,-3.9935,-3.9833,-3.9694,-3.9659,-3.959,-3.9537,-3.9432,-3.9379,-3.9023,-3.8535,-3.7895,-3.7706,-3.7663,-3.7488,-3.7071,-3.6723,-3.6723,-3.6723,-3.6723,-3.6723,-3.7071,-3.7488,-3.7648,-3.7546,-3.7488,-3.7648,-3.6845,-3.6258,-3.6662,-3.6723,-3.689,-3.737,-3.7429,-3.7488,-3.7648,-3.8051,-3.8407,-3.859,-3.9023,-3.9272,-3.9272,-3.9272,-3.9272,-3.9272,-3.9272,-3.9272,-3.9272,-3.9272,-3.9272,-3.9272,-3.9272,-3.9272,-3.9272,-3.9272,-3.9272,-3.9272,-3.9325,-3.9379,-3.9379,-3.9432,-3.9379,-3.9325,-3.9395,-3.9484,-3.9625,-3.9625,-3.9781,-4.0037,-3.9935,-3.9986,-4.007,0.0,0.0,0.0,0.0,0.0,0.0,0.0,0.0,-5.0182,-5.0108,0.0,0.0,0.0,0.0,0.0,-4.9898,-4.9879,-4.9741,-4.9396,-4.9396,-4.909,-4.8458,-4.8364,-4.8208,-4.7902,-4.7021,-4.692,-4.7717,-4.692,-4.692,-4.7663,-4.6866,-4.6242,-4.5632,-4.3597,-4.2428,-4.1919,-4.1112,-4.0531,-4.0138,-4.0899,-4.0764,-4.0239,-4.095,-4.0781,-4.0138,-4.0002,-3.9968,-3.9968,-3.9796,-3.9728,-3.9711,-3.9554,-3.9379,-3.9148,-3.8535,-3.8351,-3.8165,0.0,0.0,0.0,-3.7429,-3.7429,-3.7429,-3.7429,-3.7429,-3.7589,-3.8238,-3.7879,-3.7663,-3.8222,-3.7822,-3.7488,-3.7488,-3.7429,-3.7413,-3.7429,-3.7488,-3.7648,-3.8278,-3.8351,-3.859,-3.9218,-3.9272,-3.9272,-3.9272,-3.9272,-3.9272,-3.9272,-3.9272,-3.9272,-3.9272,-3.9272,-3.9272,-3.9272,-3.9272,-3.9272,-3.9325,-3.9325,-3.9325,-3.9325,-3.9448,-3.9501,-3.9484,-3.9625,-3.952,-3.9325,-3.9325,-3.9379,-3.9501,-3.9501,-3.9694,-3.9901,-3.9901,-3.9986,-4.007,0.0,0.0,0.0,0.0,0.0,-5.0617,-5.0617,-5.0407,-5.0255,0.0,0.0,0.0,-5.0082,-5.0057,-4.9833,-4.9315,-4.9529,-4.9539,-4.9201,-4.9169,-4.9104,-4.8919,-4.8903,-4.8694,-4.8269,-4.8011,-4.7834,-4.7717,-4.7482,-4.7192,-4.683,-4.6613,-4.5462,-4.3544,-4.2986,-4.1945,-4.061,-4.0389,-4.0221,-4.0138,-4.0899,-4.1137,-4.1104,-4.1764,-4.1899,-4.1817,-4.1677,-4.1589,-4.1499,-4.1429,-4.097,-4.0221,-3.9545,-3.9325,-3.9272,-3.9094,-3.9023,-3.8969,-3.8788,0.0,0.0,0.0,0.0,0.0,-3.8051,-3.8423,-3.8788,-3.8969,-3.8898,-3.886,-3.8969,-3.8914,-3.8788,-3.8788,-3.8367,-3.8238,-3.8733,-3.8788,-3.886,-3.9023,-3.9023,-3.9094,-3.9272,-3.9272,-3.9272,-3.9272,-3.9272,-3.9272,-3.9272,-3.9272,-3.9272,-3.9272,-3.9272,-3.9272,-3.9272,-3.9272,-3.9325,-3.9432,-3.9432,-3.9484,-3.9573,-3.9642,-3.9625,-3.9642,-3.9677,-3.9677,-3.9573,-3.9694,-3.9746,-3.9798,-3.9884,-3.9986,-4.0037,-4.0037,-4.0087,-4.007,0.0,0.0,0.0,-5.0302,-5.0302,-5.0302,-5.0302,-5.0302,-5.0278,0.0,0.0,0.0,-4.9914,-4.9887,-4.9674,-4.9104,-4.9265,-4.9246,-4.8903,-4.8869,-4.8834,-4.8748,-4.8658,-4.855,-4.8326,-4.7919,-4.7743,-4.7759,-4.7373,-4.6975,-4.6504,-4.5977,-4.4632,-4.2685,-4.2125,-4.1436,-4.0544,-4.0544,-4.0544,-4.0646,-4.1764,-4.2106,-4.192,-4.2596,-4.2734,-4.2481,-4.2339,-4.225,-4.2196,-4.2196,-4.1749,-4.1046,-4.0221,-3.9881,-3.9777,-3.9408,-3.9272,-3.9272,-3.9272,-3.9023,-3.8717,-3.8717,0.0,0.0,-3.8827,-3.9131,-3.9484,-3.9484,-3.9432,-3.9379,-3.9379,-3.9325,-3.9272,-3.9272,-3.8969,-3.8843,-3.9272,-3.9272,-3.9272,-3.9272,-3.9272,-3.9272,-3.9272,-3.9272,-3.9272,-3.9272,-3.9272,-3.9272,-3.9272,-3.9272,-3.9272,-3.9272,-3.954,-3.9609,-3.9395,-3.9609,-3.9713,-3.959,-3.959,-3.9625,-3.9677,-3.9781,-3.9781,-3.9781,-3.9833,-3.9884,-3.9884,-3.9935,-3.9935,-3.9901,-3.9986,-4.0037,-4.007,-4.007,-4.007,-4.007,0.0,0.0,-5.0302,-5.0302,-5.0302,-5.0302,-5.0302,-5.0302,-5.0302,0.0,-5.0212,-5.0,-4.9598,-4.9569,-4.9401,-4.9038,-4.9038,-4.8937,-4.8587,-4.855,-4.8458,-4.8226,-4.809,-4.809,-4.8187,-4.7296,-4.7215,-4.7902,-4.7075,-4.6581,-4.6382,-4.5168,-4.3916,-4.2545,-4.1331,-4.0959,-4.1221,-4.1288,-4.1373,-4.1628,-4.309,-4.3263,-4.2754,-4.3501,-4.3365,-4.2736,-4.2594,-4.254,-4.2523,-4.2455,-4.2314,-4.2088,-4.1204,-4.0846,-4.0604,-3.981,-3.9508,-3.9458,-3.9458,-3.9392,-3.9325,-3.9325,-3.9432,0.0,-3.9501,-3.9625,-3.9677,-3.9677,-3.959,-3.9501,-3.9501,-3.9379,-3.9325,-3.9325,-3.9325,-3.9325,-3.9272,-3.9272,-3.9272,-3.9272,-3.9272,-3.9272,-3.9272,-3.9272,-3.9325,-3.9415,-3.9468,-3.9468,-3.9362,-3.9415,-3.9468,-3.9468,-4.0003,-4.0103,-3.9677,-4.022,-4.0269,-3.9867,-3.9816,-3.9816,-3.9816,-3.9884,-3.9901,-3.9952,-4.0037,-4.007,-4.007,-4.007,-4.0037,-3.9901,-3.9901,-3.9986,-4.007,-4.007,-4.007,-4.0087,-5.0302,-5.0302,-5.0302,-5.0302,-5.0302,-5.0302,-5.0302,-5.0302,-5.0302,-5.0302,-5.0051,-4.9721,-4.934,-4.9321,-4.908,-4.842,-4.8658,-4.873,-4.8382,-4.8382,-4.8344,-4.8267,-4.8267,-4.8247,-4.8187,-4.8002,-4.7904,-4.797,-4.7806,-4.7059,-4.5763,-4.5065,-4.3761,-4.1877,-4.1134,-4.0959,-4.1238,-4.183,-4.2492,-4.3209,-4.3569,-4.3639,-4.3678,-4.4337,-4.4562,-4.448,-4.4241,-4.413,-4.4045,-4.3293,-4.3019,-4.2846,-4.1942,-4.1653,-4.1619,-4.1431,-4.098,-4.0528,-4.0528,-4.0077,-3.9625,-3.9625,-3.9625,0.0,-3.9677,-3.9677,-3.9677,-3.9677,-3.9677,-3.9677,-3.9677,-3.9537,-3.9501,-3.9625,-3.9537,-3.9448,-3.9325,-3.9272,-3.9272,-3.9272,-3.9272,-3.9272,-3.9272,-3.9272,-3.9504,-4.0003,-4.0366,-4.0366,-3.9919,-4.0269,-4.0546,-4.059,-4.0685,-4.0763,-4.078,-4.0903,-4.0967,-4.0984,-4.0577,-4.0466,-4.0563,-4.0204,-4.0087,-4.0087,-4.007,-4.007,-4.007,-4.007,-4.007,-4.0087,-4.0087,-4.0087,-4.007,-4.007,-4.007,-4.0155,-5.0302,-5.0302,-5.0302,-5.0302,-5.0302,-5.0302,-5.0302,-5.0302,-5.0302,-5.0302,-5.0144,-4.9903,-4.9531,-4.9512,-4.9333,-4.8816,-4.8781,-4.8711,-4.855,-4.8402,-4.8306,-4.8306,-4.8306,-4.8267,-4.8247,-4.8226,-4.8148,-4.809,-4.8032,-4.7372,-4.6187,-4.5256,-4.4277,-4.3237,-4.2072,-4.1992,-4.2792,-4.2959,-4.3427,-4.4139,-4.4286,-4.4431,-4.4573,-4.4895,-4.5032,-4.5086,-4.4886,-4.4737,-4.4631,-4.4057,-4.3883,-4.3748,-4.2807,-4.2572,-4.245,-4.2026,-4.1619,-4.1335,-4.1335,-4.105,-4.0735,-4.033,-4.0282,0.0,0.0,-3.9833,-3.9884,-3.9884,-3.9833,-3.9781,-3.9781,-3.9694,-3.9642,-3.9677,-3.9867,-3.9952,-3.985,-3.9573,-3.9379,-3.9379,-3.9325,-3.9362,-3.9644,-3.9415,-3.9556,-4.0136,-4.0638,-4.081,-4.0542,-4.0797,-4.0984,-4.0995,-4.1313,-4.1358,-4.1196,-4.1508,-4.1552,-4.1393,-4.1168,-4.0955,-4.0802,-4.058,-4.0303,-4.007,-4.007,-4.007,-4.007,-4.007,-4.007,-4.007,-4.007,-4.007,-4.007,-4.007,-4.0307,-4.0696,-5.0302,-5.0302,-5.0302,-5.0302,-5.0302,-5.0302,-5.0302,-5.0302,-5.0302,-5.0302,-5.0278,-5.012,-4.9857,-4.9757,-4.9627,-4.9345,-4.908,-4.89,-4.8832,-4.855,-4.8402,-4.8306,-4.8306,-4.8306,-4.8306,-4.8247,-4.8226,-4.8226,-4.813,-4.767,-4.6827,-4.568,-4.5101,-4.4862,-4.3376,-4.3328,-4.4418,-4.4044,-4.4241,-4.4869,-4.4978,-4.5086,-4.514,-4.514,-4.5177,-4.514,-4.5032,-4.494,-4.4831,-4.4682,-4.4626,-4.4524,-4.3715,-4.3512,-4.3339,-4.2639,-4.237,-4.2253,-4.2198,-4.2081,-4.1829,-4.1258,-4.1144,-4.1047,0.0,0.0,0.0,-4.0104,-4.0037,-3.9952,-3.9952,-3.9833,-3.9729,-3.9781,-4.0137,-4.0449,-4.0449,-4.0137,-3.9816,-3.9677,-3.9661,-3.9782,-4.0053,-3.9919,-3.9952,-4.0366,-4.092,-4.1268,-4.1223,-4.1331,-4.142,-4.142,-4.1913,-4.1973,-4.1613,-4.2098,-4.2139,-4.1785,-4.1656,-4.1455,-4.1065,-4.0896,-4.058,-4.0221,-4.0121,-4.007,-4.007,-4.007,-4.007,-4.007,-4.007,-4.007,-4.0104,-4.024,-4.0679,-4.1238,-5.0302,-5.0302,-5.0302,-5.0302,-5.0302,-5.0302,-5.0302,-5.0302,-5.0302,-5.0302,-5.01,-4.9936,-4.991,-4.9683,-4.9522,-4.9475,-4.9445,-4.9265,-4.8897,-4.8829,-4.8657,-4.8306,-4.8306,-4.8306,-4.8306,-4.8306,-4.8267,-4.8267,-4.8267,-4.7864,-4.7038,-4.6444,-4.5766,-4.5062,-4.4306,-4.4226,-4.4585,-4.4503,-4.4987,-4.5716,-4.5319,-4.5032,-4.4886,-4.4995,-4.5032,-4.5032,-4.4978,-4.4978,-4.494,-4.4831,-4.4793,-4.472,-4.4524,-4.4546,-4.4584,-4.435,-4.3898,-4.3444,-4.3301,-4.274,-4.2216,-4.2132,-4.2168,-4.1982,-4.1202,0.0,-4.0882,-4.0206,0.0,-4.0087,-4.0087,0.0,0.0,-4.0037,-4.0319,-4.0642,-4.0754,-4.0955,-4.0908,-4.0351,-4.0655,-4.0733,-4.04,-4.1196,-4.149,-4.1041,-4.1973,-4.2374,-4.1839,-4.2192,-4.2454,-4.2591,-4.2688,-4.2709,-4.2711,-4.2806,-4.2788,-4.275,-4.232,-4.2074,-4.2032,-4.1202,-4.0754,-4.0724,-4.0254,-4.007,-4.007,-4.007,-4.007,-4.007,-4.007,-4.007,-4.0155,-4.0832,-4.1136,-4.139,-5.0302,-5.0302,-5.0302,-5.0302,-5.0302,-5.0302,-5.0302,-5.0302,-5.0302,-5.0302,-5.0193,-5.0125,-5.0125,-5.0032,-4.9981,-5.0032,-4.9838,-4.958,-4.9202,-4.9029,-4.8709,-4.8306,-4.8306,-4.8306,-4.8306,-4.8306,-4.8306,-4.8306,-4.8306,-4.8141,-4.7792,-4.7067,-4.6706,-4.6517,-4.5798,-4.5579,-4.5787,-4.5495,-4.5521,-4.5767,-4.558,-4.5442,-4.5302,-4.5247,-4.5247,-4.5194,-4.514,-4.514,-4.5086,-4.4978,-4.4886,-4.4776,-4.4831,-4.4776,-4.4682,-4.4737,-4.4461,-4.4224,-4.4096,-4.4136,-4.3956,-4.3139,-4.3216,-4.3203,-4.2104,-4.183,-4.1627,-4.0882,0.0,0.0,0.0,0.0,0.0,0.0,-4.1258,-4.1525,-4.1587,-4.1973,-4.1913,-4.103,-4.1013,-4.1041,-4.0827,-4.1743,-4.2157,-4.1664,-4.2356,-4.2727,-4.2516,-4.2652,-4.2786,-4.288,-4.288,-4.2862,-4.2882,-4.2882,-4.2882,-4.29,-4.2711,-4.2458,-4.2216,-4.1803,-4.1455,-4.1185,-4.0707,-4.0483,-4.0483,-4.0221,-4.0341,-4.073,-4.073,-4.073,-4.0832,-4.1559,-4.2117,-4.2591,-5.0371,-5.0325,-5.0302,-5.0302,-5.0302,-5.0302,-5.0302,-5.0302,-5.0302,-5.0302,-5.0302,-5.0325,-5.0325,-5.0348,-5.0412,-5.0457,-5.0264,-4.9968,-4.9608,-4.9265,-4.893,-4.864,-4.8439,-4.8364,-4.8458,-4.8364,-4.8306,-4.8306,-4.8306,-4.8306,-4.8306,-4.7719,-4.7584,-4.7779,-4.7175,-4.6922,-4.6963,-4.6578,-4.6323,-4.6275,-4.6098,-4.6,-4.6017,-4.5666,-4.5511,-4.5371,-4.53,-4.5247,-4.5247,-4.5086,-4.4978,-4.494,-4.4978,-4.4886,-4.4793,-4.4831,-4.4831,-4.4737,-4.4682,-4.4944,-4.5041,-4.3969,-4.4124,-4.4147,-4.2867,-4.2591,-4.2388,-4.1696,-4.156,0.0,0.0,0.0,-4.1168,-4.1472,0.0,-4.2198,-4.2198,-4.2577,-4.2577,-4.1656,-4.1464,-4.1446,-4.1578,-4.2239,-4.2573,-4.2262,-4.2613,-4.2842,-4.29,-4.2882,-4.2882,-4.2882,-4.2882,-4.2882,-4.2882,-4.2882,-4.2882,-4.2882,-4.2882,-4.2711,-4.2378,-4.2239,-4.2015,-4.1717,-4.1094,-4.1017,-4.116,-4.0709,-4.0917,-4.1577,-4.1798,-4.1882,-4.1933,-4.2405,-4.2946,-4.3453,-5.05,-5.0393,-5.0302,-5.0302,-5.0302,-5.0302,-5.0302,-5.0302,-5.0302,-5.0302,-5.0367,-5.0412,-5.0412,-5.05,-5.0582,-5.0603,-5.0643,-5.0504,-5.0092,-4.9719,-4.9475,-4.9445,-4.8728,-4.8477,-4.8863,-4.8513,-4.8306,-4.8306,-4.8306,-4.8306,-4.8306,-4.8269,-4.8288,-4.8267,-4.8231,-4.8056,-4.7752,-4.7591,-4.7632,-4.7692,-4.7089,-4.6863,-4.6799,-4.6098,-4.5649,-4.5423,-4.5371,-4.5371,-4.5371,-4.5247,-4.5177,-4.5194,-4.5032,-4.5086,-4.514,-4.5032,-4.5086,-4.5123,-4.4886,-4.4831,-4.4776,-4.4609,-4.4592,-4.4389,-4.3555,-4.3386,-4.322,-4.26,-4.2359,-4.2209,-4.2058,-4.1968,-4.1756,-4.1515,-4.1888,0.0,0.0,-4.2577,-4.2711,-4.2239,-4.2157,-4.232,-4.2806,-4.2882,-4.2882,-4.2882,-4.2882,-4.29,-4.2882,-4.2882,-4.2882,-4.2882,-4.2882,-4.2882,-4.2882,-4.2882,-4.2882,-4.2882,-4.2882,-4.2882,-4.2844,-4.2418,-4.2239,-4.2338,-4.1366,-4.1452,-4.2241,-4.1727,-4.1921,-4.2532,-4.3314,-4.362,-4.362,-4.344,-4.3403,-4.3521,-5.0521,-5.0459,-5.0416,-5.0371,-5.0325,-5.0302,-5.0348,-5.0367,-5.0371,-5.0435,-5.0457,-5.0478,-5.0478,-5.05,-5.0542,-5.0603,-5.0623,-5.0462,-5.0116,-4.9754,-4.9561,-4.9504,-4.8816,-4.8587,-4.8897,-4.8513,-4.8306,-4.8306,-4.8306,-4.8306,-4.8306,-4.8306,-4.8132,-4.7856,-4.8172,-4.8093,-4.7793,-4.7733,-4.7775,-4.7838,-4.7656,-4.7342,-4.6927,-4.6689,-4.6472,-4.6346,-4.6038,-4.5955,-4.5854,-4.5459,-4.5247,-4.5194,-4.5247,-4.514,-4.5086,-4.514,-4.5302,-4.5528,-4.5442,-4.595,-4.6323,-4.5528,-4.5683,-4.5715,-4.469,-4.4439,-4.4363,-4.3975,-4.3853,-4.386,-4.3926,-4.349,-4.3148,-4.3368,-4.3054,-4.2804,0.0,-4.2918,-4.2994,-4.2882,-4.275,-4.2711,-4.2882,-4.2882,-4.2882,-4.2882,-4.2882,-4.2882,-4.2882,-4.2882,-4.2882,-4.2882,-4.2882,-4.2882,-4.2882,-4.2994,-4.3049,-4.3049,-4.3068,-4.3087,-4.3087,-4.292,-4.3,-4.3225,-4.2581,-4.2636,-4.3058,-4.2618,-4.2808,-4.3456,-4.3729,-4.4139,-4.4565,-4.4385,-4.4385,-4.4473,-5.0563,-5.0542,-5.0521,-5.0457,-5.0412,-5.039,-5.0435,-5.0462,-5.0504,-5.05,-5.0525,-5.0545,-5.0521,-5.0521,-5.0542,-5.0603,-5.0623,-5.0544,-5.0336,-4.9974,-4.9808,-4.9924,-4.924,-4.9001,-4.9326,-4.8832,-4.8569,-4.8513,-4.842,-4.8363,-4.8306,-4.8306,-4.8132,-4.7856,-4.8172,-4.821,-4.8075,-4.8053,-4.8132,-4.8212,-4.8174,-4.7941,-4.756,-4.7512,-4.716,-4.6631,-4.6507,-4.6459,-4.6411,-4.602,-4.587,-4.5819,-4.5938,-4.5819,-4.57,-4.5817,-4.5968,-4.6098,-4.613,-4.6589,-4.6945,-4.6161,-4.6323,-4.6436,-4.5442,-4.5319,-4.5252,-4.514,-4.5035,-4.5115,-4.5456,-4.4939,-4.4606,-4.4856,-4.4163,-4.3451,0.0,-4.3123,-4.3178,-4.3356,-4.3142,-4.3013,-4.2975,-4.2975,-4.2975,-4.29,-4.2938,-4.2938,-4.2882,-4.2938,-4.2994,-4.2994,-4.2975,-4.3013,-4.3013,-4.3068,-4.3123,-4.3123,-4.3178,-4.336,-4.3634,-4.3468,-4.3674,-4.4173,-4.3545,-4.3535,-4.3938,-4.351,-4.3751,-4.4367,-4.4367,-4.4658,-4.5032,-4.494,-4.494,-4.4978,-5.0683,-5.0643,-5.0582,-5.0521,-5.05,-5.05,-5.05,-5.0606,-5.0662,-5.0544,-5.0625,-5.0662,-5.0523,-5.0563,-5.0603,-5.0603,-5.0663,-5.0702,-5.0702,-5.0336,-5.0272,-5.0683,-4.9924,-4.9692,-5.0092,-4.9424,-4.9034,-4.8897,-4.8623,-4.8457,-4.8306,-4.8306,-4.8306,-4.8306,-4.8306,-4.8402,-4.8587,-4.8513,-4.8606,-4.8787,-4.8678,-4.8587,-4.8587,-4.8587,-4.7638,-4.6363,-4.6771,-4.6954,-4.6954,-4.6908,-4.6908,-4.6908,-4.6908,-4.6908,-4.6936,-4.6999,-4.699,-4.6936,-4.6847,-4.6837,-4.6735,-4.6542,-4.6553,-4.6507,-4.5933,-4.585,-4.6,-4.6147,-4.6,-4.5998,-4.6595,-4.6331,-4.6019,-4.59,-4.5095,-4.42,-4.3415,-4.3269,-4.3376,-4.366,-4.3426,-4.3214,-4.316,-4.3178,-4.316,-4.2957,-4.3031,-4.3049,-4.2938,-4.3049,-4.3104,-4.3104,-4.3178,-4.3214,-4.3214,-4.3251,-4.3269,-4.3269,-4.3306,-4.3707,-4.4436,-4.3974,-4.4286,-4.5083,-4.4152,-4.4218,-4.49,-4.4506,-4.4699,-4.5194,-4.5194,-4.5194,-4.5177,-4.5086,-4.5032,-4.5032,-5.0721,-5.0702,-5.0663,-5.0643,-5.0563,-5.0521,-5.0582,-5.0682,-5.0786,-5.0789,-5.0839,-5.0839,-5.0805,-5.072,-5.0663,-5.0663,-5.0683,-5.0702,-5.0702,-5.0358,-5.0336,-5.0683,-4.9974,-4.9728,-5.0092,-4.9424,-4.9085,-4.9052,-4.8713,-4.855,-4.8457,-4.8457,-4.8419,-4.8306,-4.8306,-4.8402,-4.8587,-4.8569,-4.8678,-4.8874,-4.8839,-4.8587,-4.8269,-4.8624,-4.8212,-4.747,-4.7614,-4.7656,-4.7614,-4.7255,-4.7106,-4.7106,-4.7106,-4.7106,-4.7124,-4.7132,-4.7367,-4.7656,-4.762,-4.7842,-4.802,-4.762,-4.7536,-4.7434,-4.6955,-4.6864,-4.6955,-4.7367,-4.7391,-4.7482,-4.7915,-4.7423,-4.6908,-4.68,-4.6029,-4.5242,-4.4641,-4.4378,-4.4141,-4.3966,-4.3649,-4.3511,-4.3831,-4.3675,-4.356,-4.3493,-4.3286,-4.3142,-4.3123,-4.3142,-4.3178,-4.3178,-4.3178,-4.3214,-4.3214,-4.3889,-4.4254,-4.4254,-4.4894,-4.5315,-4.5517,-4.5025,-4.5078,-4.5515,-4.4882,-4.4876,-4.5252,-4.5182,-4.5198,-4.5371,-4.5371,-4.5371,-4.5371,-4.5318,-4.5318,-4.5264,-5.081,-5.074,-5.0702,-5.0702,-5.0701,-5.068,-5.0739,-5.0794,-5.0851,-5.0898,-5.0923,-5.0908,-5.0808,-5.0793,-5.0758,-5.0721,-5.0702,-5.0702,-5.0702,-5.0504,-5.0504,-5.0683,-5.0294,-5.0164,-5.0358,-4.9846,-4.9493,-4.9333,-4.9001,-4.8748,-4.855,-4.855,-4.8495,-4.842,-4.842,-4.8532,-4.8697,-4.8714,-4.8785,-4.8909,-4.8909,-4.8714,0.0,-4.8714,-4.8623,-4.8327,-4.8327,-4.8289,-4.8155,-4.7882,-4.7802,-4.7802,-4.7802,-4.7802,-4.7842,-4.7901,-4.8038,-4.8212,-4.8289,-4.8421,-4.855,-4.8289,-4.8251,-4.8174,-4.7638,-4.7554,-4.7679,-4.7919,-4.7959,-4.8117,-4.8767,-4.8327,-4.7666,-4.7186,-4.6671,-4.6177,-4.5675,-4.5346,-4.525,-4.545,-4.5183,-4.5046,-4.5146,-4.4209,-4.3693,-4.3862,-4.3627,-4.3442,-4.3408,-4.3461,-4.3556,-4.3816,-4.3852,-4.3998,-4.44,-4.4894,-4.5187,-4.5187,-4.5663,-4.6085,-4.6397,-4.5721,-4.5717,-4.6185,-4.5453,-4.5251,-4.5423,-4.5423,-4.5423,-4.5423,-4.5423,-4.5423,-4.5423,-4.5423,-4.5423,-4.5371,-5.0932,-5.0808,-5.074,-5.074,-5.0818,-5.0914,-5.0931,-5.0951,-5.0932,-5.0937,-5.0985,-5.0966,-5.0769,-5.0839,-5.0858,-5.074,-5.0702,-5.0702,-5.0702,-5.0702,-5.0702,-5.0702,-5.0702,-5.0702,-5.0702,-5.0358,-5.0024,-4.9645,-4.9363,-4.9038,-4.8642,-4.8642,-4.8642,-4.8587,-4.8587,-4.8678,-4.8839,-4.8925,-4.8993,-4.9008,-4.9008,-4.9008,-4.9008,-4.8959,-4.8978,-4.8959,-4.8909,-4.8785,-4.8623,-4.8623,-4.8623,-4.8623,-4.8623,-4.8623,-4.8678,-4.8787,-4.8732,-4.866,-4.8768,-4.8732,-4.8623,-4.8623,-4.8732,-4.8697,-4.8155,-4.8135,-4.8212,-4.8212,-4.8155,-4.8347,-4.922,-4.8974,-4.8347,-4.7482,-4.7371,-4.7203,-4.6754,-4.6382,-4.6446,-4.7254,-4.7099,0.0,-4.6576,-4.4907,-4.3971,-4.4344,-4.4153,-4.404,-4.4054,-4.4105,-4.4325,-4.4766,-4.4838,-4.5186,-4.5883,-4.5993,-4.6067,-4.6067,-4.6159,-4.6581,-4.7241,-4.6266,-4.6248,-4.6863,-4.5837,-4.5423,-4.5423,-4.5423,-4.5423,-4.5423,-4.5423,-4.5423,-4.5423,-4.5423,-4.5423,-4.5423,-5.0996,-5.0923,-5.0867,-5.094,-5.0919,-5.0966,-5.112,-5.1159,-5.1153,-5.1141,-5.1166,-5.115,-5.1115,-5.0996,-5.0887,-5.0874,-5.0758,-5.0702,-5.0702,-5.0702,-5.0702,-5.0702,-5.0702,-5.0702,-5.0702,-5.0358,-5.0043,-4.9738,-4.948,-4.9141,-4.8768,-4.8768,-4.8697,-4.8587,-4.8587,-4.8818,-4.9137,-4.927,-4.9439,-4.9646,-4.9646,-4.9646,-4.9637,-4.9396,-4.9321,-4.9289,-4.8993,-4.8874,-4.8855,-4.8855,-4.8855,-4.8855,-4.8855,-4.8855,-4.8855,-4.8874,-4.8874,-4.8855,-4.8874,-4.8874,-4.8855,-4.8855,-4.8874,-4.8855,-4.875,-4.8731,-4.875,-4.875,-4.8956,-4.9169,-4.9214,-4.9271,-4.9184,-4.88,-4.8661,-4.8525,-4.8329,-4.7759,-4.7335,-4.7183,-4.7042,-4.6958,-4.6927,-4.6153,-4.567,-4.5722,-4.55,-4.5529,-4.5918,-4.5955,-4.5864,-4.57,-4.5681,-4.5755,-4.5902,-4.6562,-4.6911,-4.6911,-4.7572,-4.7957,-4.8047,-4.7137,-4.6783,-4.6863,-4.5837,-4.5423,-4.5423,-4.5423,-4.5423,-4.5423,-4.5423,-4.5423,-4.5423,-4.5423,-4.5423,-4.5423,-5.1031,-5.0978,-5.0945,-5.0948,-5.101,-5.1078,-5.115,-5.1249,-5.1269,-5.121,-5.1201,-5.12,-5.1156,-5.1092,-5.1047,-5.1001,-5.0874,-5.0798,-5.0798,-5.0778,-5.0758,-5.0758,-5.0758,-5.0758,-5.0758,-5.0586,-5.0363,-5.0068,-4.9803,-4.9469,-4.9094,-4.8943,-4.8804,-4.875,-4.894,-4.9123,-4.9315,-4.951,-4.9665,-4.9803,-4.9803,-4.9803,-4.9803,-4.9655,-4.9529,-4.9384,-4.9225,-4.9061,-4.8909,-4.8909,-4.8909,-4.8909,-4.8909,-4.8909,-4.8909,-4.8909,-4.8909,-4.8909,-4.8909,-4.8909,-4.8909,-4.8909,-4.8909,-4.8909,-4.8909,-4.9027,-4.916,-4.916,-4.9408,-4.955,-4.9435,-4.9475,-4.9504,-4.9314,-4.9145,-4.909,-4.9347,-4.8947,-4.8681,-4.8846,-4.8694,-4.8401,-4.7977,-4.7775,-4.7405,-4.6752,-4.6531,-4.6438,-4.6415,-4.6415,-4.6505,-4.6636,-4.6618,-4.6838,-4.7279,-4.7666,-4.7831,-4.7831,-4.8217,-4.8363,-4.8267,-4.7342,-4.6918,-4.6863,-4.5837,-4.5423,-4.5423,-4.5423,-4.5423,-4.5423,-4.5423,-4.5423,-4.5423,-4.5423,-4.5563,-4.5752,-5.1092,-5.1045,-5.1015,-5.0967,-5.1074,-5.116,-5.1131,-5.1281,-5.1355,-5.1249,-5.1249,-5.1215,-5.1171,-5.118,-5.1174,-5.1126,-5.1009,-5.0941,-5.0948,-5.087,-5.0829,-5.0829,-5.081,-5.0793,-5.0793,-5.0793,-5.0644,-5.032,-5.0111,-4.9757,-4.9377,-4.9188,-4.9108,-4.9123,-4.9377,-4.9558,-4.9627,-4.9857,-4.9968,-5.0019,-5.0019,-5.0019,-4.9993,-4.9943,-4.9776,-4.9569,-4.9499,-4.9315,-4.9108,-4.9108,-4.9027,-4.8909,-4.8909,-4.8909,-4.8909,-4.8909,-4.8909,-4.8909,-4.8909,-4.8909,-4.8909,-4.8909,-4.8959,-4.8993,-4.8993,-4.9239,-4.9488,-4.9488,-4.9712,-4.9846,-4.9754,-4.9781,-4.9781,-4.9608,-4.9424,-4.9483,-4.9949,-4.9746,-4.9746,-5.0355,-5.013,-4.9695,-4.9118,-4.9205,-4.8919,-4.796,-4.7602,-4.7287,-4.6987,-4.702,-4.7218,-4.7592,-4.7574,-4.7905,-4.8587,-4.855,-4.8494,-4.8513,-4.8494,-4.8438,-4.8306,-4.747,-4.7035,-4.689,-4.592,-4.5459,-4.5423,-4.5423,-4.5423,-4.5423,-4.5423,-4.5476,-4.5563,-4.5563,-4.5905,-4.6284,-5.1288,-5.1171,-5.1107,-5.1152,-5.1093,-5.1073,-5.126,-5.1302,-5.1327,-5.1367,-5.1386,-5.1385,-5.1365,-5.1263,-5.1199,-5.1187,-5.1125,-5.1088,-5.1078,-5.0962,-5.0885,-5.0885,-5.0829,-5.0793,-5.0793,-5.0793,-5.0663,-5.0404,-5.0298,-4.9974,-4.9405,-4.9618,-4.9749,-4.983,-4.9857,-5.0019,-5.0298,-5.032,-5.0488,-5.072,-5.072,-5.072,-5.0663,-5.0363,-5.0252,-5.0183,-4.9865,-4.9749,-4.9721,-4.9721,-4.934,-4.8909,-4.8909,-4.8909,-4.8909,-4.8909,-4.8909,-4.8909,-4.8909,-4.8909,-4.8909,-4.8909,-4.9127,-4.9352,-4.9352,-4.9569,-4.9776,-4.9776,-4.9987,-5.0159,-5.0159,-5.038,-5.044,-4.9865,-4.9917,-5.0043,-5.014,-4.9834,-4.9754,-5.0183,-4.9936,-4.9792,-4.9973,-4.9997,-4.9915,-4.9765,-4.9005,-4.8644,-4.8824,-4.8861,-4.8751,-4.8476,-4.8476,-4.8513,-4.8587,-4.8587,-4.855,-4.8513,-4.8569,-4.8532,-4.8457,-4.7715,-4.7237,-4.6955,-4.6133,-4.5598,-4.5423,-4.5423,-4.5423,-4.5423,-4.5423,-4.5718,-4.6137,-4.6137,-4.6411,-4.6817,-5.1242,-5.1191,-5.1167,-5.1139,-5.1123,-5.1122,-5.117,-5.1206,-5.1261,-5.1328,-5.1387,-5.1406,-5.1406,-5.1347,-5.1327,-5.1327,-5.1255,-5.1221,-5.1213,-5.1133,-5.1082,-5.1067,-5.1051,-5.1032,-5.1032,-5.0993,-5.0921,-5.0757,-5.0489,-5.024,-5.0005,-4.9886,-4.9886,-4.9911,-5.0116,-5.0275,-5.0404,-5.0567,-5.0701,-5.0793,-5.0793,-5.0793,-5.0793,-5.0644,-5.0488,-5.0342,-5.0206,-5.0024,-4.986,-4.9865,-4.9674,-4.9431,-4.9431,-4.9431,-4.9431,-4.9431,-4.9431,-4.9431,-4.9431,-4.9431,-4.9431,-4.9431,-4.9521,-4.9655,-4.9655,-4.9857,-5.0043,-5.0043,-5.0291,-5.0504,-5.0504,-5.0442,-5.0399,-5.0355,-5.0249,-5.0249,-5.0483,-5.0358,-5.0317,-5.0483,-5.0377,-5.0268,-5.0159,-5.0116,-5.0043,-4.9891,-4.9554,-4.9278,-4.9118,-4.9008,-4.8855,-4.8732,-4.8732,-4.8732,-4.8785,-4.8732,-4.8715,-4.8679,-4.8697,-4.8587,-4.8304,-4.7775,-4.708,-4.6262,-4.597,-4.5649,-4.5423,-4.5423,-4.5423,-4.5423,-4.5423,-4.5701,-4.6186,-4.6186,-4.6678,-4.7335,-5.1172,-5.1171,-5.1147,-5.1054,-5.1073,-5.1119,-5.1099,-5.1146,-5.1189,-5.1255,-5.1307,-5.1361,-5.1406,-5.1406,-5.1406,-5.1406,-5.1367,-5.1328,-5.1328,-5.1265,-5.1218,-5.1217,-5.1224,-5.1192,-5.1192,-5.1153,-5.1111,-5.1061,-5.0756,-5.0568,-5.049,-5.0214,-5.014,-5.0252,-5.0446,-5.0567,-5.0625,-5.0775,-5.0844,-5.0844,-5.0844,-5.0844,-5.0827,-5.0827,-5.072,-5.0547,-5.0527,-5.0366,-5.0153,-5.0145,-5.0116,-5.0068,-4.9865,-4.9803,-4.9803,-4.9803,-4.9803,-4.9803,-4.9803,-4.9803,-4.9803,-4.9803,-4.9857,-4.9936,-4.9936,-5.0135,-5.0358,-5.0358,-5.0544,-5.0702,-5.0702,-5.0504,-5.038,-5.0544,-5.0442,-5.0402,-5.0565,-5.0585,-5.0605,-5.0683,-5.0464,-5.0336,-5.0358,-5.0135,-5.0038,-5.0062,-4.991,-4.9618,-4.9201,-4.8959,-4.8822,-4.8822,-4.8822,-4.8839,-4.8909,-4.8839,-4.8822,-4.8787,-4.8822,-4.8624,-4.8226,-4.7775,-4.7097,-4.6168,-4.6119,-4.592,-4.5649,-4.5563,-4.5459,-4.5423,-4.5563,-4.5938,-4.6411,-4.6537,-4.7115,-4.7816,-5.1109,-5.1095,-5.1061,-5.0925,-5.0906,-5.0964,-5.108,-5.1099,-5.1119,-5.1192,-5.1197,-5.1258,-5.1386,-5.1406,-5.1406,-5.1406,-5.1406,-5.1406,-5.1406,-5.1348,-5.1308,-5.1308,-5.1235,-5.1195,-5.1195,-5.1195,-5.12,-5.1196,-5.1138,-5.0948,-5.0697,-5.0546,-5.0699,-5.108,-5.096,-5.0974,-5.108,-5.0964,-5.0906,-5.0906,-5.0906,-5.0906,-5.089,-5.0897,-5.0899,-5.0899,-5.081,-5.0793,-5.0793,-5.0793,-5.0793,-5.0663,-5.0019,-4.9803,-4.9803,-4.9803,-4.9803,-4.9803,-4.9803,-4.9803,-4.9803,-4.9803,-4.9993,-5.0206,-5.0206,-5.0442,-5.0683,-5.0683,-5.0702,-5.0702,-5.0702,-5.0702,-5.0604,-5.0272,-5.0483,-5.0585,-5.0342,-5.0298,-5.0385,-5.0682,-4.9936,-4.9746,-5.0604,-5.0155,-5.0057,-5.0624,-5.013,-4.9665,-4.9396,-4.9094,-4.8909,-4.8909,-4.8909,-4.8909,-4.8909,-4.8909,-4.8874,-4.8787,-4.8874,-4.8678,-4.8267,-4.7816,-4.7421,-4.7062,-4.6799,-4.6566,-4.6262,-4.592,-4.5649,-4.5476,-4.5988,-4.6459,-4.6954,-4.7421,-4.7897,-4.8306,-5.0961,-5.0971,-5.0964,-5.0925,-5.0906,-5.0925,-5.0964,-5.0964,-5.1003,-5.1119,-5.1131,-5.1166,-5.1236,-5.1288,-5.1348,-5.1406,-5.1406,-5.1406,-5.1406,-5.1387,-5.1367,-5.1367,-5.1342,-5.1335,-5.1335,-5.1296,-5.1274,-5.1268,-5.121,-5.1132,-5.1044,-5.1008,-5.1062,-5.1164,-5.112,-5.1127,-5.1177,-5.1119,-5.1099,-5.1099,-5.1099,-5.108,-5.1041,-5.1045,-5.0987,-5.0893,-5.0893,-5.0858,-5.0877,-5.0863,-5.0863,-5.081,-5.0567,-5.0488,-5.0488,-5.0488,-5.0446,-5.0425,-5.0425,-5.0402,-5.0399,-5.0399,-5.0483,-5.0544,-5.0544,-5.0624,-5.0702,-5.0702,-5.0702,-5.0702,-5.0702,-5.0702,-5.0683,-5.0567,-5.0625,-5.0702,-5.0644,-5.0644,-5.0663,-5.0775,-5.0469,-5.0385,-5.0683,-5.0317,-5.0159,-5.0358,-4.983,-4.9588,-4.9684,-4.9188,-4.8909,-4.8909,-4.8909,-4.8909,-4.8909,-4.8909,-4.8909,-4.8874,-4.8909,-4.8605,-4.8072,-4.7933,-4.7585,-4.7107,-4.7248,-4.7168,-4.6927,-4.6791,-4.6699,-4.6607,-4.6699,-4.7035,-4.7524,-4.7591,-4.7897,-4.8306,-5.0906,-5.0906,-5.0906,-5.0906,-5.0906,-5.0906,-5.0906,-5.0909,-5.0929,-5.1022,-5.099,-5.1013,-5.1106,-5.1152,-5.121,-5.1307,-5.1344,-5.1367,-5.1367,-5.1387,-5.1406,-5.1406,-5.1406,-5.1406,-5.1406,-5.1367,-5.1342,-5.1338,-5.1299,-5.1279,-5.1279,-5.126,-5.1258,-5.1269,-5.1217,-5.1217,-5.124,-5.121,-5.1192,-5.1192,-5.1192,-5.1173,-5.114,-5.1145,-5.1099,-5.1022,-5.1022,-5.1022,-5.1006,-5.1009,-5.1009,-5.1013,-5.0957,-5.0941,-5.0941,-5.0829,-5.0775,-5.0757,-5.0757,-5.0758,-5.074,-5.074,-5.074,-5.074,-5.074,-5.074,-5.074,-5.074,-5.074,-5.074,-5.074,-5.074,-5.074,-5.0739,-5.0757,-5.0775,-5.0829,-5.0846,-5.0846,-5.0846,-5.07,-5.0625,-5.072,-5.0342,-5.0135,-5.023,-4.974,-4.9488,-4.9655,-4.9155,-4.8909,-4.8909,-4.8909,-4.8909,-4.8909,-4.8909,-4.8909,-4.8909,-4.8785,-4.8514,-4.8132,-4.8132,-4.7955,-4.7591,-4.7797,-4.7779,-4.7512,-4.7428,-4.7281,-4.7194,-4.7306,-4.753,-4.7834,-4.7915,-4.8093,-4.8306,-5.0906,-5.0906,-5.0906,-5.089,-5.089,-5.089,-5.089,-5.0877,-5.0897,-5.089,-5.0844,-5.0849,-5.0962,-5.0924,-5.0986,-5.1161,-5.1234,-5.1287,-5.1288,-5.1346,-5.1386,-5.1386,-5.1387,-5.1387,-5.1406,-5.1406,-5.1406,-5.1406,-5.1406,-5.1406,-5.1406,-5.1348,-5.1348,-5.1386,-5.1274,-5.1245,-5.1308,-5.1235,-5.1218,-5.1218,-5.1218,-5.1218,-5.1203,-5.1212,-5.1184,-5.1188,-5.1188,-5.1188,-5.1188,-5.1188,-5.1188,-5.1188,-5.1188,-5.1188,-5.1154,-5.0902,-5.0829,-5.0829,-5.0829,-5.0829,-5.0812,-5.0812,-5.0812,-5.0812,-5.081,-5.081,-5.081,-5.0793,-5.0793,-5.0793,-5.0793,-5.0793,-5.0793,-5.081,-5.081,-5.0846,-5.0899,-5.0899,-5.0899,-5.0899,-5.0624,-5.0529,-5.0773,-5.0275,-5.0019,-5.0252,-4.9749,-4.9415,-4.9384,-4.9061,-4.8909,-4.8909,-4.8909,-4.8909,-4.8909,-4.8909,-4.8909,-4.8909,-4.8569,-4.8421,-4.8383,-4.8421,-4.8421,-4.8383,-4.8421,-4.8345,-4.8135,-4.7797,-4.7512,-4.7367,-4.7802,-4.7919,-4.7915,-4.8363,-4.8438,-4.8306,-5.0906,-5.0906,-5.089,-5.0897,-5.0897,-5.088,-5.0827,-5.0827,-5.081,-5.0827,-5.081,-5.081,-5.0849,-5.0829,-5.0844,-5.0883,-5.1048,-5.1144,-5.1145,-5.1152,-5.1185,-5.1244,-5.1249,-5.1308,-5.1406,-5.1406,-5.1406,-5.1406,-5.1406,-5.1406,-5.1406,-5.1387,-5.1387,-5.1406,-5.1364,-5.1364,-5.1387,-5.1364,-5.134,-5.134,-5.134,-5.132,-5.1281,-5.1288,-5.1252,-5.1191,-5.1191,-5.1191,-5.1191,-5.1191,-5.1191,-5.1191,-5.1191,-5.1191,-5.12,-5.1106,-5.1067,-5.1029,-5.1029,-5.1018,-5.1042,-5.1042,-5.1042,-5.1003,-5.0904,-5.0885,-5.0866,-5.081,-5.0793,-5.0793,-5.0793,-5.0793,-5.081,-5.0863,-5.0883,-5.088,-5.0893,-5.0909,-5.0909,-5.0909,-5.0825,-5.081,-5.0863,-5.0547,-5.0252,-4.9993,-4.9721,-4.9408,-4.9027,-4.8925,-4.8909,-4.8909,-4.8909,-4.8909,-4.8909,-4.8909,-4.8909,-4.8909,-4.882,-4.866,-4.8421,-4.866,-4.866,-4.8421,-4.866,-4.875,-4.8695,-4.8605,-4.8569,-4.8513,-4.855,-4.8569,-4.8569,-4.8569,-4.8569,-4.8514,-5.0893,-5.0877,-5.0861,-5.0863,-5.0846,-5.0846,-5.081,-5.0775,-5.0775,-5.0793,-5.0757,-5.0739,-5.0738,-5.0739,-5.0758,-5.0758,-5.0911,-5.1015,-5.1009,-5.1067,-5.1121,-5.1162,-5.1147,-5.1196,-5.1269,-5.1299,-5.1346,-5.1404,-5.1404,-5.1404,-5.1404,-5.1404,-5.1406,-5.1406,-5.1405,-5.1406,-5.1406,-5.1406,-5.1406,-5.1406,-5.1406,-5.1387,-5.1348,-5.1348,-5.1322,-5.1293,-5.1293,-5.1293,-5.1293,-5.1293,-5.1293,-5.1284,-5.1284,-5.13,-5.1284,-5.1284,-5.1217,-5.1139,-5.1139,-5.1146,-5.116,-5.116,-5.116,-5.114,-5.1043,-5.1044,-5.1032,-5.0957,-5.0938,-5.0919,-5.0861,-5.0861,-5.0861,-5.0877,-5.0913,-5.0893,-5.089,-5.0906,-5.0906,-5.0906,-5.0893,-5.0913,-5.0913,-5.0567,-5.0275,-5.0043,-4.9712,-4.9396,-4.916,-4.9127,-4.9061,-4.889,-4.8909,-4.8909,-4.8909,-4.8909,-4.8943,-4.9046,-4.8943,-4.882,-4.8623,-4.882,-4.8785,-4.8623,-4.882,-4.8909,-4.8909,-4.8909,-4.8909,-4.8909,-4.8839,-4.8822,-4.8787,-4.8732,-4.8642,-4.8587,-5.0756,-5.07,-5.0644,-5.0663,-5.0663,-5.0663,-5.0644,-5.0606,-5.0606,-5.0701,-5.0664,-5.0644,-5.0682,-5.0702,-5.0702,-5.0702,-5.0798,-5.0874,-5.0874,-5.0972,-5.1049,-5.1068,-5.1072,-5.1062,-5.1083,-5.1141,-5.1246,-5.1343,-5.1343,-5.1369,-5.1377,-5.1377,-5.1381,-5.1405,-5.1402,-5.1402,-5.1406,-5.1406,-5.1406,-5.1406,-5.1406,-5.1406,-5.1406,-5.1406,-5.1406,-5.1406,-5.1406,-5.1406,-5.1406,-5.1406,-5.1406,-5.1405,-5.1411,-5.1395,-5.1395,-5.1395,-5.1317,-5.1239,-5.1239,-5.1239,-5.1239,-5.1239,-5.1239,-5.1239,-5.1219,-5.122,-5.1211,-5.1116,-5.1111,-5.108,-5.0964,-5.0925,-5.0906,-5.0906,-5.0906,-5.0906,-5.0906,-5.0906,-5.0906,-5.0906,-5.0906,-5.0906,-5.0906,-5.0489,-5.023,-5.0206,-4.974,-4.9446,-4.9415,-4.9415,-4.9289,-4.8993,-4.8978,-4.8978,-4.8978,-4.8978,-4.9046,-4.9197,-4.9012,-4.8943,-4.8909,-4.8909,-4.8909,-4.8909,-4.8909,-4.8909,-4.8909,-4.8909,-4.8909,-4.8909,-4.8909,-4.8874,-4.8822,-4.8822,-4.8732,-4.8623,-5.0064,-5.004,-5.0035,-5.0043,-5.0043,-5.0019,-4.9968,-4.9943,-5.0019,-5.0252,-5.0275,-5.038,-5.0664,-5.0702,-5.0702,-5.0702,-5.0721,-5.0721,-5.0721,-5.076,-5.0816,-5.0932,-5.0945,-5.096,-5.1023,-5.1078,-5.1132,-5.1152,-5.1152,-5.1176,-5.1222,-5.1222,-5.1285,-5.1405,-5.1394,-5.1394,-5.1405,-5.1396,-5.14,-5.14,-5.14,-5.1404,-5.1406,-5.1406,-5.1406,-5.1406,-5.1406,-5.1406,-5.1406,-5.1406,-5.1406,-5.1406,-5.1404,-5.1403,-5.1403,-5.1403,-5.1384,-5.1364,-5.1364,-5.1364,-5.1364,-5.1364,-5.1364,-5.1344,-5.1305,-5.1281,-5.1261,-5.1195,-5.1134,-5.1099,-5.108,-5.0983,-5.0906,-5.0906,-5.0906,-5.0906,-5.0906,-5.0906,-5.0906,-5.0906,-5.0906,-5.0906,-5.0906,-5.0567,-5.032,-5.0206,-4.986,-4.9585,-4.9415,-4.9415,-4.9384,-4.9302,-4.9302,-4.9302,-4.9302,-4.9302,-4.9289,-4.9197,-4.9179,-4.9046,-4.8909,-4.8909,-4.8909,-4.8909,-4.8909,-4.8909,-4.8909,-4.8909,-4.8909,-4.8909,-4.8909,-4.8909,-4.8874,-4.8874,-4.8874,-4.8839,-4.9905,-4.9879,-4.9846,-4.9857,-4.9857,-4.983,-4.9784,-4.9803,-4.9838,-4.9968,-5.0111,-5.0272,-5.0421,-5.0604,-5.0702,-5.0702,-5.0702,-5.0702,-5.0702,-5.0702,-5.074,-5.0793,-5.0779,-5.0834,-5.0937,-5.0976,-5.1011,-5.1047,-5.1047,-5.1063,-5.1098,-5.1098,-5.1133,-5.1174,-5.1186,-5.1213,-5.1297,-5.1288,-5.133,-5.1408,-5.1408,-5.1391,-5.1398,-5.1403,-5.1405,-5.1406,-5.1405,-5.1406,-5.1406,-5.1406,-5.1406,-5.1406,-5.1406,-5.1406,-5.1406,-5.1406,-5.1406,-5.1406,-5.1406,-5.1406,-5.1406,-5.1406,-5.1406,-5.1387,-5.1367,-5.1348,-5.1327,-5.1268,-5.1224,-5.118,-5.1102,-5.1061,-5.0983,-5.0925,-5.0906,-5.0906,-5.0906,-5.0906,-5.0906,-5.0906,-5.0906,-5.0906,-5.0906,-5.0587,-5.0363,-5.0298,-5.0019,-4.9759,-4.9683,-4.9683,-4.9683,-4.9683,-4.9488,-4.9446,-4.9555,-4.9446,-4.9415,-4.9483,-4.9295,-4.9146,-4.9046,-4.8943,-4.8909,-4.8909,-4.8909,-4.8909,-4.8909,-4.8909,-4.8909,-4.8909,-4.8909,-4.8909,-4.8909,-4.8909,-4.8909,-4.8909,-4.9665,-4.9637,-4.9608,-4.9608,-4.9608,-4.9608,-4.9608,-4.9608,-4.9637,-4.9693,-4.9884,-5.0038,-5.0111,-5.0336,-5.0523,-5.0565,-5.0565,-5.0624,-5.0683,-5.0702,-5.0702,-5.0702,-5.0702,-5.074,-5.0858,-5.0858,-5.0883,-5.0926,-5.0926,-5.0953,-5.0979,-5.0979,-5.0989,-5.0996,-5.0992,-5.1064,-5.1141,-5.1141,-5.1199,-5.1316,-5.1316,-5.1302,-5.1313,-5.1316,-5.1335,-5.1346,-5.1342,-5.1363,-5.1404,-5.1406,-5.1406,-5.1406,-5.1406,-5.1406,-5.1406,-5.1406,-5.1406,-5.1406,-5.1406,-5.1406,-5.1406,-5.1406,-5.1406,-5.1406,-5.1406,-5.1406,-5.1387,-5.1328,-5.1308,-5.1252,-5.1139,-5.1106,-5.1061,-5.0925,-5.0906,-5.0906,-5.0906,-5.0906,-5.0906,-5.0906,-5.0906,-5.0906,-5.0906,-5.0587,-5.0404,-5.0404,-5.0076,-4.9898,-4.9898,-4.9898,-4.9898,-4.9898,-4.9655,-4.9596,-4.975,-4.9596,-4.9585,-4.9692,-4.9452,-4.9295,-4.9179,-4.9046,-4.8943,-4.8909,-4.8909,-4.8909,-4.8909,-4.8909,-4.8909,-4.8909,-4.8909,-4.8909,-4.8909,-4.8909,-4.8909,-4.8909,-4.8993,-4.8959,-4.8959,-4.8959,-4.8959,-4.8959,-4.8959,-4.8959,-4.9094,-4.9396,-4.9457,-4.9558,-4.9803,-4.9857,-4.9962,-5.0225,-5.0249,-5.0358,-5.0683,-5.0702,-5.0702,-5.0702,-5.0702,-5.0702,-5.0721,-5.0721,-5.0721,-5.0721,-5.0721,-5.0793,-5.0917,-5.0917,-5.0951,-5.0989,-5.1008,-5.102,-5.1011,-5.1011,-5.1011,-5.1031,-5.1031,-5.1035,-5.1033,-5.1033,-5.1103,-5.1206,-5.1218,-5.1294,-5.1402,-5.1396,-5.1404,-5.1406,-5.1406,-5.1406,-5.1406,-5.1406,-5.1406,-5.1406,-5.1406,-5.1406,-5.1406,-5.1406,-5.1406,-5.1406,-5.1406,-5.1406,-5.1406,-5.1387,-5.1348,-5.1283,-5.1218,-5.1146,-5.1061,-5.0925,-5.0906,-5.0906,-5.0906,-5.0906,-5.0906,-5.0906,-5.0906,-5.0906,-5.0906,-5.0587,-5.0404,-5.0404,-5.0076,-4.9898,-4.9898,-4.9898,-4.9898,-4.9898,-4.9898,-4.9852,-4.9898,-4.9852,-4.9816,-4.9692,-4.9663,-4.9514,-4.9197,-4.9179,-4.9079,-4.8909,-4.8909,-4.8909,-4.8909,-4.8909,-4.8909,-4.8909,-4.8909,-4.8909,-4.8909,-4.8909,-4.8909,-4.8909,-4.8909,-4.8909,-4.8909,-4.8909,-4.8909,-4.8909,-4.8909,-4.8909,-4.8943,-4.9061,-4.9289,-4.9427,-4.9529,-4.9693,-4.9857,-4.9943,-4.9943,-5.0012,-5.013,-5.0291,-5.0483,-5.0683,-5.0702,-5.0702,-5.0702,-5.0702,-5.0702,-5.0702,-5.0702,-5.0721,-5.0776,-5.0776,-5.0791,-5.0803,-5.0803,-5.0867,-5.0937,-5.0937,-5.0953,-5.1008,-5.1008,-5.1,-5.0994,-5.0994,-5.1033,-5.1074,-5.1081,-5.1148,-5.1217,-5.1167,-5.1174,-5.1206,-5.1206,-5.1213,-5.123,-5.126,-5.1286,-5.1287,-5.1386,-5.1406,-5.1406,-5.1406,-5.1406,-5.1406,-5.1406,-5.1406,-5.1406,-5.1406,-5.1387,-5.1346,-5.1274,-5.1201,-5.1138,-5.1041,-5.0964,-5.0906,-5.0906,-5.0906,-5.0906,-5.0906,-5.0906,-5.0906,-5.0906,-5.0718,-5.0586,-5.0586,-5.0339,-5.0202,-5.0202,-5.012,-5.0012,-4.9906,-4.9898,-4.9898,-4.9898,-4.9898,-4.9871,-4.9816,-4.975,-4.9555,-4.9321,-4.9244,-4.9079,-4.8909,-4.8909,-4.8909,-4.8909,-4.8909,-4.8909,-4.8909,-4.8909,-4.8909,-4.8909,-4.8909,-4.8909,-4.8909,-4.8909,-4.8909,-4.8909,-4.8909,-4.8909,-4.8909,-4.8909,-4.8909,-4.8909,-4.8909,-4.9094,-4.9239,-4.9239,-4.942,-4.955,-4.9684,-4.9665,-4.9693,-4.9784,-4.9968,-5.0249,-5.0683,-5.0702,-5.0702,-5.0702,-5.0702,-5.0702,-5.0702,-5.0702,-5.0702,-5.0702,-5.0702,-5.0702,-5.0702,-5.0702,-5.074,-5.0825,-5.0825,-5.0851,-5.0918,-5.0918,-5.0918,-5.0918,-5.0918,-5.0923,-5.0966,-5.0959,-5.1011,-5.1047,-5.1025,-5.1031,-5.1069,-5.1078,-5.1074,-5.1101,-5.1159,-5.1177,-5.1218,-5.1304,-5.1365,-5.1406,-5.1406,-5.1406,-5.1406,-5.1406,-5.1406,-5.1406,-5.1406,-5.1406,-5.1387,-5.1308,-5.1257,-5.1178,-5.1115,-5.1003,-5.0906,-5.0906,-5.0906,-5.0906,-5.0906,-5.0906,-5.0906,-5.0906,-5.0773,-5.0701,-5.0701,-5.0507,-5.0383,-5.0336,-5.024,-5.0114,-4.9925,-4.9898,-4.9898,-4.9898,-4.9898,-4.9898,-4.9898,-4.9816,-4.9673,-4.9476,-4.9402,-4.9211,-4.9012,-4.9012,-4.8978,-4.8909,-4.8909,-4.8909,-4.8909,-4.8909,-4.8909,-4.8909,-4.8909,-4.8909,-4.8909,-4.8909,-4.8909,-4.8909,-4.8909,-4.8909,-4.8909,-4.8909,-4.8909,-4.8909,-4.8909,-4.8909,-4.8909,-4.8909,-4.8909,-4.9027,-4.9384,-4.9415,-4.9499,-4.9776,-4.9803,-5.0062,-5.0663,-5.0683,-5.0702,-5.0702,-5.0702,-5.0702,-5.0702,-5.0702,-5.0702,-5.0702,-5.0702,-5.0702,-5.0702,-5.0702,-5.0702,-5.0702,-5.0702,-5.0702,-5.0702,-5.0702,-5.0702,-5.0702,-5.0702,-5.0775,-5.0887,-5.0887,-5.0951,-5.0996,-5.0996,-5.1005,-5.1,-5.1,-5.1054,-5.1106,-5.1106,-5.1152,-5.1199,-5.1199,-5.1291,-5.14,-5.1406,-5.1406,-5.1406,-5.1406,-5.1406,-5.1406,-5.1406,-5.1406,-5.1387,-5.1308,-5.1249,-5.1181,-5.1106,-5.1003,-5.0906,-5.0906,-5.0906,-5.0906,-5.0906,-5.0906,-5.0906,-5.0906,-5.0791,-5.0701,-5.0701,-5.0527,-5.0358,-5.0212,-5.0188,-5.0114,-4.9925,-4.9898,-4.9898,-4.9898,-4.9898,-4.9898,-4.9898,-4.9898,-4.9816,-4.9692,-4.9692,-4.9514,-4.9179,-4.9179,-4.9079,-4.8909,-4.8909,-4.8909,-4.8909,-4.8909,-4.8909,-4.8909,-4.8909,-4.8909,-4.8959,-4.8909,-4.8909,-4.8909,-4.8909,-4.8909,-4.8909,-4.8909,-4.8909,-4.8909,-4.8909,-4.8909,-4.8909,-4.8909,-4.8909,-4.8925,-4.9027,-4.9061,-4.9174,-4.9499,-4.9529,-4.9684,-5.0038,-5.0249,-5.0358,-5.0358,-5.0565,-5.0702,-5.0702,-5.0702,-5.0702,-5.0702,-5.0702,-5.0702,-5.0702,-5.0702,-5.0702,-5.0702,-5.0702,-5.0702,-5.0702,-5.0702,-5.0702,-5.0702,-5.0702,-5.0721,-5.0758,-5.0758,-5.0775,-5.0789,-5.0789,-5.0793,-5.0794,-5.0794,-5.0797,-5.0837,-5.0943,-5.0981,-5.1023,-5.1152,-5.1222,-5.1271,-5.1381,-5.1402,-5.1403,-5.1406,-5.1406,-5.1406,-5.1406,-5.1406,-5.1387,-5.1367,-5.1269,-5.1201,-5.1165,-5.1022,-5.0906,-5.0906,-5.0906,-5.0906,-5.0906,-5.0906,-5.0906,-5.0906,-5.0858,-5.0841,-5.0841,-5.0789,-5.0681,-5.0546,-5.0423,-5.0268,-5.0114,-4.9959,-4.9898,-4.9898,-4.9898,-4.9898,-4.9898,-4.9898,-4.9816,-4.9692,-4.9692,-4.9555,-4.9321,-4.9321,-4.9257,-4.9113,-4.9113,-4.9012,-4.8909,-4.8909,-4.8909,-4.8909,-4.8909,-4.9061,-4.9257,-4.8909,-4.8909,-4.8909,-4.8909,-4.8909,-4.8909,-4.8909,-4.8874,-4.8874,-4.8909,-4.882,-4.8785,-4.8839,-4.8839,-4.8839,-4.8839,-4.8874,-4.9012,-4.9193,-4.9193,-4.9252,-4.9431,-4.9721,-4.9936,-5.0043,-5.0245,-5.0355,-5.0355,-5.0462,-5.0504,-5.0504,-5.0643,-5.0702,-5.0702,-5.0702,-5.0702,-5.0702,-5.0702,-5.0702,-5.0702,-5.0702,-5.0702,-5.0702,-5.0702,-5.0702,-5.0702,-5.0702,-5.0702,-5.0702,-5.0702,-5.0702,-5.0702,-5.0702,-5.0702,-5.0721,-5.0793,-5.0858,-5.0942,-5.1055,-5.1106,-5.1141,-5.1284,-5.1363,-5.1394,-5.14,-5.1403,-5.1405,-5.1405,-5.1405,-5.1405,-5.1406,-5.1316,-5.1219,-5.1199,-5.108,-5.0964,-5.0925,-5.0906,-5.0906,-5.0906,-5.0906,-5.0906,-5.0906,-5.0906,-5.0906,-5.0906,-5.0906,-5.0841,-5.0701,-5.0567,-5.0423,-5.0212,-5.0089,-4.9986,-4.9898,-4.9959,-4.9959,-4.9898,-4.9898,-4.9871,-4.9759,-4.9759,-4.9673,-4.9525,-4.9525,-4.9434,-4.9276,-4.9276,-4.9179,-4.9012,-4.9012,-4.8978,-4.8909,-4.9061,-4.9225,-4.9427,-4.8855,-4.8855,-4.8855,-4.8855,-4.8855,-4.8855,-4.8855,-4.8804,-4.8804,-4.8874,-4.8714,-4.8642,-4.8787,-4.8787,-4.8787,-4.8787,-4.8874,-4.8909,-4.8909,-4.8909,-4.8909,-4.8909,-4.9193,-4.9469,-4.9702,-4.9757,-4.9803,-4.9803,-5.0043,-5.0183,-5.0206,-5.0504,-5.0663,-5.0702,-5.0702,-5.0702,-5.0702,-5.0702,-5.0702,-5.0702,-5.0702,-5.0702,-5.0702,-5.0702,-5.0702,-5.0702,-5.0702,-5.0702,-5.0702,-5.0702,-5.0702,-5.0702,-5.0702,-5.0702,-5.0702,-5.0702,-5.0775,-5.0871,-5.0906,-5.0932,-5.102,-5.1178,-5.1291,-5.139,-5.1394,-5.1408,-5.1396,-5.1396,-5.1396,-5.14,-5.1406,-5.1349,-5.1289,-5.1222,-5.1149,-5.1057,-5.0925,-5.0906,-5.0906,-5.0906,-5.0906,-5.0906,-5.0906,-5.0906,-5.0906,-5.0906,-5.0906,-5.0841,-5.072,-5.0701,-5.0546,-5.0259,-5.0236,-5.0139,-4.9959,-5.0139,-5.0114,-4.9925,-4.9933,-4.9933,-4.9925,-4.9925,-4.9843,-4.9721,-4.9721,-4.9615,-4.9415,-4.9415,-4.9321,-4.9211,-4.9244,-4.9113,-4.8978,-4.9302,-4.9427,-4.9499,-4.8678,-4.8678,-4.8678,-4.8678,-4.8678,-4.8678,-4.8678,-4.8642,-4.8642,-4.866,-4.8623,-4.8587,-4.8642,-4.8732,-4.8787,-4.8787,-4.8874,-4.8874,-4.8822,-4.8874,-4.8909,-4.8909,-4.8959,-4.9027,-4.909,-4.955,-4.9803,-4.9803,-4.9857,-4.9993,-5.0206,-5.0272,-5.0442,-5.0702,-5.0702,-5.0702,-5.0702,-5.0702,-5.0702,-5.0702,-5.0702,-5.0702,-5.0702,-5.0702,-5.0702,-5.0702,-5.0702,-5.0702,-5.0702,-5.0702,-5.0702,-5.0702,-5.0702,-5.0702,-5.0702,-5.0702,-5.0721,-5.0776,-5.0874,-5.0917,-5.0965,-5.1141,-5.1218,-5.1265,-5.1386,-5.1398,-5.1402,-5.1402,-5.1402,-5.1402,-5.1405,-5.1347,-5.1279,-5.1211,-5.1147,-5.1056,-5.0921,-5.0906,-5.0906,-5.0906,-5.0906,-5.0906,-5.0906,-5.0906,-5.0906,-5.0906,-5.0906,-5.089,-5.0858,-5.0756,-5.0664,-5.0586,-5.0445,-5.0339,-5.0294,-5.0339,-5.0268,-5.0139,-5.0245,-5.0245,-5.0139,-5.0139,-5.0038,-4.9871,-4.9871,-4.9759,-4.9615,-4.9615,-4.9525,-4.9384,-4.9469,-4.9365,-4.9179,-4.9569,-4.9721,-4.9803,-4.8587,-4.8587,-4.8587,-4.8587,-4.8587,-4.8587,-4.8587,-4.8569,-4.8569,-4.8587,-4.8514,-4.8495,-4.855,-4.8587,-4.8679,-4.8697,-4.875,-4.875,-4.8697,-4.875,-4.875,-4.875,-4.875,-4.875,-4.875,-4.9052,-4.9259,-4.937,-4.9539,-4.9684,-4.983,-4.9962,-5.0087,-5.0268,-5.0399,-5.0442,-5.0483,-5.0624,-5.0702,-5.0702,-5.0702,-5.0702,-5.0702,-5.0702,-5.0702,-5.0702,-5.0702,-5.0702,-5.0702,-5.0702,-5.0702,-5.0702,-5.0702,-5.0702,-5.0702,-5.0702,-5.0702,-5.0721,-5.0794,-5.081,-5.0855,-5.1042,-5.1094,-5.115,-5.1357,-5.1394,-5.1394,-5.1394,-5.1394,-5.1394,-5.1394,-5.1379,-5.1325,-5.1264,-5.12,-5.11,-5.0961,-5.0921,-5.0906,-5.0906,-5.0906,-5.0906,-5.0906,-5.0906,-5.0906,-5.0906,-5.0906,-5.0906,-5.0906,-5.0841,-5.0773,-5.0701,-5.0606,-5.0507,-5.0404,-5.0507,-5.0526,-5.0442,-5.0404,-5.0361,-5.031,-5.031,-5.0193,-5.0038,-5.0038,-4.9986,-4.9925,-4.9843,-4.9778,-4.9776,-4.9759,-4.9646,-4.9569,-4.9884,-5.0087,-5.0268,-4.855,-4.855,-4.855,-4.855,-4.855,-4.855,-4.855,-4.8513,-4.8494,-4.855,-4.8402,-4.8363,-4.8457,-4.8513,-4.8532,-4.8569,-4.8587,-4.8587,-4.8587,-4.8587,-4.8587,-4.8587,-4.8587,-4.8587,-4.8587,-4.8587,-4.866,-4.8855,-4.916,-4.9302,-4.9365,-4.9627,-4.9749,-4.983,-5.0019,-5.0159,-5.0206,-5.0504,-5.0663,-5.0702,-5.0702,-5.0702,-5.0702,-5.0702,-5.0702,-5.0702,-5.0702,-5.0702,-5.0702,-5.0702,-5.0702,-5.0702,-5.0702,-5.0702,-5.0702,-5.0702,-5.0702,-5.0702,-5.0702,-5.0702,-5.0758,-5.0945,-5.0984,-5.1063,-5.1302,-5.139,-5.1394,-5.1394,-5.1394,-5.1394,-5.1394,-5.1394,-5.1379,-5.1303,-5.1245,-5.1171,-5.1049,-5.0961,-5.0921,-5.0921,-5.0906,-5.0906,-5.0906,-5.0906,-5.0906,-5.0906,-5.0906,-5.0906,-5.0906,-5.0906,-5.0858,-5.0738,-5.0738,-5.0663,-5.0488,-5.0663,-5.0738,-5.0738,-5.0567,-5.0467,-5.0446,-5.0446,-5.038,-5.0217,-5.0217,-5.0217,-5.0217,-5.0044,-5.0076,-5.0206,-5.0076,-5.0,-4.9968,-5.0159,-5.0421,-5.0702,-4.8344,-4.8344,-4.8344,-4.8344,-4.8344,-4.8344,-4.8344,-4.8344,-4.8344,-4.8344,-4.8306,-4.8306,-4.8324,-4.8419,-4.8494,-4.8494,-4.8587,-4.8569,-4.8532,-4.8569,-4.8587,-4.8587,-4.8587,-4.8587,-4.8587,-4.8587,-4.8623,-4.8623,-4.8804,-4.8974,-4.9214,-4.9377,-4.9588,-4.9784,-4.9857,-4.9968,-5.0206,-5.0249,-5.0442,-5.0702,-5.0702,-5.0702,-5.0702,-5.0702,-5.0702,-5.0702,-5.0702,-5.0702,-5.0702,-5.0702,-5.0702,-5.0702,-5.0702,-5.0702,-5.0702,-5.0702,-5.0702,-5.0702,-5.0702,-5.0702,-5.0721,-5.0871,-5.0959,-5.1042,-5.1195,-5.1322,-5.1394,-5.1394,-5.1394,-5.1394,-5.1394,-5.1394,-5.1372,-5.1307,-5.1285,-5.1258,-5.118,-5.1074,-5.099,-5.099,-5.0937,-5.0906,-5.0906,-5.0906,-5.0906,-5.0906,-5.0906,-5.0906,-5.0906,-5.0906,-5.089,-5.0874,-5.0874,-5.0858,-5.0822,-5.0858,-5.0874,-5.0874,-5.0858,-5.0771,-5.0664,-5.0664,-5.0547,-5.0361,-5.0361,-5.0361,-5.0361,-5.0339,-5.0361,-5.0383,-5.0486,-5.0361,-5.0183,-5.0252,-5.0464,-5.0702,-4.7524,-4.7524,-4.7609,-4.7856,-4.7897,-4.7995,-4.8267,-4.8306,-4.8306,-4.8306,-4.8306,-4.8306,-4.8306,-4.8363,-4.8401,-4.8401,-4.842,-4.842,-4.8401,-4.842,-4.8439,-4.8439,-4.8439,-4.8439,-4.8439,-4.8439,-4.8439,-4.8439,-4.8605,-4.8731,-4.8869,-4.9008,-4.9108,-4.9233,-4.9499,-4.9627,-4.9749,-4.9891,-5.0135,-5.0421,-5.0421,-5.0525,-5.0702,-5.0702,-5.0702,-5.0702,-5.0702,-5.0702,-5.0702,-5.0702,-5.0702,-5.0702,-5.0702,-5.0702,-5.0702,-5.0702,-5.0702,-5.0702,-5.0702,-5.0702,-5.074,-5.0874,-5.0945,-5.1031,-5.1159,-5.1297,-5.1394,-5.1394,-5.1394,-5.1394,-5.1394,-5.1394,-5.1385,-5.1367,-5.1318,-5.1279,-5.1218,-5.1122,-5.1043,-5.1004,-5.0932,-5.0906,-5.0906,-5.0906,-5.0906,-5.0906,-5.0906,-5.0906,-5.0906,-5.0906,-5.0906,-5.0906,-5.0906,-5.0906,-5.0906,-5.0906,-5.0906,-5.0906,-5.0906,-5.0874,-5.0808,-5.0808,-5.0718,-5.0586,-5.0586,-5.0586,-5.0547,-5.0446,-5.0508,-5.0681,-5.0606,-5.0567,-5.0547,-5.0567,-5.0664,-5.0758]}]]